[[{"header":{"parameterUnit":"m.s-1","parameterCategory":1,"la1":30.6,"la2":28.766,"lo1":-90.7593,"lo2":-88.6598,"dy":0.0162,"dx":0.0183,"nx":116,"ny":114,"refTime":"2023-10-21T06:00:00:Z","depth":0,"parameterNumber":2,"parameterNumberName":"U-component_of_WINDS"},"data":[0.0,0.0,0.0,0.0,0.0,0.0,0.0,0.0,0.0,0.0,0.0,0.0,0.0,0.0,0.0,0.0,0.0,0.0,0.0,0.0,0.0,0.0,0.0,0.0,0.0,0.0,0.0,0.0,0.0,0.0,0.0,0.0,0.0,0.0,0.0,0.0,0.0,0.0,0.0,0.0,0.0,0.0,0.0,0.0,0.0,0.0,0.0,0.0,0.0,0.0,0.0,0.0,0.0,0.0,0.0,0.0,0.0,0.0,0.0,0.0,0.0,0.0,0.0,0.0,0.0,0.0,0.0,0.0,0.0,0.0,0.0,0.0,0.0,0.0,0.0,0.0,0.0,0.0,0.0,0.0,0.0,0.0,0.0,0.0,0.0,0.0,0.0,0.0,0.0,0.0,0.0,0.0,0.0,0.0,0.0,0.0,0.0,0.0,0.0,0.0,0.0,0.0,0.0,0.0,0.0,0.0,0.0,0.0,0.0,0.0,0.0,0.0,0.0,0.0,0.0,0.0,0.0,0.0,0.0,0.0,0.0,0.0,0.0,0.0,0.0,0.0,0.0,0.0,0.0,0.0,0.0,0.0,0.0,0.0,0.0,0.0,0.0,0.0,0.0,0.0,0.0,0.0,0.0,0.0,0.0,0.0,0.0,0.0,0.0,0.0,0.0,0.0,0.0,0.0,0.0,0.0,0.0,0.0,0.0,0.0,0.0,0.0,0.0,0.0,0.0,0.0,0.0,0.0,0.0,0.0,0.0,0.0,0.0,0.0,0.0,0.0,0.0,0.0,0.0,0.0,0.0,0.0,0.0,0.0,0.0,0.0,0.0,0.0,0.0,0.0,0.0,0.0,0.0,0.0,0.0,0.0,0.0,0.0,0.0,0.0,0.0,0.0,0.0,0.0,0.0,0.0,0.0,0.0,0.0,0.0,0.0,0.0,0.0,0.0,0.0,0.0,0.0,0.0,0.0,0.0,0.0,0.0,0.0,0.0,0.0,0.0,0.0,0.0,0.0,0.0,0.0,0.0,0.0,0.0,0.0,0.0,0.0,0.0,0.0,0.0,0.0,0.0,0.0,0.0,0.0,0.0,0.0,0.0,0.0,0.0,0.0,0.0,0.0,0.0,0.0,0.0,0.0,0.0,0.0,0.0,0.0,0.0,0.0,0.0,0.0,0.0,0.0,0.0,0.0,0.0,0.0,0.0,0.0,0.0,0.0,0.0,0.0,0.0,0.0,0.0,0.0,0.0,0.0,0.0,0.0,0.0,0.0,0.0,0.0,0.0,0.0,0.0,0.0,0.0,0.0,0.0,0.0,0.0,0.0,0.0,0.0,0.0,0.0,0.0,0.0,0.0,0.0,0.0,0.0,0.0,0.0,0.0,0.0,0.0,0.0,0.0,0.0,0.0,0.0,0.0,0.0,0.0,0.0,0.0,0.0,0.0,0.0,0.0,0.0,0.0,0.0,0.0,0.0,0.0,0.0,0.0,0.0,0.0,0.0,0.0,0.0,0.0,0.0,0.0,0.0,0.0,0.0,0.0,0.0,0.0,0.0,0.0,0.0,0.0,0.0,0.0,0.0,0.0,0.0,0.0,0.0,0.0,0.0,0.0,0.0,0.0,0.0,0.0,0.0,0.0,0.0,0.0,0.0,0.0,0.0,0.0,0.0,0.0,0.0,0.0,0.0,0.0,0.0,0.0,0.0,0.0,0.0,0.0,0.0,0.0,0.0,0.0,0.0,0.0,0.0,0.0,0.0,0.0,0.0,0.0,0.0,0.0,0.0,0.0,0.0,0.0,0.0,0.0,0.0,0.0,0.0,0.0,0.0,0.0,0.0,0.0,0.0,0.0,0.0,0.0,0.0,0.0,0.0,0.0,0.0,0.0,0.0,0.0,0.0,0.0,0.0,0.0,0.0,0.0,0.0,0.0,0.0,0.0,0.0,0.0,0.0,0.0,0.0,0.0,0.0,0.0,0.0,0.0,0.0,0.0,0.0,0.0,0.0,0.0,0.0,0.0,0.0,0.0,0.0,0.0,0.0,0.0,0.0,0.0,0.0,0.0,0.0,0.0,0.0,0.0,0.0,0.0,0.0,0.0,0.0,0.0,0.0,0.0,0.0,0.0,0.0,0.0,0.0,0.0,0.0,0.0,0.0,0.0,0.0,0.0,0.0,0.0,0.0,0.0,0.0,0.0,0.0,0.0,0.0,0.0,0.0,0.0,0.0,0.0,0.0,0.0,0.0,0.0,0.0,0.0,0.0,0.0,0.0,0.0,0.0,0.0,0.0,0.0,0.0,0.0,0.0,0.0,0.0,0.0,0.0,0.0,0.0,0.0,0.0,0.0,0.0,0.0,0.0,0.0,0.0,0.0,0.0,0.0,0.0,0.0,0.0,0.0,0.0,0.0,0.0,0.0,0.0,0.0,0.0,0.0,0.0,0.0,0.0,0.0,0.0,0.0,0.0,0.0,0.0,0.0,0.0,0.0,0.0,0.0,0.0,0.0,0.0,0.0,0.0,0.0,0.0,0.0,0.0,0.0,0.0,0.0,0.0,0.0,0.0,0.0,0.0,0.0,0.0,0.0,0.0,0.0,0.0,0.0,0.0,0.0,0.0,0.0,0.0,0.0,0.0,0.0,0.0,0.0,0.0,0.0,0.0,0.0,0.0,0.0,0.0,0.0,0.0,0.0,0.0,0.0,0.0,0.0,0.0,0.0,0.0,0.0,0.0,0.0,0.0,0.0,0.0,0.0,0.0,0.0,0.0,0.0,0.0,0.0,0.0,0.0,0.0,0.0,0.0,0.0,0.0,0.0,0.0,0.0,0.0,0.0,0.0,0.0,0.0,0.0,0.0,0.0,0.0,0.0,0.0,0.0,0.0,0.0,0.0,0.0,0.0,0.0,0.0,0.0,0.0,0.0,0.0,0.0,0.0,0.0,0.0,0.0,0.0,0.0,0.0,0.0,0.0,0.0,0.0,0.0,0.0,0.0,0.0,0.0,0.0,0.0,0.0,0.0,0.0,0.0,0.0,0.0,0.0,0.0,0.0,0.0,0.0,0.0,0.0,0.0,0.0,0.0,0.0,0.0,0.0,0.0,0.0,0.0,0.0,0.0,0.0,0.0,0.0,0.0,0.0,0.0,0.0,0.0,0.0,0.0,0.0,0.0,0.0,0.0,0.0,0.0,0.0,0.0,0.0,0.0,0.0,0.0,0.0,0.0,0.0,0.0,0.0,0.0,0.0,0.0,0.0,0.0,0.0,0.0,0.0,0.0,0.0,0.0,0.0,0.0,0.0,0.0,0.0,0.0,0.0,0.0,0.0,0.0,0.0,0.0,0.0,0.0,0.0,0.0,0.0,0.0,0.0,0.0,0.0,0.0,0.0,0.0,0.0,0.0,0.0,0.0,0.0,0.0,0.0,0.0,0.0,0.0,0.0,0.0,0.0,0.0,0.0,0.0,0.0,0.0,0.0,0.0,0.0,0.0,0.0,0.0,0.0,0.0,0.0,0.0,0.0,0.0,0.0,0.0,0.0,0.0,0.0,0.0,0.0,0.0,0.0,0.0,0.0,0.0,0.0,0.0,0.0,0.0,0.0,0.0,0.0,0.0,0.0,0.0,0.0,0.0,0.0,0.0,0.0,0.0,0.0,0.0,0.0,0.0,0.0,0.0,0.0,0.0,0.0,0.0,0.0,0.0,0.0,0.0,0.0,0.0,0.0,0.0,0.0,0.0,0.0,0.0,0.0,0.0,0.0,0.0,0.0,0.0,0.0,0.0,0.0,0.0,0.0,0.0,0.0,0.0,0.0,0.0,0.0,0.0,0.0,0.0,0.0,0.0,0.0,0.0,0.0,0.0,0.0,0.0,0.0,0.0,0.0,0.0,0.0,0.0,0.0,0.0,0.0,0.0,0.0,0.0,0.0,0.0,0.0,0.0,0.0,0.0,0.0,0.0,0.0,0.0,0.0,0.0,0.0,0.0,0.0,0.0,0.0,0.0,0.0,0.0,0.0,0.0,0.0,0.0,0.0,0.0,0.0,0.0,0.0,0.0,0.0,0.0,0.0,0.0,0.0,0.0,0.0,0.0,0.0,0.0,0.0,0.0,0.0,0.0,0.0,0.0,0.0,0.0,0.0,0.0,0.0,0.0,0.0,0.0,0.0,0.0,0.0,0.0,0.0,0.0,0.0,0.0,0.0,0.0,0.0,0.0,0.0,0.0,0.0,0.0,0.0,0.0,0.0,0.0,0.0,0.0,0.0,0.0,0.0,0.0,0.0,0.0,0.0,0.0,0.0,0.0,0.0,0.0,0.0,0.0,0.0,0.0,0.0,0.0,0.0,0.0,0.0,0.0,0.0,0.0,0.0,0.0,0.0,0.0,0.0,0.0,0.0,0.0,0.0,0.0,0.0,0.0,0.0,0.0,0.0,0.0,0.0,0.0,0.0,0.0,0.0,0.0,0.0,0.0,0.0,0.0,0.0,0.0,0.0,0.0,0.0,0.0,0.0,0.0,0.0,0.0,0.0,0.0,0.0,0.0,0.0,0.0,0.0,0.0,0.0,0.0,0.0,0.0,0.0,0.0,0.0,0.0,0.0,0.0,0.0,0.0,0.0,0.0,0.0,0.0,0.0,0.0,0.0,0.0,0.0,0.0,0.0,0.0,0.0,0.0,0.0,0.0,0.0,0.0,0.0,0.0,0.0,0.0,0.0,0.0,0.0,0.0,0.0,0.0,0.0,0.0,0.0,0.0,0.0,0.0,0.0,0.0,0.0,0.0,0.0,0.0,0.0,0.0,0.0,0.0,0.0,0.0,0.0,0.0,0.0,0.0,0.0,0.0,0.0,0.0,0.0,0.0,0.0,0.0,0.0,0.0,0.0,0.0,0.0,0.0,0.0,0.0,0.0,0.0,0.0,0.0,0.0,0.0,0.0,0.0,0.0,0.0,0.0,0.0,0.0,0.0,0.0,0.0,0.0,0.0,0.0,0.0,0.0,0.0,0.0,0.0,0.0,0.0,0.0,0.0,0.0,0.0,0.0,0.0,0.0,0.0,0.0,0.0,0.0,0.0,0.0,0.0,0.0,0.0,0.0,0.0,0.0,0.0,0.0,0.0,0.0,0.0,0.0,0.0,0.0,0.0,0.0,0.0,0.0,0.0,0.0,0.0,0.0,0.0,0.0,0.0,0.0,0.0,0.0,0.0,0.0,0.0,0.0,0.0,0.0,0.0,0.0,0.0,0.0,0.0,0.0,0.0,0.0,0.0,0.0,0.0,0.0,0.0,0.0,0.0,0.0,0.0,0.0,0.0,0.0,0.0,0.0,0.0,0.0,0.0,0.0,0.0,0.0,0.0,0.0,0.0,0.0,0.0,0.0,0.0,0.0,0.0,0.0,0.0,0.0,0.0,0.0,0.0,0.0,0.0,0.0,0.0,0.0,0.0,0.0,0.0,0.0,0.0,0.0,0.0,0.0,0.0,0.0,0.0,0.0,0.0,0.0,0.0,0.0,0.0,0.0,0.0,0.0,0.0,0.0,0.0,0.0,0.0,0.0,0.0,0.0,0.0,0.0,0.0,0.0,0.0,0.0,0.0,0.0,0.0,0.0,0.0,0.0,0.0,0.0,0.0,0.0,0.0,0.0,0.0,0.0,0.0,0.0,0.0,0.0,0.0,0.0,0.0,0.0,0.0,0.0,0.0,0.0,0.0,0.0,0.0,0.0,0.0,0.0,0.0,0.0,0.0,0.0,0.0,0.0,0.0,0.0,0.0,0.0,0.0,0.0,0.0,0.0,0.0,0.0,0.0,0.0,0.0,0.0,0.0,0.0,0.0,0.0,0.0,0.0,0.0,0.0,0.0,0.0,0.0,0.0,0.0,0.0,0.0,0.0,0.0,0.0,0.0,0.0,0.0,0.0,0.0,0.0,0.0,0.0,0.0,0.0,0.0,0.0,0.0,0.0,0.0,0.0,0.0,0.0,0.0,0.0,0.0,0.0,0.0,0.0,0.0,0.0,0.0,0.0,0.0,0.0,0.0,0.0,0.0,0.0,0.0,0.0,0.0,0.0,0.0,0.0,0.0,0.0,0.0,0.0,0.0,0.0,0.0,-2.5346,0.0,0.0,0.0,0.0,0.0,0.0,0.0,0.0,0.0,0.0,0.0,0.0,0.0,0.0,0.0,0.0,0.0,0.0,0.0,0.0,0.0,0.0,0.0,0.0,0.0,0.0,0.0,0.0,0.0,0.0,0.0,0.0,0.0,0.0,0.0,0.0,0.0,0.0,-3.0564,-3.141,-3.1759,-3.1533,-3.1533,-3.1665,-3.1836,0.0,0.0,0.0,0.0,0.0,0.0,0.0,0.0,0.0,0.0,0.0,0.0,0.0,0.0,0.0,0.0,0.0,0.0,0.0,0.0,0.0,0.0,0.0,0.0,0.0,0.0,0.0,0.0,0.0,0.0,0.0,0.0,0.0,0.0,0.0,0.0,0.0,0.0,0.0,0.0,0.0,0.0,0.0,0.0,0.0,0.0,0.0,0.0,0.0,0.0,0.0,0.0,0.0,0.0,0.0,0.0,0.0,0.0,0.0,0.0,0.0,0.0,0.0,0.0,0.0,0.0,0.0,0.0,0.0,0.0,0.0,-2.372,0.0,0.0,0.0,0.0,0.0,0.0,0.0,0.0,0.0,0.0,0.0,0.0,0.0,0.0,0.0,0.0,0.0,0.0,0.0,0.0,0.0,0.0,0.0,0.0,-2.7304,-2.7304,-2.7569,-2.7701,0.0,0.0,0.0,0.0,0.0,0.0,-2.8163,-2.9605,-2.967,-2.8163,-2.9622,-3.0337,-3.0319,-3.0319,-3.0765,-3.1484,-3.1735,0.0,0.0,0.0,0.0,0.0,0.0,0.0,0.0,0.0,0.0,0.0,0.0,0.0,0.0,0.0,0.0,0.0,0.0,0.0,0.0,0.0,0.0,0.0,0.0,0.0,0.0,0.0,0.0,0.0,0.0,0.0,0.0,0.0,0.0,0.0,0.0,0.0,0.0,0.0,0.0,0.0,0.0,0.0,0.0,0.0,0.0,0.0,0.0,0.0,0.0,0.0,0.0,0.0,0.0,0.0,0.0,0.0,0.0,0.0,0.0,0.0,0.0,0.0,-2.3794,-2.3768,-2.3768,-2.3768,-2.3625,-2.3229,-2.3094,-2.3088,-2.3088,-2.2966,0.0,0.0,0.0,0.0,0.0,0.0,0.0,0.0,0.0,0.0,0.0,0.0,0.0,0.0,0.0,0.0,0.0,0.0,0.0,0.0,0.0,-2.3597,-2.3597,-2.3597,-2.4979,-2.5853,0.0,0.0,0.0,0.0,0.0,0.0,-2.8163,-2.8427,-2.8427,-2.8163,-2.8427,-2.8558,-2.8558,-2.8558,-2.8573,-2.8799,-2.9949,-3.0255,-2.9847,0.0,0.0,0.0,0.0,0.0,0.0,0.0,0.0,0.0,0.0,0.0,0.0,0.0,0.0,0.0,0.0,0.0,0.0,0.0,0.0,0.0,0.0,0.0,0.0,0.0,0.0,0.0,0.0,0.0,0.0,0.0,0.0,0.0,0.0,0.0,0.0,0.0,0.0,0.0,0.0,0.0,-2.3873,-2.3608,0.0,0.0,0.0,0.0,0.0,0.0,0.0,0.0,0.0,0.0,0.0,0.0,0.0,-2.4516,-2.4516,-2.4275,-2.4142,-2.4142,-2.3888,-2.3768,-2.3768,-2.3768,-2.2814,-2.1198,-2.295,0.0,-2.3634,-2.338,0.0,0.0,0.0,0.0,0.0,0.0,0.0,0.0,0.0,0.0,0.0,0.0,0.0,0.0,0.0,0.0,0.0,0.0,0.0,0.0,0.0,-2.2928,-2.2928,-2.2928,-2.3597,-2.4062,-2.4244,-2.5013,0.0,0.0,0.0,-2.5756,-2.5756,-2.6571,-2.6842,-2.6706,-2.5719,-2.5719,-2.6706,-2.6706,-2.7238,-2.8163,-2.7736,-2.8028,-2.8781,-2.8781,0.0,0.0,0.0,0.0,0.0,0.0,0.0,0.0,0.0,0.0,0.0,0.0,0.0,0.0,0.0,0.0,0.0,0.0,0.0,0.0,0.0,0.0,0.0,0.0,0.0,0.0,0.0,0.0,0.0,0.0,0.0,0.0,0.0,0.0,0.0,0.0,0.0,0.0,0.0,-2.3487,-2.3581,-2.3581,-2.3834,-2.4008,0.0,0.0,0.0,0.0,0.0,0.0,0.0,0.0,0.0,-2.1054,-2.1158,-2.1216,-2.1216,-2.1112,-2.1054,-2.1054,-2.095,-2.0893,-2.0893,-2.0893,-2.0365,-1.9552,-2.0439,-2.0893,-2.0932,-2.1558,-2.1246,-2.037,0.0,0.0,0.0,0.0,-1.9841,-1.9818,0.0,0.0,0.0,0.0,0.0,0.0,0.0,0.0,0.0,0.0,0.0,0.0,-2.1527,-2.1885,-2.216,-2.216,-2.216,-2.2497,-2.323,-2.3327,0.0,-2.3754,-2.3768,-2.3768,-2.3768,-2.4918,-2.5284,-2.5037,-2.3763,-2.3763,-2.5037,-2.5037,-2.5726,-2.6914,-2.5517,-2.5861,-2.7503,-2.7503,-2.7503,-2.7569,0.0,0.0,0.0,0.0,0.0,0.0,0.0,0.0,0.0,0.0,0.0,0.0,0.0,0.0,0.0,0.0,0.0,0.0,0.0,0.0,0.0,0.0,0.0,0.0,0.0,0.0,0.0,0.0,0.0,0.0,0.0,0.0,0.0,0.0,0.0,0.0,0.0,-2.265,-2.2328,-2.2328,-2.2579,-2.2741,0.0,0.0,0.0,0.0,0.0,0.0,-1.8572,-1.8572,-1.8572,-1.8572,-1.8572,-1.8572,-1.8572,-1.8633,-1.8653,-1.8663,-1.8714,-1.8734,-1.8734,-1.8734,-1.8429,-1.797,-1.8455,-1.8045,-1.7255,-1.9212,-1.9198,-1.792,-1.7736,-1.7726,-1.7746,-1.7599,-1.7518,-1.756,0.0,0.0,0.0,0.0,0.0,0.0,0.0,0.0,0.0,0.0,0.0,-2.1527,-1.7879,-1.9147,-2.0271,-2.0271,-2.0271,-2.1086,-2.316,-2.3327,-2.346,-2.3754,-2.3768,-2.3768,-2.3768,-2.3897,-2.3883,-2.3856,-2.3799,-2.3799,-2.3856,-2.3856,-2.3779,-2.3509,-2.344,-2.4218,-2.5651,-2.5651,-2.5651,-2.5786,-2.7503,0.0,0.0,0.0,0.0,0.0,0.0,0.0,0.0,0.0,0.0,0.0,0.0,0.0,0.0,0.0,0.0,0.0,0.0,0.0,0.0,0.0,0.0,0.0,0.0,0.0,0.0,0.0,0.0,0.0,0.0,0.0,0.0,0.0,0.0,0.0,0.0,0.0,0.0,-1.8367,-1.8645,0.0,0.0,0.0,0.0,-1.8723,-1.8648,-1.8572,-1.8572,-1.8572,-1.8572,-1.8572,-1.8572,-1.8572,-1.8572,-1.8708,-1.8819,-1.8819,-1.8942,-1.8955,-1.8955,-1.8955,-1.7936,-1.6205,-1.8048,-1.6578,-1.3233,-1.6756,-1.835,-1.8501,-1.793,-1.789,-1.805,-1.7756,-1.7676,-1.7676,0.0,0.0,0.0,0.0,0.0,0.0,0.0,0.0,-1.9052,-1.8503,-1.8887,-1.8784,-1.7511,-1.7903,-1.8229,-1.8229,-1.8368,-1.8834,-1.973,-2.1138,-2.2091,-2.2362,-2.3645,-2.4235,-2.4048,-2.4048,-2.3955,-2.3768,-2.3768,-2.3768,-2.3768,-2.3768,-2.3714,-2.3607,-2.3607,-2.3893,-2.4372,-2.3969,-2.3856,-2.3856,-2.452,-2.4791,0.0,0.0,0.0,0.0,0.0,0.0,0.0,0.0,0.0,0.0,0.0,0.0,0.0,0.0,0.0,0.0,0.0,0.0,0.0,0.0,0.0,0.0,0.0,0.0,0.0,0.0,0.0,0.0,0.0,0.0,0.0,0.0,0.0,0.0,0.0,0.0,0.0,-1.8451,-1.8522,0.0,-1.8572,-1.736,-1.6599,-1.6599,-1.5387,-1.4676,-1.4796,-1.4804,-1.4859,-1.4971,-1.4979,-1.4979,-1.4979,-1.5042,-1.5074,-1.5074,-1.513,-1.5162,-1.5162,-1.5162,-1.4772,-1.4134,-1.4781,-1.4211,-1.3027,-1.4319,-1.478,-1.4621,-1.4418,-1.441,-1.4441,-1.4275,-1.4212,-1.4196,0.0,0.0,0.0,0.0,0.0,0.0,0.0,0.0,-1.7017,-1.6515,-1.6915,-1.6744,-1.5605,-1.5994,-1.6291,-1.6368,-1.6501,-1.6981,-1.7923,-1.9338,-2.0284,-2.0605,-2.1826,-2.2497,-2.2325,-2.2999,-2.3203,-2.3096,-2.376,-2.4062,-2.4062,-2.4062,-2.4008,-2.3915,-2.3915,-2.3861,-2.3741,-2.334,-2.3166,-2.3166,-2.3166,-2.3166,-2.3166,0.0,0.0,0.0,0.0,0.0,0.0,0.0,0.0,0.0,0.0,0.0,0.0,0.0,0.0,0.0,0.0,0.0,0.0,0.0,0.0,0.0,0.0,0.0,0.0,0.0,0.0,0.0,0.0,0.0,0.0,0.0,0.0,0.0,0.0,0.0,-1.6523,-1.6523,-1.6523,-1.6523,-1.6523,-1.5368,-1.457,-1.457,-1.3396,-1.2698,-1.28,-1.2807,-1.2854,-1.3036,-1.2963,-1.2983,-1.303,-1.3085,-1.3132,-1.3186,-1.3234,-1.3261,-1.3261,-1.3261,-1.3261,-1.3254,-1.3152,-1.3112,-1.3105,-1.3003,-1.284,-1.2657,-1.2657,-1.2657,-1.2644,-1.2549,-1.2515,-1.2501,0.0,0.0,0.0,0.0,0.0,0.0,0.0,-1.5839,-1.6343,-1.4583,-1.5919,-1.5637,-1.1979,-1.3238,-1.4365,-1.4622,-1.4575,-1.553,-1.7753,-1.8016,-1.819,-1.8562,-1.8572,-1.8572,-1.8572,-2.0542,-2.1527,-2.1527,-2.3487,-2.4414,-2.4488,-2.4488,-2.4416,-2.4222,-2.4222,-2.4062,-2.3794,-2.3794,-2.3794,-2.3794,-2.3781,-2.3768,-2.3768,0.0,0.0,0.0,0.0,0.0,0.0,0.0,0.0,0.0,0.0,0.0,0.0,0.0,0.0,0.0,0.0,0.0,0.0,0.0,0.0,0.0,0.0,0.0,0.0,0.0,0.0,0.0,0.0,0.0,0.0,0.0,0.0,0.0,-1.5157,-1.3714,-1.2501,-1.2501,-1.2508,-1.2508,-1.2508,-1.2651,-1.2739,-1.2739,-1.2874,-1.2963,-1.305,-1.2969,-1.2976,-1.2983,-1.2983,-1.3057,-1.3193,-1.3342,-1.3492,-1.3641,-1.3777,-1.3838,-1.3838,-1.3838,-1.3838,-1.3824,-1.3539,-1.3417,-1.339,-1.3105,-1.299,-1.299,-1.305,-1.2963,-1.2963,-1.2963,-1.2963,-1.2963,0.0,0.0,0.0,0.0,0.0,0.0,0.0,-1.2817,-1.2998,-1.2547,-1.2892,-1.279,-1.1835,-1.2107,-1.2417,-1.246,-1.267,-1.3059,-1.3737,-1.532,-1.6924,-1.8497,-1.8572,-1.8572,-1.8572,-1.9176,-1.9403,-1.9403,-2.0005,-2.0991,-2.2434,-2.2434,-2.3152,-2.4516,-2.4516,-2.4476,-2.4396,-2.4396,-2.4396,-2.4369,-2.3941,-2.3768,-2.3768,0.0,0.0,0.0,0.0,0.0,0.0,0.0,0.0,0.0,0.0,0.0,0.0,0.0,0.0,0.0,0.0,0.0,0.0,0.0,0.0,0.0,0.0,0.0,0.0,0.0,0.0,0.0,0.0,0.0,0.0,0.0,-1.2501,-1.2656,-1.3259,-1.2881,-1.2501,-1.2501,-1.2603,-1.2664,-1.2664,-1.2807,-1.2895,-1.2895,-1.2935,-1.3003,-1.3112,-1.322,-1.3329,-1.3444,-1.3546,-1.362,-1.3654,-1.3695,-1.3743,-1.3783,-1.3824,-1.3838,-1.3838,-1.3838,-1.3838,-1.3838,-1.3756,-1.3722,-1.3715,-1.3634,-1.36,-1.3553,-1.3125,-1.2963,-1.2963,-1.2963,-1.2963,-1.2963,0.0,0.0,0.0,0.0,0.0,0.0,0.0,-1.1619,-1.1647,-1.1735,-1.1674,-1.1653,-1.1735,-1.1667,-1.1647,-1.1701,-1.1925,-1.2088,-1.2155,-1.3504,-1.4782,-1.5998,-1.6074,-1.6074,-1.6074,-1.6904,-1.7284,-1.7284,-1.8194,-1.9176,-2.0316,-2.0316,-2.0991,-2.2049,-2.2049,-2.2049,-2.2049,-2.2049,-2.2049,-2.2025,-2.1726,-2.2639,-2.4142,-2.4142,-2.4142,-2.4142,-2.4142,-2.4249,-2.4236,-2.3404,0.0,0.0,0.0,0.0,0.0,0.0,0.0,0.0,0.0,0.0,0.0,0.0,0.0,0.0,0.0,0.0,0.0,0.0,0.0,0.0,0.0,0.0,0.0,0.0,-1.2556,-1.2596,-1.2596,-1.2596,-1.2596,-1.2596,-1.2732,-1.2827,-1.2827,-1.2963,-1.3078,-1.3139,-1.3207,-1.3302,-1.3444,-1.3539,-1.3627,-1.3715,-1.3797,-1.3871,-1.3939,-1.3939,-1.3966,-1.4034,-1.4034,-1.4034,-1.4034,-1.4034,-1.4034,0.0,-1.3966,-1.3939,-1.3933,-1.3865,-1.3838,0.0,0.0,0.0,0.0,0.0,-1.32,-1.3146,0.0,0.0,0.0,0.0,0.0,0.0,0.0,-1.1619,-1.1619,-1.1619,-1.1619,-1.1619,-1.1619,-1.1619,-1.1674,-1.1796,-1.1965,-1.2135,-1.2305,-1.2433,-1.2501,-1.2501,-1.2501,-1.2501,-1.2501,-1.4253,-1.5157,-1.5157,-1.698,-1.8042,-1.827,-1.827,-1.8345,-1.8572,-1.8572,-1.8572,-1.8572,-1.8572,-1.8572,-1.8572,-1.8572,-2.0767,-2.3944,-2.3944,-2.3944,-2.3944,-2.3944,-2.3944,-2.3648,-2.1826,0.0,0.0,0.0,0.0,0.0,0.0,0.0,0.0,0.0,0.0,0.0,0.0,0.0,0.0,0.0,0.0,0.0,0.0,0.0,0.0,0.0,0.0,0.0,0.0,-1.2657,-1.2759,-1.2759,-1.2766,-1.2773,-1.2759,-1.2895,-1.299,-1.301,-1.3139,-1.3288,-1.3437,-1.358,-1.3709,-1.3745,0.0,0.0,0.0,0.0,-1.396,-1.4095,-1.4095,-1.4163,-1.4299,-1.4299,-1.4299,-1.4299,-1.4299,-1.4299,-1.4292,-1.4156,-1.4095,-1.4089,-1.3946,-1.3892,-1.3885,-1.3765,-1.3838,-1.3824,-1.3702,-1.3566,-1.3451,0.0,0.0,0.0,0.0,0.0,0.0,0.0,-1.1619,-1.1619,-1.1619,-1.1619,-1.1619,-1.1619,-1.1619,-1.1633,-1.166,-1.1904,-1.2176,-1.244,-1.2488,-1.2501,-1.2501,-1.2501,-1.2501,-1.2501,-1.2881,-1.3112,-1.3112,-1.3491,-1.4475,-1.6074,-1.6074,-1.698,-1.8572,-1.8572,-1.8572,-1.8572,-1.8572,-1.8572,-1.8572,-1.8572,-1.9101,-1.9779,-1.9779,-1.9779,-1.9779,-1.9779,-1.9779,-1.9704,-1.9327,-1.9176,-1.9101,-1.8723,-1.8572,0.0,0.0,0.0,0.0,0.0,0.0,0.0,0.0,0.0,0.0,0.0,0.0,0.0,0.0,0.0,0.0,0.0,0.0,0.0,-1.2684,-1.2813,-1.2915,-1.2915,-1.3017,-1.3044,-1.2929,-1.3044,-1.318,-1.3302,-1.3451,-1.36,-1.3743,-1.3783,-1.381,-1.3838,-1.396,-1.4027,-1.4027,-1.415,-1.4224,-1.4258,-1.4258,-1.4272,-1.4299,0.0,0.0,-1.4299,-1.4299,-1.4299,-1.4299,-1.4272,-1.4258,-1.4251,-1.4224,-1.4211,-1.419,-1.3939,-1.3838,-1.3838,-1.381,-1.3783,-1.3756,0.0,0.0,0.0,0.0,0.0,0.0,0.0,-1.1619,-1.1619,-1.1619,-1.1619,-1.1619,-1.1619,-1.1619,-1.1619,-1.1619,-1.1816,-1.2108,-1.2474,-1.2433,-1.2427,-1.2501,-1.2501,-1.2501,-1.2501,-1.2501,-1.2501,-1.2501,-1.2501,-1.3035,-1.4022,-1.4022,-1.4552,-1.554,-1.554,-1.554,-1.554,-1.554,-1.554,-1.554,-1.554,-1.554,-1.5769,-1.7815,-1.8572,-1.8572,-1.8572,-1.8572,-1.8421,-1.7436,-1.7056,-1.6904,-1.5845,-1.554,-1.554,0.0,0.0,0.0,0.0,0.0,0.0,0.0,0.0,0.0,0.0,0.0,0.0,0.0,0.0,-1.2617,-1.2617,0.0,-1.2847,-1.2847,-1.2969,-1.3064,-1.3064,-1.3261,-1.3349,-1.32,-1.3308,-1.3458,-1.3607,-1.3688,-1.3797,-1.3946,-1.3953,-1.3987,-1.4068,-1.4143,-1.4183,-1.4183,-1.4258,-1.4299,-1.4299,-1.4299,-1.4299,-1.4299,-1.4299,-1.4299,-1.4299,-1.4299,-1.4299,-1.4299,-1.4299,-1.4299,-1.4299,-1.4299,-1.4299,-1.4285,-1.4129,-1.4021,-1.3953,-1.3953,-1.3905,-1.3838,0.0,0.0,0.0,0.0,0.0,0.0,0.0,-1.1619,-1.1619,-1.1619,-1.1619,-1.1619,-1.1619,-1.1619,-1.1633,-1.166,-1.1769,-1.1999,-1.2393,-1.2311,-1.2311,-1.2454,-1.2461,-1.2474,-1.2501,-1.2501,-1.2501,-1.2501,-1.2501,-1.2501,-1.2501,-1.2501,-1.2501,-1.2501,-1.2501,-1.2501,-1.2501,-1.2501,-1.2501,-1.2501,-1.2501,-1.2501,-1.2881,-1.6151,-1.7436,-1.7436,-1.7436,-1.7436,-1.7132,-1.5463,-1.4935,-1.4629,-1.3035,-1.2501,-1.2501,-1.2501,-1.2501,0.0,0.0,0.0,0.0,0.0,0.0,0.0,0.0,-1.2501,-1.2508,-1.2542,-1.2644,-1.2739,-1.2766,-1.2901,-1.3003,-1.3003,-1.3146,-1.3261,-1.3261,-1.3498,-1.3634,-1.3539,-1.3614,-1.3729,-1.3871,-1.3885,-1.3946,-1.4102,-1.4116,-1.417,-1.4292,-1.4299,-1.4299,-1.4299,-1.4299,-1.4299,-1.4299,-1.4299,-1.4299,-1.4299,-1.4299,-1.4299,-1.4299,-1.4299,-1.4299,-1.4299,-1.4299,-1.4299,-1.4299,-1.4299,-1.4299,-1.4299,-1.4299,-1.4224,-1.4116,-1.4116,-1.4034,-1.3933,0.0,0.0,0.0,0.0,0.0,0.0,0.0,0.0,-1.1619,-1.1619,-1.1619,-1.1619,-1.1619,-1.1619,-1.1674,-1.1796,-1.1823,-1.1911,-1.2101,-1.2094,-1.2155,-1.2311,-1.2311,-1.2372,-1.2501,-1.2501,-1.2501,-1.2501,-1.2501,-1.2501,-1.2501,-1.2501,-1.2501,-1.2501,-1.2501,-1.2501,-1.2501,-1.2501,-1.2501,-1.2501,-1.2501,-1.2501,-1.2579,-1.3035,-1.319,-1.319,-1.319,-1.319,-1.319,-1.2881,-1.2804,-1.2804,-1.2579,-1.2501,-1.2501,-1.2501,-1.2501,-1.2501,-1.2501,-1.2501,-1.2501,-1.2501,-1.2501,-1.2501,0.0,-1.2501,-1.2542,-1.2678,-1.2718,-1.2773,-1.2908,-1.3051,-1.3152,-1.3152,-1.339,-1.358,-1.358,-1.3715,-1.3865,-1.398,-1.3892,-1.3878,-1.4034,-1.4048,-1.4109,-1.4265,-1.4272,-1.4285,-1.4299,-1.4299,-1.4299,-1.4299,-1.4299,-1.4299,-1.4299,-1.4299,-1.4299,-1.4299,-1.4299,-1.4299,-1.4299,-1.4299,-1.4299,-1.4299,-1.4299,-1.4299,-1.4299,-1.4299,-1.4299,-1.4299,-1.4299,-1.4292,-1.4272,-1.4272,-1.4265,-1.4251,0.0,0.0,0.0,0.0,0.0,0.0,0.0,0.0,0.0,-1.302,-1.2201,-1.1619,-1.1619,-1.1619,-1.1674,-1.1816,-1.1755,-1.1809,-1.2047,-1.1979,-1.1993,-1.2149,-1.2244,-1.2318,-1.2379,-1.2461,-1.2501,-1.2501,-1.2501,-1.2501,-1.2501,-1.2501,-1.2501,-1.2501,-1.2501,-1.2501,-1.2501,-1.2501,-1.2501,-1.2501,-1.2501,-1.2501,-1.2501,-1.2501,-1.2501,-1.2501,-1.2501,-1.2501,0.0,-1.2501,-1.2501,-1.2501,-1.2501,-1.2501,-1.2501,-1.2501,-1.2501,-1.2501,-1.2501,-1.2501,-1.2501,-1.2501,-1.2569,-1.2637,-1.2637,-1.2705,-1.2786,-1.2854,-1.2929,-1.301,-1.3071,-1.3207,-1.3336,-1.3424,-1.3546,-1.3654,-1.3743,-1.3878,-1.4,-1.4061,-1.4095,-1.4136,-1.4197,-1.4204,-1.4231,-1.4292,-1.4299,-1.4299,-1.4299,-1.4299,-1.4299,-1.4299,-1.4299,-1.4299,-1.4299,-1.4299,-1.4299,-1.4299,-1.4299,-1.4299,-1.4299,-1.4299,-1.4299,-1.4299,-1.4299,-1.4299,-1.4299,-1.4299,-1.4299,-1.4299,-1.4299,-1.4299,-1.4299,-1.4299,-1.4299,-1.4299,0.0,0.0,0.0,0.0,0.0,0.0,0.0,0.0,0.0,0.0,-1.2997,-1.2066,-1.1685,-1.1619,-1.166,-1.1762,-1.1681,-1.1714,-1.1925,-1.1837,-1.1843,-1.1993,-1.2108,-1.2182,-1.223,-1.2372,-1.244,-1.244,-1.2481,-1.2501,-1.2501,-1.2501,-1.2501,-1.2501,-1.2501,-1.2501,-1.2501,-1.2501,-1.2501,-1.2501,-1.2501,-1.2501,-1.2501,-1.2501,-1.2501,-1.2501,-1.2501,-1.2501,-1.2501,-1.2501,-1.2501,-1.2501,-1.2501,-1.2501,-1.2501,-1.2501,-1.2501,-1.2501,-1.2501,-1.2535,-1.2562,-1.2562,-1.2678,-1.2793,-1.2793,-1.2881,-1.2969,-1.301,-1.3098,-1.3186,-1.3227,-1.3363,-1.3498,-1.3614,-1.3695,-1.3783,-1.3892,-1.4034,-1.4136,-1.4136,-1.4231,-1.4299,-1.4299,-1.4299,-1.4299,-1.4299,-1.4299,-1.4299,-1.4299,-1.4299,-1.4299,-1.4299,-1.4299,-1.4299,-1.4299,-1.4299,-1.4299,-1.4299,-1.4299,-1.4299,-1.4299,-1.4299,-1.4299,-1.4299,-1.4299,-1.4299,-1.4299,-1.4299,-1.4299,-1.4299,-1.4299,-1.4299,-1.4299,-1.4299,-1.4299,-1.4299,0.0,0.0,0.0,0.0,0.0,0.0,0.0,0.0,0.0,0.0,0.0,0.0,0.0,-1.1619,-1.1619,-1.1626,-1.1619,-1.1619,-1.1633,-1.1626,-1.1687,-1.183,-1.1843,-1.1911,-1.2067,-1.2216,-1.2298,-1.2298,-1.2433,-1.2501,-1.2501,-1.2501,-1.2501,-1.2501,-1.2501,-1.2501,-1.2501,-1.2501,-1.2501,-1.2501,-1.2501,-1.2501,-1.2501,-1.2501,-1.2501,-1.2501,-1.2501,-1.2501,-1.2501,-1.2501,-1.2501,-1.2501,-1.2501,-1.2501,-1.2501,-1.2501,-1.2501,-1.2501,-1.2501,-1.261,-1.2725,-1.2725,-1.284,-1.2956,-1.2956,-1.3036,-1.3003,-1.3139,-1.3166,-1.322,-1.3363,-1.3519,-1.3627,-1.3627,-1.3871,-1.4061,-1.4061,-1.4197,-1.4292,-1.4292,-1.4299,-1.4299,0.0,-1.4299,-1.4299,-1.4299,-1.4299,-1.4299,-1.4299,-1.4299,-1.4299,-1.4299,-1.4299,-1.4299,-1.4299,-1.4299,-1.4299,-1.4299,-1.4299,-1.4299,-1.4299,-1.4299,-1.4299,-1.4299,-1.4299,-1.4299,-1.4299,-1.4299,-1.4299,-1.4299,-1.4299,-1.4299,-1.4299,-1.4299,-1.4299,-1.4299,0.0,0.0,0.0,0.0,0.0,0.0,0.0,0.0,0.0,0.0,0.0,0.0,0.0,0.0,0.0,0.0,-1.1558,-1.1619,-1.1619,-1.1619,-1.164,-1.1687,-1.1782,-1.1857,-1.1904,-1.206,-1.2142,-1.2142,-1.2291,-1.2359,-1.2366,-1.2461,-1.2501,-1.2501,-1.2501,-1.2501,-1.2501,-1.2501,-1.2501,-1.2501,-1.2501,-1.2501,-1.2501,-1.2501,-1.2501,-1.2501,0.0,-1.2501,-1.2501,-1.2501,-1.2501,-1.2501,-1.2501,-1.2501,-1.2501,-1.2501,-1.2501,-1.2522,-1.2623,-1.2691,-1.2752,-1.2861,-1.299,-1.3105,-1.3105,-1.318,-1.3268,-1.3315,-1.3322,-1.337,-1.3526,-1.3593,-1.3695,-1.3892,-1.4007,-1.4109,-1.4211,-1.4272,-1.4299,-1.4299,-1.4299,0.0,0.0,0.0,0.0,-1.4299,-1.4299,-1.4299,-1.4299,-1.4299,-1.4299,-1.4299,-1.4299,-1.4299,-1.4299,-1.4299,-1.4299,-1.4299,-1.4299,-1.4299,-1.4299,-1.4299,-1.4299,-1.4299,-1.4299,-1.4299,-1.4299,-1.4299,-1.4299,-1.4299,-1.4299,-1.4299,-1.4299,-1.4299,-1.4299,-1.4299,0.0,0.0,0.0,0.0,0.0,0.0,0.0,0.0,0.0,0.0,0.0,0.0,0.0,0.0,0.0,0.0,0.0,-1.1538,-1.1538,-1.1592,-1.1619,-1.1619,-1.1708,-1.1755,-1.1755,-1.1904,-1.1979,-1.1979,-1.2135,-1.221,-1.221,-1.2359,-1.2427,-1.2427,-1.2481,-1.2501,-1.2501,-1.2501,-1.2501,-1.2501,-1.2501,-1.2501,-1.2501,-1.2501,-1.2501,0.0,-1.2501,-1.2501,-1.2501,-1.2501,-1.2501,-1.2501,-1.2501,-1.2501,-1.2501,-1.2501,-1.2542,-1.2603,-1.2705,-1.2807,-1.2915,-1.301,-1.3146,-1.3254,-1.3254,-1.3329,-1.3403,-1.3403,-1.3403,-1.3451,-1.36,-1.3668,-1.3783,-1.4034,-1.4116,-1.419,-1.4285,-1.4299,-1.4299,-1.4299,-1.4299,-1.4299,0.0,0.0,0.0,-1.4299,-1.4299,-1.4299,-1.4299,-1.4299,-1.4299,-1.4299,-1.4299,-1.4299,-1.4299,-1.4299,-1.4299,-1.4299,-1.4299,-1.4299,-1.4299,-1.4299,-1.4299,-1.4299,-1.4299,-1.4299,-1.4299,-1.4299,-1.4299,-1.4299,-1.4299,-1.4299,-1.4299,-1.4299,-1.4299,-1.4299,0.0,0.0,0.0,0.0,0.0,0.0,0.0,0.0,0.0,0.0,0.0,0.0,0.0,0.0,0.0,0.0,0.0,0.0,-1.1382,-1.1525,-1.1606,-1.1606,-1.1613,-1.1619,-1.1619,-1.1748,-1.1823,-1.1823,-1.1972,-1.2047,-1.2054,-1.2216,-1.2291,-1.2298,-1.244,-1.2501,-1.2501,-1.2501,-1.2501,-1.2501,-1.2501,-1.2501,-1.2501,-1.2501,-1.2501,-1.2501,-1.2501,-1.2501,-1.2501,-1.2501,-1.2501,-1.2501,-1.2501,-1.2501,-1.2501,-1.2508,-1.2617,-1.2732,-1.2745,-1.2956,-1.3173,-1.3186,-1.3295,-1.3403,-1.3403,-1.3403,-1.3403,-1.3403,-1.3403,-1.3451,-1.3607,-1.3749,-1.3892,-1.4055,-1.4204,-1.4299,-1.4299,-1.4299,-1.4299,-1.4299,-1.4299,-1.4299,0.0,0.0,0.0,-1.4299,0.0,-1.4299,-1.4299,-1.4299,-1.4299,-1.4299,-1.4299,-1.4299,-1.4299,-1.4299,-1.4299,-1.4299,-1.4299,-1.4299,-1.4299,-1.4299,-1.4299,-1.4299,-1.4299,-1.4299,-1.4299,-1.4299,-1.4299,-1.4299,-1.4299,-1.4299,-1.4299,-1.4299,-1.4299,-1.4299,0.0,0.0,0.0,0.0,0.0,0.0,0.0,0.0,0.0,0.0,0.0,0.0,0.0,0.0,0.0,0.0,0.0,0.0,-1.1219,-1.1362,-1.145,-1.145,-1.1558,-1.1619,-1.1619,-1.1653,-1.1674,-1.1674,-1.1816,-1.1891,-1.1898,-1.2162,-1.2291,-1.2298,-1.244,-1.2501,-1.2501,-1.2501,-1.2501,-1.2501,-1.2501,-1.2501,-1.2501,-1.2501,-1.2501,-1.2501,-1.2501,-1.2501,-1.2501,-1.2501,-1.2501,-1.2501,-1.2501,-1.2501,-1.2522,-1.2637,-1.2698,-1.2779,-1.2996,-1.3112,-1.32,-1.3315,-1.337,-1.3403,-1.3403,-1.3403,-1.3403,-1.3403,-1.3403,-1.3478,-1.3736,-1.3817,-1.3926,-1.4197,-1.4278,-1.4299,-1.4299,-1.4299,-1.4299,-1.4299,-1.4299,-1.4299,-1.4299,-1.4299,0.0,0.0,-1.4299,-1.4299,-1.4299,-1.4299,-1.4299,-1.4299,-1.4299,-1.4299,-1.4299,-1.4299,-1.4299,-1.4299,-1.4299,-1.4299,-1.4299,-1.4299,-1.4299,-1.4299,-1.4299,-1.4299,-1.4299,-1.4299,-1.4299,-1.4299,-1.4299,-1.4299,-1.4299,-1.4299,-1.4299,-1.4299,0.0,0.0,0.0,0.0,0.0,0.0,0.0,0.0,0.0,0.0,0.0,0.0,0.0,0.0,0.0,0.0,0.0,0.0,0.0,-1.1614,-1.1294,-1.1294,-1.1436,-1.1518,-1.1518,-1.1586,-1.1619,-1.1619,-1.1701,-1.1735,-1.1742,-1.1979,-1.2088,-1.2094,-1.2244,-1.2345,-1.2406,-1.2406,-1.2447,0.0,0.0,-1.2501,-1.2501,-1.2501,-1.2501,-1.2501,-1.2501,-1.2501,-1.2501,-1.2501,-1.2501,-1.2501,-1.2501,-1.2549,-1.2617,-1.2705,-1.282,-1.2963,-1.3125,-1.322,-1.3295,-1.3376,-1.3403,-1.3403,-1.3403,-1.3403,-1.3403,-1.3403,-1.3403,-1.3492,-1.3783,-1.3838,-1.3939,-1.4251,-1.4299,-1.4299,-1.4299,-1.4299,-1.4299,-1.4299,-1.4299,-1.4299,-1.4299,-1.4299,-1.4299,0.0,-1.4299,-1.4299,-1.4299,-1.4299,-1.4299,-1.4299,-1.4299,-1.4299,-1.4299,-1.4299,-1.4299,-1.4299,-1.4299,-1.4299,-1.4299,-1.4299,-1.4299,-1.4299,0.0,-1.4299,-1.4299,-1.4299,-1.4299,-1.4299,-1.4299,-1.4299,-1.4299,-1.4299,-1.4299,-1.4299,0.0,0.0,0.0,0.0,0.0,0.0,0.0,0.0,0.0,0.0,0.0,0.0,0.0,0.0,0.0,0.0,0.0,0.0,0.0,0.0,-1.1544,-1.1544,-1.142,-1.1369,-1.1389,-1.1518,-1.1599,-1.1619,-1.1619,-1.1619,-1.1619,-1.1762,-1.183,-1.1837,-1.1993,-1.2135,-1.2257,-1.2257,-1.2345,-1.2474,-1.2474,-1.2481,-1.2501,0.0,-1.2501,-1.2501,-1.2501,-1.2501,-1.2501,-1.2501,-1.2501,-1.2501,-1.2501,-1.261,-1.2732,-1.2752,-1.2956,-1.318,-1.32,-1.3302,-1.3403,-1.3403,-1.3403,-1.3403,-1.3403,-1.3403,-1.3403,-1.3403,-1.3403,-1.3492,-1.3783,-1.3838,-1.3939,-1.4251,-1.4299,-1.4299,-1.4299,-1.4299,-1.4299,-1.4299,-1.4299,-1.4299,-1.4299,-1.4299,-1.4299,-1.4299,-1.4299,-1.4299,-1.4299,-1.4299,-1.4299,-1.4299,-1.4299,-1.4299,-1.4299,-1.4299,-1.4299,-1.4299,-1.4299,-1.4299,-1.4299,-1.4299,-1.4299,-1.4299,-1.4299,0.0,-1.4299,-1.4299,-1.4299,-1.4299,-1.4299,-1.4312,-1.4326,-1.4326,-1.434,-1.436,0.0,0.0,0.0,0.0,0.0,0.0,0.0,0.0,0.0,0.0,0.0,0.0,0.0,0.0,0.0,0.0,0.0,0.0,0.0,0.0,0.0,-1.3116,-1.1866,-1.126,-1.1389,-1.1416,-1.1491,-1.1619,-1.1619,-1.1619,-1.1619,-1.1762,-1.183,-1.1837,-1.1993,-1.2074,-1.2101,-1.2101,-1.2189,-1.2325,-1.2325,-1.24,-1.2501,-1.2501,0.0,0.0,-1.2501,-1.2501,-1.2501,-1.2501,-1.2501,-1.2501,-1.2501,-1.261,-1.2752,-1.2881,-1.3037,-1.32,-1.3329,-1.3376,-1.3403,-1.3403,-1.3403,-1.3403,-1.3403,-1.3403,-1.3403,-1.3403,-1.3403,-1.3492,-1.3783,-1.3838,-1.3939,-1.4251,-1.4299,-1.4299,-1.4299,-1.4299,-1.4299,-1.4299,-1.4299,-1.4299,-1.4299,-1.4299,0.0,0.0,-1.4299,-1.4299,-1.4299,-1.4299,-1.4299,-1.4299,-1.4299,-1.4299,-1.4299,-1.4299,-1.4299,-1.4299,-1.4299,-1.4299,-1.4299,-1.4299,-1.4299,-1.4299,-1.4299,0.0,-1.4299,-1.4299,-1.4299,-1.4299,-1.4299,-1.4373,-1.4475,-1.4475,-1.4557,-1.4665,0.0,0.0,0.0,0.0,0.0,0.0,0.0,0.0,0.0,0.0,-2.1109,-2.1109,0.0,0.0,0.0,0.0,0.0,0.0,0.0,0.0,0.0,-1.4772,-1.3234,-1.2437,-1.2513,-1.1797,-1.1423,-1.1497,0.0,-1.1619,-1.1619,-1.1687,-1.1721,-1.1721,-1.1796,-1.187,-1.1938,-1.1938,-1.2033,-1.2176,-1.2257,-1.2332,-1.24,0.0,0.0,0.0,-1.2501,-1.2501,-1.2501,-1.2501,-1.2501,-1.2501,-1.2501,-1.2664,-1.2868,-1.2942,-1.3119,-1.3308,-1.3383,-1.3403,-1.3403,-1.3403,-1.3403,-1.3403,-1.3403,-1.3403,-1.3403,-1.3403,-1.3403,-1.3464,-1.3688,-1.379,-1.3912,-1.4143,-1.4245,-1.4299,-1.4299,-1.4299,-1.4299,-1.4299,-1.4299,-1.4299,-1.4299,-1.4299,-1.4299,-1.4299,-1.4299,-1.4299,-1.4299,-1.4299,-1.4299,-1.4299,-1.4299,-1.4299,-1.4299,-1.4299,-1.4299,-1.4299,-1.4299,-1.4299,-1.4299,-1.4299,-1.4299,-1.4299,-1.4299,0.0,-1.4407,-1.4407,-1.4455,-1.4529,-1.4529,-1.457,-1.4631,-1.4631,-1.4679,-1.474,0.0,0.0,0.0,0.0,0.0,0.0,0.0,-2.2153,-2.1109,-2.1109,-2.1109,-2.1109,-2.1109,-2.1109,0.0,0.0,0.0,0.0,0.0,0.0,0.0,0.0,0.0,-1.4028,-1.4072,0.0,0.0,-1.1945,-1.2073,0.0,0.0,0.0,0.0,0.0,-1.1619,-1.1681,-1.1782,-1.1782,-1.187,0.0,0.0,-1.221,0.0,0.0,0.0,0.0,0.0,-1.2501,-1.2501,-1.2501,-1.2501,-1.2501,-1.2501,-1.2691,-1.2915,-1.2949,-1.3146,-1.3356,-1.339,-1.3403,-1.3403,-1.3403,-1.3403,-1.3403,-1.3403,-1.3403,-1.3403,-1.3403,-1.3403,-1.3451,-1.36,-1.3743,-1.3892,-1.4048,-1.4197,-1.4299,-1.4299,-1.4299,-1.4299,-1.4299,-1.4299,-1.4299,-1.4299,-1.4299,0.0,-1.4299,-1.4299,-1.4299,-1.4299,-1.4299,-1.4299,-1.4299,-1.4299,-1.4299,-1.4299,-1.4299,-1.4299,-1.4299,-1.4299,-1.4299,-1.4299,-1.4299,-1.4299,-1.4299,-1.4333,0.0,0.0,-1.455,-1.4631,-1.474,-1.474,-1.476,-1.4787,-1.4787,-1.4808,-1.4835,0.0,0.0,0.0,0.0,0.0,0.0,0.0,-2.2153,-2.1109,-2.1109,-2.1109,-2.1109,-2.1109,-2.1109,0.0,0.0,0.0,0.0,0.0,0.0,0.0,0.0,0.0,0.0,0.0,0.0,0.0,-1.3743,-1.376,0.0,0.0,0.0,0.0,0.0,0.0,-1.1626,-1.164,-1.164,0.0,0.0,0.0,0.0,0.0,0.0,0.0,0.0,0.0,-1.2501,-1.2501,-1.2501,-1.2501,-1.2501,-1.2501,-1.2617,-1.2779,-1.2922,-1.3071,-1.322,-1.3363,-1.3403,-1.3403,-1.3403,-1.3403,-1.3403,-1.3403,-1.3403,-1.3403,-1.3403,-1.3403,-1.3451,-1.36,-1.3743,-1.3892,-1.4048,-1.4197,-1.4299,-1.4299,-1.4299,-1.4299,-1.4299,-1.4299,-1.4299,-1.4299,-1.4299,-1.4299,-1.4299,-1.4299,0.0,-1.4299,-1.4299,-1.4299,-1.4299,-1.4299,-1.4299,-1.4299,-1.4299,-1.4299,-1.4299,-1.4299,-1.4299,-1.4299,-1.4299,-1.4299,-1.4306,-1.4434,0.0,0.0,-1.4658,-1.4726,-1.474,-1.474,-1.4828,-1.495,-1.495,-1.5031,-1.514,0.0,0.0,0.0,0.0,0.0,0.0,0.0,-2.2153,-2.1109,-2.1109,-2.1109,-2.1109,-2.1109,-2.1109,0.0,0.0,0.0,0.0,0.0,0.0,0.0,0.0,0.0,0.0,0.0,0.0,-1.5805,-1.5239,-1.555,0.0,0.0,0.0,0.0,0.0,0.0,-1.2674,-1.1619,-1.1619,0.0,0.0,0.0,0.0,0.0,0.0,0.0,0.0,0.0,0.0,-1.2501,-1.2501,-1.2501,-1.2501,-1.2501,-1.2542,-1.2623,-1.2779,-1.2929,-1.3078,-1.322,-1.3261,-1.3288,-1.3376,-1.3403,-1.3403,-1.3403,-1.3403,-1.3403,-1.3403,-1.3403,-1.3417,-1.3478,-1.3614,-1.3763,-1.3905,-1.4061,-1.4197,-1.4285,-1.4299,-1.4299,-1.4299,-1.4299,-1.4299,0.0,0.0,-1.4299,-1.4299,-1.4299,0.0,-1.4299,-1.4299,-1.4299,-1.4299,-1.4299,-1.4299,-1.4299,-1.4299,-1.4299,-1.4299,-1.4299,-1.4299,-1.4299,-1.4299,-1.4299,-1.4306,-1.4448,0.0,0.0,-1.4814,-1.493,-1.5004,-1.5004,-1.5045,-1.5099,-1.5099,-1.5133,-1.5181,0.0,0.0,0.0,0.0,0.0,0.0,-2.4471,-2.2452,-2.1109,-2.1109,-2.1109,-2.1109,-2.1109,-2.1109,-2.1109,-2.1109,0.0,0.0,0.0,0.0,0.0,0.0,0.0,0.0,0.0,0.0,-1.7369,-1.6852,-1.7166,-1.7182,0.0,0.0,-1.6135,-1.4432,0.0,0.0,0.0,0.0,0.0,0.0,0.0,0.0,0.0,0.0,0.0,0.0,0.0,0.0,0.0,0.0,0.0,-1.2379,-1.2427,-1.244,-1.2474,-1.2671,-1.2807,-1.2922,-1.3071,-1.3139,-1.32,-1.3308,-1.337,-1.3403,-1.3403,-1.3403,-1.3403,-1.3403,-1.3403,-1.3403,-1.3403,-1.3526,-1.3675,-1.3817,-1.3973,-1.4122,-1.4278,-1.4299,-1.4299,-1.4299,-1.4299,-1.4299,-1.4299,-1.4299,-1.4299,-1.4299,-1.4299,0.0,-1.4299,-1.4299,-1.4299,-1.4299,-1.4299,-1.4299,-1.4299,-1.4299,-1.4299,-1.4299,-1.4299,-1.4299,-1.4299,-1.4299,-1.4299,-1.4306,-1.4448,0.0,0.0,-1.4909,-1.5052,-1.5181,-1.5181,-1.5181,-1.5181,-1.5181,-1.5181,-1.5181,0.0,0.0,0.0,0.0,0.0,0.0,0.0,-2.3186,-2.1109,-2.1109,-2.1109,-2.1109,-2.1109,-2.1109,-2.1109,-2.1109,0.0,0.0,0.0,0.0,0.0,0.0,0.0,0.0,0.0,0.0,-2.0272,-1.8704,-1.8704,-1.8017,-1.6835,-1.6835,-1.5914,-1.4432,0.0,0.0,0.0,0.0,0.0,0.0,0.0,0.0,0.0,0.0,0.0,0.0,0.0,0.0,0.0,0.0,0.0,0.0,0.0,-1.2291,-1.2352,-1.2644,-1.2732,-1.2766,-1.2922,-1.3064,-1.3173,-1.3173,-1.3288,-1.3403,-1.3403,-1.3403,-1.3403,-1.3403,-1.3403,-1.3403,-1.3403,-1.3526,-1.3675,-1.3817,-1.3973,-1.4122,-1.4278,-1.4299,-1.4299,-1.4299,-1.4299,-1.4299,-1.4299,-1.4299,-1.4299,-1.4299,-1.4299,0.0,-1.4299,-1.4299,-1.4299,-1.4299,-1.4299,-1.4299,-1.4299,-1.4299,-1.4299,-1.4299,-1.4299,-1.4299,-1.4299,-1.4299,-1.4299,0.0,0.0,0.0,0.0,-1.4909,-1.5052,-1.5181,-1.5181,-1.5181,-1.5181,-1.5181,-1.5181,-1.5181,0.0,0.0,0.0,0.0,0.0,0.0,0.0,-2.3497,-2.2404,-2.1235,-2.1109,-2.1109,-2.1109,-2.1109,0.0,-2.1109,0.0,0.0,0.0,0.0,0.0,0.0,0.0,0.0,0.0,0.0,-2.0832,-2.0336,-2.0593,-2.0512,-2.0084,-2.0453,-1.9699,-1.7925,-1.6827,-1.5283,0.0,0.0,0.0,0.0,0.0,0.0,0.0,0.0,0.0,0.0,0.0,0.0,0.0,0.0,0.0,0.0,0.0,0.0,0.0,-1.2515,-1.2576,-1.261,-1.2759,-1.2834,-1.2895,-1.3003,-1.3139,-1.3247,-1.3247,-1.3322,-1.3403,-1.3403,-1.3403,-1.3403,-1.3403,-1.3444,-1.3553,-1.3797,-1.3878,-1.4,-1.4265,-1.4299,-1.4299,-1.4299,-1.4299,-1.4299,0.0,0.0,-1.4299,-1.4299,-1.4299,0.0,-1.4299,-1.4299,-1.4299,-1.4299,-1.4299,-1.4299,-1.4299,-1.4299,-1.4299,-1.4299,-1.4299,-1.4299,-1.4299,-1.4299,-1.4299,0.0,0.0,0.0,0.0,-1.4909,-1.5052,-1.5181,-1.5181,-1.5181,-1.5181,-1.5181,-1.5181,-1.5181,0.0,0.0,0.0,0.0,0.0,0.0,0.0,-2.3993,-2.3014,-2.1299,-2.1109,-2.1109,-2.1109,0.0,0.0,0.0,0.0,0.0,0.0,0.0,0.0,0.0,0.0,0.0,0.0,-2.1109,-2.1109,-2.1109,-2.1296,-2.1507,-2.1628,-2.1924,-2.1127,-1.9399,-1.8476,-1.7047,0.0,0.0,0.0,0.0,0.0,0.0,-1.1619,0.0,0.0,0.0,0.0,0.0,0.0,0.0,0.0,0.0,0.0,0.0,0.0,0.0,-1.2461,-1.2522,-1.2617,-1.2684,-1.2752,-1.2847,-1.2983,-1.3105,-1.3159,-1.3247,-1.3329,-1.339,-1.3403,-1.3403,-1.3403,-1.3403,-1.3478,-1.3722,-1.3804,-1.3926,-1.4177,-1.4265,-1.4299,-1.4299,-1.4299,0.0,0.0,-1.4299,-1.4299,-1.4299,0.0,0.0,-1.4299,-1.4299,-1.4299,-1.4299,-1.4299,-1.4299,-1.4299,-1.4299,-1.4299,-1.4299,-1.4299,-1.4299,-1.4299,-1.4299,-1.4299,0.0,0.0,0.0,0.0,-1.4821,-1.497,-1.5106,-1.516,-1.5181,-1.5181,-1.5181,-1.5181,-1.5181,0.0,0.0,0.0,0.0,0.0,0.0,0.0,0.0,0.0,0.0,0.0,-2.1235,-2.1109,0.0,0.0,0.0,0.0,0.0,0.0,0.0,0.0,0.0,0.0,0.0,-2.1109,-2.1109,-2.1109,-2.1109,-2.1109,-2.1256,-2.1588,-2.1601,-2.0824,-1.9409,-1.9522,-1.855,0.0,0.0,0.0,0.0,-1.1619,-1.1619,0.0,0.0,0.0,0.0,0.0,0.0,0.0,0.0,0.0,0.0,0.0,0.0,0.0,0.0,0.0,0.0,0.0,-1.2603,-1.2712,-1.2712,-1.2827,-1.2976,-1.3112,-1.3159,0.0,-1.3356,-1.3397,-1.3403,-1.3403,-1.3403,-1.3451,-1.3607,-1.3749,-1.3892,-1.4048,-1.4204,-1.4299,-1.4299,-1.4299,0.0,-1.4299,-1.4299,-1.4299,-1.4299,0.0,0.0,-1.4299,-1.4299,-1.4299,-1.4299,-1.4299,-1.4299,-1.4299,-1.4299,-1.4299,-1.4299,-1.4299,-1.4299,-1.4299,-1.4299,-1.4299,0.0,0.0,0.0,0.0,-1.4665,-1.4821,-1.4984,-1.5113,-1.5174,-1.5181,-1.5181,-1.5181,-1.5181,0.0,0.0,0.0,0.0,0.0,0.0,0.0,0.0,0.0,0.0,0.0,-2.2529,0.0,0.0,0.0,0.0,0.0,0.0,0.0,0.0,0.0,0.0,0.0,0.0,-2.1109,-2.1109,-2.1109,-2.1109,-2.1109,-2.1149,-2.1216,-2.1507,-2.1396,-2.0993,-1.9808,-1.8383,0.0,0.0,0.0,0.0,-1.218,-1.1619,0.0,0.0,0.0,0.0,-1.1619,-1.1619,0.0,0.0,0.0,0.0,0.0,0.0,0.0,0.0,-1.2393,-1.2501,-1.2501,0.0,-1.2556,-1.2556,-1.2671,-1.2793,0.0,-1.301,-1.3186,-1.322,-1.3322,-1.3403,-1.3403,-1.3403,-1.3451,-1.3607,-1.3749,-1.3892,-1.4048,-1.4204,-1.4299,-1.4299,-1.4299,-1.4299,-1.4299,-1.4299,-1.4299,-1.4299,0.0,-1.4299,-1.4299,-1.4299,-1.4299,-1.4299,-1.4299,-1.4299,-1.4299,-1.4299,-1.4299,-1.4299,-1.4299,-1.4299,-1.4299,-1.4299,-1.4299,0.0,0.0,0.0,-1.4516,-1.455,-1.4726,-1.4977,-1.5011,-1.5086,-1.5181,-1.5181,-1.5181,-1.5181,0.0,0.0,0.0,0.0,0.0,0.0,0.0,0.0,0.0,0.0,0.0,0.0,0.0,0.0,0.0,0.0,0.0,0.0,0.0,0.0,0.0,0.0,0.0,-2.1109,-2.1109,-2.1109,-2.1109,-2.1109,-2.1109,-2.1109,-2.1109,-2.1269,-2.1349,-2.1363,-2.059,-1.9385,0.0,0.0,0.0,0.0,-1.3122,0.0,0.0,0.0,0.0,0.0,-1.1619,-1.1619,0.0,-1.1619,-1.1619,-1.1633,0.0,0.0,0.0,0.0,-1.2291,-1.242,-1.2481,-1.2501,-1.2501,-1.2501,-1.2562,-1.2644,-1.2712,-1.2908,-1.3091,-1.3159,-1.3295,-1.3403,-1.3403,-1.3403,-1.3424,-1.3512,-1.3702,-1.3919,-1.4143,-1.4245,-1.4299,-1.4299,-1.4299,-1.4299,0.0,-1.4299,-1.4299,0.0,0.0,-1.4299,-1.4299,-1.4299,-1.4299,-1.4299,-1.4299,-1.4299,-1.4299,-1.4299,-1.4299,-1.4299,-1.4299,-1.4299,-1.4299,-1.4299,-1.4299,0.0,0.0,0.0,-1.4421,-1.4482,-1.4611,-1.4774,-1.4916,-1.5018,-1.5092,-1.516,-1.5181,-1.5181,0.0,0.0,0.0,0.0,0.0,0.0,0.0,0.0,0.0,0.0,0.0,0.0,0.0,0.0,0.0,0.0,0.0,0.0,0.0,0.0,0.0,0.0,0.0,-2.1109,-2.1109,-2.1109,-2.1109,-2.1109,-2.1109,-2.1109,-2.1109,-2.1109,-2.1109,-2.1122,-2.1376,-2.0785,0.0,0.0,0.0,0.0,-1.418,0.0,0.0,0.0,0.0,0.0,0.0,0.0,0.0,-1.1619,-1.1619,-1.1619,-1.1619,0.0,0.0,0.0,0.0,0.0,-1.2461,-1.2501,-1.2501,-1.2501,-1.2501,-1.2535,-1.2664,-1.2834,-1.2996,-1.3119,-1.3281,-1.3403,-1.3403,-1.3403,-1.3403,-1.3403,-1.3648,-1.3946,-1.4258,-1.4299,-1.4299,-1.4299,-1.4299,0.0,-1.4299,-1.4299,-1.4299,0.0,0.0,-1.4299,-1.4299,-1.4299,-1.4299,-1.4299,-1.4299,-1.4299,-1.4299,-1.4299,-1.4299,-1.4299,-1.4299,-1.4299,-1.4299,-1.4299,-1.4299,-1.4299,0.0,0.0,-1.4306,-1.4428,-1.4489,-1.4536,-1.4821,-1.495,-1.4991,-1.5126,-1.5181,-1.5181,0.0,0.0,0.0,0.0,0.0,0.0,0.0,0.0,0.0,0.0,0.0,0.0,0.0,0.0,0.0,0.0,0.0,0.0,0.0,0.0,0.0,-2.1109,-2.1109,-2.1109,-2.1109,-2.1109,-2.1109,-2.1109,-2.1109,-2.1109,-2.1109,-2.1109,-2.1109,-2.1109,-2.1162,-2.1208,-2.1085,0.0,0.0,-1.8127,-1.5069,0.0,0.0,0.0,0.0,0.0,0.0,0.0,0.0,-1.1619,-1.1619,-1.1619,-1.1619,0.0,0.0,0.0,0.0,0.0,-1.2461,-1.2501,-1.2501,-1.2501,-1.2501,-1.2508,-1.2528,-1.2759,-1.305,-1.307,-1.3214,-1.3403,-1.3403,-1.3403,-1.3403,-1.3403,-1.3648,-1.3946,-1.4258,0.0,-1.4299,-1.4299,0.0,-1.4299,-1.4299,-1.4299,-1.4299,0.0,0.0,-1.4299,-1.4299,-1.4299,-1.4299,-1.4299,-1.4299,-1.4299,-1.4299,-1.4299,-1.4299,-1.4299,-1.4299,-1.4299,-1.4299,-1.4299,-1.4299,-1.4299,0.0,-1.4299,-1.4299,-1.4326,-1.4407,-1.4529,-1.4706,-1.4855,-1.4991,-1.5126,-1.5181,-1.5181,0.0,0.0,0.0,0.0,0.0,0.0,0.0,0.0,0.0,0.0,0.0,0.0,0.0,0.0,0.0,0.0,0.0,0.0,0.0,0.0,0.0,-2.1109,-2.1109,-2.1109,-2.1109,-2.1109,-2.1109,-2.1109,-2.1109,-2.1109,-2.1109,-2.1109,-2.1109,-2.1109,-2.1109,-2.1189,-2.1246,-2.0387,-1.9037,-1.7408,0.0,0.0,0.0,0.0,0.0,0.0,0.0,0.0,0.0,0.0,-1.1619,-1.1619,-1.1619,0.0,0.0,0.0,0.0,0.0,-1.244,-1.2501,-1.2501,-1.2501,-1.2501,-1.2501,-1.2501,-1.2739,-1.2963,-1.2963,-1.3193,-1.3403,-1.3403,-1.3403,-1.3451,-1.3614,-1.3749,-1.3946,-1.4258,-1.4299,-1.4299,0.0,0.0,-1.4299,-1.4299,-1.4299,0.0,0.0,0.0,0.0,-1.4299,-1.4299,-1.4299,-1.4299,-1.4299,-1.4299,-1.4299,-1.4299,-1.4299,-1.4299,-1.4299,-1.4299,-1.4299,-1.4299,-1.4299,-1.4299,0.0,-1.4299,-1.4299,-1.4299,-1.434,-1.4414,-1.4557,-1.4713,-1.4875,-1.5099,-1.5181,-1.5181,0.0,0.0,0.0,0.0,0.0,0.0,0.0,0.0,0.0,0.0,0.0,0.0,0.0,0.0,0.0,0.0,0.0,0.0,0.0,0.0,-2.1109,-2.1109,-2.1109,-2.1109,-2.1109,-2.1109,-2.1109,-2.1109,-2.1109,-2.1109,-2.1109,-2.1109,-2.1109,-2.1109,-2.1109,-2.1109,-2.1109,-2.1109,-1.9401,-1.6637,0.0,0.0,0.0,0.0,0.0,0.0,0.0,0.0,0.0,0.0,0.0,0.0,0.0,0.0,0.0,-1.1932,-1.2033,-1.2121,-1.2379,-1.2474,-1.2501,-1.2501,-1.2501,-1.2508,-1.2549,-1.2766,-1.2969,-1.3003,-1.322,-1.3403,-1.3403,-1.3403,-1.3498,-1.379,-1.3838,-1.3946,-1.4258,-1.4299,-1.4299,-1.4299,-1.4299,-1.4299,-1.4299,0.0,0.0,0.0,0.0,0.0,-1.4299,-1.4299,-1.4299,-1.4299,-1.4299,-1.4299,-1.4299,-1.4299,-1.4299,-1.4299,-1.4299,-1.4299,-1.4299,-1.4299,-1.4299,-1.4299,-1.4299,-1.4299,-1.4299,-1.4299,-1.4299,-1.4312,-1.4455,-1.4624,-1.4828,-1.5086,-1.5181,-1.5181,0.0,0.0,0.0,0.0,0.0,0.0,0.0,0.0,0.0,0.0,0.0,0.0,0.0,0.0,0.0,0.0,0.0,0.0,0.0,0.0,-2.1109,-2.1109,-2.1109,-2.1109,-2.1109,-2.1109,-2.1109,-2.1109,-2.1109,-2.1109,-2.1109,-2.1109,-2.1109,-2.1109,-2.1109,-2.1109,-2.1109,-2.1109,-2.0017,-1.8215,-1.6592,0.0,0.0,0.0,0.0,0.0,0.0,0.0,0.0,0.0,0.0,0.0,0.0,0.0,-1.1647,-1.1803,-1.1952,-1.2094,-1.2264,-1.24,-1.2501,-1.2501,-1.2501,-1.2535,-1.2678,-1.284,-1.3077,-1.3132,-1.3288,-1.3403,-1.3403,-1.3403,-1.3498,-1.379,-1.3838,-1.3946,-1.4258,0.0,-1.4299,-1.4299,-1.4299,-1.4299,-1.4299,0.0,0.0,0.0,0.0,0.0,-1.4299,-1.4299,-1.4299,-1.4299,-1.4299,-1.4299,-1.4299,-1.4299,-1.4299,-1.4299,-1.4299,-1.4299,-1.4299,-1.4299,-1.4299,-1.4299,-1.4299,-1.4299,-1.4299,-1.4299,-1.4299,-1.4312,-1.4455,-1.4692,-1.497,-1.5126,-1.5181,-1.5181,0.0,0.0,0.0,0.0,0.0,0.0,0.0,0.0,0.0,0.0,0.0,0.0,0.0,0.0,0.0,0.0,0.0,0.0,0.0,-2.1109,-2.1109,-2.1109,-2.1109,-2.1109,-2.1109,-2.1109,-2.1109,-2.1109,-2.1109,-2.1109,-2.1109,-2.1109,-2.1109,-2.1109,-2.1109,-2.1109,-2.1046,-1.9941,-1.8512,-1.6754,-1.5005,-1.3259,0.0,0.0,0.0,0.0,0.0,0.0,0.0,0.0,-1.1538,-1.1619,-1.1619,-1.1619,-1.1647,-1.1789,-1.1938,-1.2094,-1.225,-1.2393,-1.2501,-1.2501,-1.2501,-1.2542,-1.2698,-1.2847,-1.3003,-1.3146,-1.3295,-1.3403,-1.3403,-1.3403,-1.3498,-1.379,-1.3838,-1.3946,-1.4258,-1.4299,-1.4299,-1.4299,-1.4299,-1.4299,0.0,0.0,0.0,0.0,0.0,0.0,-1.4299,-1.4299,-1.4299,-1.4299,-1.4299,-1.4299,-1.4299,-1.4299,-1.4299,-1.4299,-1.4299,-1.4299,-1.4299,-1.4299,-1.4299,-1.4299,-1.4299,-1.4299,-1.4299,-1.4299,-1.4299,-1.4326,-1.4563,-1.4726,-1.4855,-1.5092,-1.5181,-1.5181,0.0,0.0,0.0,0.0,0.0,0.0,0.0,0.0,0.0,0.0,0.0,0.0,0.0,0.0,0.0,0.0,0.0,0.0,-2.1109,-2.1109,-2.1109,-2.1109,-2.1109,-2.1109,-2.1109,-2.1109,-2.1109,-2.1109,-2.1109,-2.1109,-2.1109,-2.1109,-2.1109,-2.1109,-2.1109,-2.1109,-2.1046,-1.9801,-1.8308,-1.656,-1.4809,-1.3062,0.0,0.0,0.0,0.0,0.0,0.0,0.0,0.0,-1.1491,-1.1619,-1.1619,-1.1619,-1.164,-1.1735,-1.1904,-1.2088,-1.2189,-1.2359,-1.2501,-1.2501,-1.2501,-1.2556,-1.2759,-1.2888,-1.3017,-1.3207,-1.3329,-1.3403,-1.3403,-1.3403,-1.3498,-1.379,-1.3838,-1.3946,-1.4258,-1.4299,-1.4299,-1.4299,-1.4299,0.0,0.0,0.0,0.0,0.0,0.0,0.0,0.0,-1.4299,-1.4299,-1.4299,-1.4299,-1.4299,-1.4299,-1.4299,-1.4299,-1.4299,-1.4299,-1.4299,-1.4299,-1.4299,-1.4299,-1.4299,-1.4299,-1.4299,-1.4299,-1.4299,-1.4299,-1.4326,-1.457,-1.4699,-1.4767,-1.5025,-1.5147,-1.5181,0.0,0.0,0.0,0.0,0.0,0.0,0.0,0.0,0.0,0.0,0.0,0.0,0.0,0.0,0.0,0.0,0.0,0.0,-2.1109,-2.1109,-2.1109,-2.1109,-2.1109,-2.1109,-2.1109,-2.1109,-2.1109,-2.1109,-2.1109,-2.1109,-2.1109,-2.1109,-2.1109,-2.1109,-2.1109,-2.1109,-2.1109,-2.1109,-2.0068,-1.8372,-1.656,-1.4819,-1.3128,0.0,0.0,0.0,0.0,0.0,0.0,0.0,-1.1491,-1.1619,-1.1619,-1.1619,-1.1619,-1.1619,-1.183,-1.2135,-1.2135,-1.2277,-1.2501,-1.2501,-1.2501,-1.2583,-1.2888,-1.2963,-1.3044,-1.3342,-1.3403,-1.3403,-1.3403,-1.3403,-1.3498,-1.379,-1.3838,-1.3946,-1.4251,-1.4299,-1.4299,-1.4299,-1.4299,0.0,0.0,0.0,0.0,0.0,0.0,0.0,0.0,-1.4299,-1.4299,-1.4299,-1.4299,-1.4299,-1.4299,-1.4299,-1.4299,-1.4299,-1.4299,-1.4299,-1.4299,-1.4299,-1.4299,-1.4299,-1.4299,-1.4299,-1.4299,-1.4299,-1.4299,-1.4312,-1.4455,-1.4604,-1.476,-1.4916,-1.5059,-1.5181,0.0,0.0,0.0,0.0,0.0,0.0,0.0,0.0,0.0,0.0,0.0,0.0,0.0,0.0,0.0,0.0,0.0,0.0,-2.1109,-2.1109,-2.1109,-2.1109,-2.1109,-2.1109,-2.1109,-2.1109,-2.1109,-2.1109,-2.1109,-2.1109,-2.1109,-2.1109,-2.1109,-2.1109,-2.1109,-2.1109,-2.1046,-1.9801,-1.896,-1.8244,-1.5265,-1.3774,-1.3128,0.0,0.0,0.0,0.0,0.0,0.0,0.0,0.0,0.0,-1.1586,-1.1619,-1.1619,-1.1619,-1.183,-1.2135,-1.2135,-1.2277,-1.2501,-1.2501,-1.2501,-1.2583,-1.2888,-1.2963,-1.3044,-1.3342,-1.3403,-1.3403,-1.3403,-1.3403,-1.3464,-1.3661,-1.3777,-1.3912,-1.4109,-1.4231,-1.4299,-1.4299,-1.4299,0.0,0.0,0.0,0.0,0.0,0.0,0.0,0.0,-1.4299,-1.4299,-1.4299,-1.4299,-1.4299,-1.4299,-1.4299,-1.4299,-1.4299,-1.4299,-1.4299,-1.4299,-1.4299,-1.4299,-1.4299,-1.4299,-1.4299,-1.4299,-1.4299,-1.4299,-1.4312,-1.4455,-1.4604,-1.476,-1.4916,-1.5059,-1.5181,0.0,0.0,0.0,0.0,0.0,0.0,0.0,0.0,0.0,0.0,-2.7013,-2.5375,0.0,0.0,0.0,0.0,0.0,0.0,0.0,-2.1109,-2.1109,-2.1109,-2.1109,-2.1109,-2.1109,-2.1109,-2.1109,-2.1109,-2.1109,-2.1109,-2.1109,-2.1109,-2.1109,-2.1109,-2.1109,-2.1109,-2.1046,-2.0005,-1.9546,-1.9215,-1.5719,-1.4362,-1.4101,0.0,0.0,0.0,0.0,0.0,0.0,0.0,0.0,0.0,-1.1572,-1.1619,-1.1619,-1.1619,-1.183,-1.2135,-1.2135,-1.2277,-1.2501,-1.2501,-1.2501,-1.2583,-1.2888,-1.3051,-1.3186,-1.3363,-1.3403,-1.3403,-1.3403,-1.3403,0.0,-1.3607,-1.3749,-1.3892,-1.4048,-1.4204,-1.4299,-1.4299,0.0,0.0,0.0,0.0,0.0,0.0,0.0,0.0,0.0,-1.4299,-1.4299,-1.4299,-1.4299,-1.4299,-1.4299,-1.4299,-1.4299,-1.4299,-1.4299,-1.4299,-1.4299,-1.4299,-1.4299,-1.4299,-1.4299,-1.4299,-1.4299,-1.4299,-1.4299,-1.4306,-1.4394,-1.4557,-1.4753,-1.4841,-1.5004,-1.5181,0.0,0.0,0.0,0.0,0.0,0.0,0.0,0.0,0.0,0.0,-2.7013,-2.5375,0.0,0.0,0.0,0.0,0.0,0.0,0.0,0.0,-2.1109,-2.1109,-2.1109,-2.1109,-2.1109,-2.1109,-2.1109,-2.1109,-2.1109,-2.1109,-2.1109,-2.1109,-2.1109,-2.1109,-2.1109,-2.1109,-2.1109,-2.1109,-2.1109,-2.0779,-1.7269,-1.5913,-1.5524,-1.2025,0.0,0.0,0.0,0.0,0.0,0.0,0.0,0.0,-1.1552,-1.1606,-1.1619,-1.1619,-1.1816,-1.2047,-1.2135,-1.2271,-1.2488,-1.2501,-1.2522,-1.2617,-1.2895,-1.3193,-1.3403,-1.3403,-1.3403,-1.3403,-1.3403,-1.3403,-1.3444,-1.3587,-1.3736,-1.3892,-1.4034,-1.4197,-1.4299,-1.4299,0.0,0.0,0.0,0.0,0.0,0.0,0.0,0.0,0.0,-1.4299,-1.4299,-1.4299,-1.4299,-1.4299,-1.4299,-1.4299,-1.4299,-1.4299,-1.4299,-1.4299,-1.4299,-1.4299,-1.4299,-1.4299,-1.4299,-1.4299,-1.4299,-1.4299,-1.4299,-1.4299,-1.4299,-1.4482,-1.474,-1.474,-1.493,-1.5181,0.0,0.0,0.0,0.0,0.0,0.0,0.0,0.0,0.0,0.0,0.0,0.0,0.0,0.0,0.0,0.0,0.0,0.0,0.0,0.0,-2.1109,-2.1109,-2.1109,-2.1109,-2.1109,-2.1109,-2.1109,-2.1109,-2.1109,-2.1109,-2.1109,-2.1109,-2.1109,-2.1109,-2.1109,-2.1109,-2.1109,-2.1109,-2.1109,-2.0779,-1.7269,-1.5913,-1.5524,-1.2025,-1.0717,0.0,0.0,0.0,0.0,0.0,0.0,0.0,-1.1389,-1.1525,-1.1619,-1.1619,-1.1742,-1.1904,-1.2026,-1.2196,-1.2366,-1.2474,-1.2684,-1.2881,-1.2942,-1.3193,-1.3403,-1.3403,-1.3403,-1.3403,-1.3403,-1.3403,-1.341,-1.3444,-1.3668,-1.3851,-1.3885,-1.4129,-1.4299,0.0,0.0,0.0,0.0,0.0,0.0,0.0,0.0,0.0,-1.4299,-1.4299,-1.4299,-1.4299,-1.4299,-1.4299,-1.4299,-1.4299,-1.4299,0.0,-1.4299,-1.4299,-1.4299,-1.4299,-1.4299,-1.4299,-1.4299,-1.4299,-1.4299,-1.4299,-1.4299,-1.4299,-1.4299,-1.4482,-1.474,-1.474,-1.493,-1.5181,0.0,0.0,0.0,0.0,0.0,0.0,0.0,0.0,0.0,0.0,0.0,0.0,0.0,0.0,0.0,0.0,0.0,0.0,0.0,0.0,0.0,-2.1109,-2.1109,-2.1109,-2.1109,-2.1109,-2.1109,-2.1109,-2.1109,-2.1109,-2.1109,-2.1109,-2.1109,-2.1109,-2.1109,-2.1109,-2.1109,-2.1109,-2.1109,-2.0843,-1.818,-1.6625,-1.5589,-1.2931,-1.1439,-1.0717,-1.0717,0.0,0.0,0.0,0.0,0.0,0.0,0.0,-1.1619,-1.1619,-1.1721,-1.1864,-1.202,-1.2176,-1.2325,-1.2467,-1.2678,-1.2868,-1.2942,-1.3132,-1.3315,-1.3383,-1.3403,-1.3403,-1.3403,-1.3403,-1.3403,-1.3403,-1.3593,-1.3763,-1.3831,-1.4041,0.0,0.0,0.0,0.0,0.0,0.0,0.0,0.0,0.0,-1.4299,-1.4299,-1.4299,-1.4299,-1.4299,-1.4299,-1.4299,-1.4299,-1.4299,-1.4299,-1.4299,-1.4299,-1.4299,-1.4299,-1.4299,-1.4299,-1.4299,-1.4299,-1.4299,-1.4299,-1.4299,-1.4299,-1.4299,-1.4299,-1.4482,-1.474,-1.474,-1.493,-1.5181,0.0,0.0,0.0,0.0,0.0,0.0,0.0,0.0,0.0,0.0,0.0,0.0,0.0,0.0,0.0,0.0,0.0,0.0,0.0,0.0,0.0,0.0,-2.1109,-2.1109,-2.1109,-2.1109,0.0,-2.1109,-2.1109,-2.1109,-2.1109,-2.1109,-2.1109,-2.1109,-2.1109,-2.1109,-2.1109,-2.1109,-2.1109,-2.0982,-1.9215,-1.7667,-1.6108,-1.4101,-1.2413,-1.1108,-1.0784,-1.0717,-1.0738,-1.0799,0.0,0.0,0.0,0.0,-1.1586,-1.1613,-1.1701,-1.183,-1.1979,-1.2155,-1.2325,-1.2467,-1.2617,-1.2773,-1.2929,-1.3071,-1.3214,-1.337,-1.3403,-1.3403,-1.3403,-1.3403,-1.3403,-1.3403,-1.3532,-1.3682,-1.3824,-1.3973,0.0,0.0,0.0,0.0,0.0,0.0,0.0,0.0,0.0,-1.4299,-1.4299,-1.4299,-1.4299,-1.4299,-1.4299,-1.4299,-1.4299,-1.4299,-1.4299,-1.4299,-1.4299,-1.4299,-1.4299,-1.4299,-1.4299,-1.4299,-1.4299,-1.4299,-1.4299,-1.4299,-1.4299,-1.4299,-1.4299,-1.4482,-1.474,-1.474,-1.493,-1.5181,0.0,0.0,0.0,0.0,0.0,0.0,0.0,0.0,0.0,0.0,-2.6893,-2.5314,0.0,0.0,0.0,0.0,0.0,0.0,0.0,0.0,0.0,-2.1109,-2.1109,-2.1109,-2.1109,-2.1109,0.0,-2.1109,-2.1109,-2.1109,-2.1109,-2.1109,-2.1109,-2.1109,-2.1109,-2.1109,-2.1109,-2.1109,-2.1109,-2.0982,-1.9215,-1.8372,-1.7795,-1.4558,-1.3128,-1.2742,-1.124,-1.0717,-1.0724,-1.0744,-1.0853,0.0,0.0,0.0,-1.145,-1.1579,-1.1633,-1.1681,-1.1823,-1.2074,-1.2325,-1.2467,-1.2617,-1.2773,-1.2929,-1.3071,-1.3214,-1.337,-1.3403,-1.3403,-1.3403,-1.3403,-1.3403,-1.3403,-1.3532,-1.3682,-1.3824,-1.3973,0.0,0.0,0.0,0.0,0.0,0.0,0.0,0.0,-1.4299,-1.4299,-1.4299,-1.4299,-1.4299,-1.4299,-1.4299,-1.4299,-1.4299,-1.4299,-1.4299,-1.4299,-1.4299,-1.4299,-1.4299,-1.4299,-1.4299,-1.4299,-1.4299,-1.4299,-1.4299,-1.4299,-1.4299,-1.4299,-1.4299,-1.4482,-1.474,-1.474,-1.493,-1.5181,0.0,0.0,0.0,0.0,0.0,0.0,0.0,0.0,0.0,0.0,0.0,-2.5375,0.0,0.0,0.0,-2.1109,0.0,0.0,0.0,0.0,0.0,-2.1109,-2.1109,-2.1109,-2.1109,-2.1109,-2.1109,-2.1109,-2.1109,-2.1109,-2.1109,-2.1109,-2.1109,-2.1109,-2.1109,-2.1109,-2.1109,-2.1109,-2.1109,-2.1046,-2.0259,-1.9355,-1.832,-1.6818,-1.5005,-1.3193,-1.2413,-1.1505,-1.0717,-1.0717,-1.0819,-1.0975,-1.1118,0.0,0.0,0.0,-1.1619,-1.1667,-1.1898,-1.2121,-1.2325,-1.2467,-1.2556,-1.2644,-1.2793,-1.2949,-1.3098,-1.3241,-1.3342,-1.3403,-1.3403,-1.3403,-1.3403,-1.3403,-1.3458,-1.358,-1.381,-1.3899,0.0,0.0,0.0,0.0,0.0,0.0,0.0,0.0,-1.4299,-1.4299,-1.4299,-1.4299,-1.4299,-1.4299,-1.4299,-1.4299,-1.4299,-1.4299,-1.4299,-1.4299,-1.4299,-1.4299,-1.4299,-1.4299,-1.4299,-1.4299,-1.4299,-1.4299,-1.4299,-1.4299,-1.4299,-1.4299,-1.4299,-1.4428,-1.4624,-1.4706,-1.4875,-1.5072,0.0,0.0,0.0,0.0,0.0,0.0,0.0,0.0,0.0,0.0,0.0,0.0,0.0,0.0,0.0,0.0,-2.1109,0.0,0.0,0.0,0.0,-2.1109,-2.1109,-2.1109,-2.1109,-2.1109,-2.1109,-2.1109,-2.1109,-2.1109,-2.1109,-2.1109,-2.1109,-2.1109,-2.1109,-2.1109,-2.1109,-2.1109,-2.1109,-2.1109,-2.1109,-2.0322,-1.9088,-1.8704,-1.6625,-1.3905,-1.3456,-1.215,-1.0717,-1.0717,-1.0799,-1.0921,-1.1104,-1.124,0.0,0.0,0.0,-1.1674,-1.1932,-1.2115,-1.2112,-1.1785,-1.2082,-1.2387,-1.1978,-1.245,-1.3003,-1.3146,-1.3295,-1.3403,-1.3403,-1.3403,-1.3403,-1.3403,-1.3403,-1.3492,-1.3749,-1.3817,0.0,0.0,0.0,0.0,0.0,0.0,0.0,0.0,-1.4299,-1.4299,-1.4299,-1.4299,-1.4299,-1.4299,-1.4299,-1.4299,-1.4299,-1.4299,-1.4299,-1.4299,-1.4299,-1.4299,-1.4299,-1.4299,-1.4299,-1.4299,-1.4299,-1.4299,-1.4299,-1.4299,-1.4299,-1.4299,-1.4299,-1.4387,-1.4529,-1.4685,-1.4835,-1.4991,0.0,0.0,0.0,0.0,0.0,0.0,0.0,0.0,0.0,0.0,0.0,0.0,-2.3636,-2.209,-2.1109,-2.1109,-2.1109,-2.1109,-2.1109,-2.1109,0.0,-2.1109,-2.1109,0.0,-2.1109,-2.1109,-2.1109,-2.1109,-2.1109,-2.1109,-2.1109,-2.1109,-2.1109,-2.1109,-2.1109,-2.1109,-2.1109,-2.1109,-2.1109,-2.1109,-2.1109,-2.1046,-2.0779,-1.9152,-1.7345,-1.5524,-1.3905,-1.215,-1.0717,-1.0717,-1.0724,-1.0785,-1.107,-1.1165,-1.1233,0.0,0.0,0.0,-1.1803,-1.1952,-1.1652,-0.9796,-1.0922,-1.1992,-1.0155,-1.1402,-1.3003,-1.3146,-1.3295,-1.3403,-1.3403,-1.3403,-1.3403,-1.3403,-1.3403,-1.3458,-1.3614,-1.3756,0.0,0.0,0.0,0.0,0.0,0.0,0.0,0.0,-1.4299,-1.4299,-1.4299,-1.4299,-1.4299,-1.4299,-1.4299,-1.4299,-1.4299,-1.4299,-1.4299,-1.4299,-1.4299,-1.4299,-1.4299,-1.4299,-1.4299,-1.4299,-1.4299,-1.4299,-1.4299,-1.4299,-1.4299,-1.4299,-1.4299,-1.4387,-1.4529,-1.4685,-1.4835,-1.4991,0.0,0.0,0.0,0.0,0.0,0.0,0.0,0.0,0.0,0.0,0.0,0.0,0.0,-2.209,-2.1109,-2.1109,-2.1109,-2.1109,-2.1109,-2.1109,0.0,-2.1109,-2.1109,-2.1109,-2.1109,-2.1109,-2.1109,-2.1109,-2.1109,-2.1109,-2.1109,-2.1109,-2.1109,-2.1109,-2.1109,-2.1109,-2.1109,-2.1109,-2.1109,-2.1109,-2.1109,-2.1109,-2.1046,-2.0399,-1.9088,-1.7345,-1.5589,-1.384,-1.2215,0.0,0.0,-1.09,-1.1097,-1.1226,-1.1348,-1.1558,-1.1619,-1.1653,-1.1789,-1.1945,-1.1945,-1.1327,-1.1849,-1.236,-1.1629,-1.2148,-1.2854,-1.301,-1.3152,-1.3288,-1.3383,-1.3403,-1.3403,-1.3403,-1.3403,-1.3451,-1.3607,-1.3749,0.0,0.0,0.0,0.0,0.0,0.0,0.0,0.0,0.0,-1.4299,-1.4299,-1.4299,-1.4299,-1.4299,-1.4299,-1.4299,-1.4299,-1.4299,-1.4299,-1.4299,-1.4299,-1.4299,-1.4299,-1.4299,-1.4299,-1.4299,-1.4299,-1.4299,-1.4299,-1.4299,-1.4299,-1.4299,-1.4299,-1.4333,-1.4407,-1.4652,-1.4774,-1.4855,0.0,0.0,0.0,0.0,0.0,0.0,0.0,0.0,0.0,-2.4394,0.0,0.0,0.0,0.0,-2.1109,-2.1109,-2.1109,-2.1109,-2.1109,-2.1109,-2.1109,-2.1109,-2.1109,-2.1109,-2.1109,-2.1109,-2.1109,-2.1109,-2.1109,-2.1109,-2.1109,-2.1109,-2.1109,-2.1109,-2.1109,-2.1109,-2.1109,-2.1109,-2.1109,-2.1109,-2.1109,-2.1109,-2.1109,-2.1109,-2.0055,-1.8448,-1.6611,0.0,0.0,0.0,0.0,-1.105,-1.1192,-1.1341,-1.1491,-1.1592,-1.1619,-1.164,-1.1735,-1.187,-1.1871,-1.1334,-1.1784,-1.2286,-1.1631,-1.2063,-1.2759,-1.2861,-1.3037,-1.3207,-1.3308,-1.3363,-1.3403,-1.3403,-1.3403,-1.3437,-1.3539,0.0,0.0,0.0,0.0,0.0,0.0,0.0,0.0,0.0,0.0,0.0,-1.4299,-1.4299,-1.4299,-1.4299,-1.4299,-1.4299,-1.4299,-1.4299,-1.4299,-1.4299,-1.4299,-1.4299,-1.4299,-1.4299,-1.4299,-1.4299,-1.4299,-1.4299,-1.4299,-1.4299,-1.4299,-1.4299,-1.4299,-1.4299,-1.4333,-1.4631,-1.474,-1.478,0.0,0.0,0.0,0.0,0.0,0.0,0.0,0.0,-2.2952,-2.1299,0.0,0.0,0.0,0.0,0.0,-2.1109,-2.1109,-2.1109,-2.1109,-2.1109,-2.1109,-2.1109,0.0,0.0,-2.1109,-2.1109,-2.1109,-2.1109,-2.1109,-2.1109,-2.1109,-2.1109,-2.1109,-2.1109,-2.1109,-2.1109,-2.1109,-2.1109,-2.1109,-2.1109,-2.1109,-2.1109,-2.1109,-2.1122,-2.0246,-1.8834,-1.6918,-1.527,0.0,-1.1909,0.0,0.0,-1.1348,-1.1497,-1.1619,-1.1619,-1.1619,-1.1619,0.0,0.0,0.0,-0.9462,-1.0649,-1.1784,-0.9893,-1.1113,-1.2725,-1.2725,-1.2963,-1.3166,-1.3173,-1.3295,-1.3403,-1.3403,-1.3403,-1.3403,-1.3403,0.0,0.0,0.0,0.0,0.0,0.0,0.0,0.0,0.0,-1.4299,-1.4299,-1.4299,-1.4299,-1.4299,-1.4299,-1.4299,-1.4299,-1.4299,-1.4299,-1.4299,-1.4299,-1.4299,-1.4299,-1.4299,-1.4299,-1.4299,-1.4299,-1.4299,-1.4299,-1.4299,-1.4299,-1.4299,-1.4299,-1.4299,-1.4299,-1.4333,-1.4631,-1.474,-1.478,0.0,0.0,0.0,0.0,0.0,0.0,-2.2027,-2.179,-2.1601,0.0,0.0,0.0,-2.1109,-2.1109,-2.1109,-2.1109,-2.1109,-2.1109,-2.1109,-2.1109,-2.1109,-2.1109,-2.1109,-2.1109,-2.1109,-2.1109,-2.1109,-2.1109,-2.1109,-2.1109,-2.1109,-2.1109,-2.1109,-2.1109,-2.1109,-2.1109,-2.1109,-2.1109,-2.1109,-2.1109,-2.1109,-2.1109,-2.1136,-2.1349,-2.1212,0.0,0.0,-1.7336,-1.5643,0.0,-1.2405,-1.1355,0.0,-1.1586,-1.1619,-1.1619,-1.1619,-1.1619,-1.1619,0.0,0.0,0.0,0.0,0.0,-1.1766,-1.2141,-1.2596,-1.2705,-1.2881,-1.3051,-1.3152,-1.3295,-1.3403,-1.3403,-1.3403,-1.3403,-1.3403,0.0,0.0,0.0,0.0,0.0,0.0,0.0,0.0,0.0,-1.4299,-1.4299,-1.4299,-1.4299,-1.4299,-1.4299,-1.4299,-1.4299,-1.4299,-1.4299,-1.4299,-1.4299,-1.4299,-1.4299,-1.4299,-1.4299,-1.4299,-1.4299,-1.4299,-1.4299,-1.4299,-1.4299,-1.4299,-1.4299,-1.4299,-1.4299,-1.4333,-1.4631,-1.474,-1.478,0.0,0.0,0.0,0.0,0.0,0.0,-2.1235,-2.1109,-2.1109,0.0,0.0,0.0,-2.1109,-2.1109,-2.1109,-2.1109,-2.1109,-2.1109,-2.1109,-2.1109,-2.1109,-2.1109,-2.1109,-2.1109,-2.1109,-2.1109,-2.1109,-2.1109,-2.1109,-2.1109,-2.1109,-2.1109,-2.1109,-2.1109,-2.1109,-2.1109,-2.1109,-2.1109,-2.1109,-2.1109,-2.1109,-2.1189,-2.1309,-2.1547,-2.1775,0.0,0.0,0.0,-1.7686,-1.5072,-1.2935,0.0,0.0,0.0,0.0,-1.1619,-1.1619,0.0,0.0,0.0,-1.1775,-1.1932,0.0,0.0,-1.2379,-1.2461,-1.2528,-1.2617,-1.2759,-1.2908,-1.3057,-1.3207,-1.3329,-1.339,-1.3403,-1.3403,-1.3403,0.0,0.0,0.0,0.0,0.0,0.0,-1.4299,-1.4299,-1.4299,-1.4299,-1.4299,-1.4299,-1.4299,-1.4299,-1.4299,-1.4299,-1.4299,-1.4299,-1.4299,-1.4299,-1.4299,-1.4299,-1.4299,-1.4299,-1.4299,-1.4299,-1.4299,-1.4299,-1.4299,-1.4299,-1.4299,-1.4299,-1.4299,-1.4299,-1.4299,-1.4333,-1.4631,-1.474,-1.478,0.0,0.0,0.0,-2.1109,-2.1109,-2.1109,-2.1109,-2.1109,-2.1109,0.0,-2.1109,-2.1109,-2.1109,-2.1109,-2.1109,-2.1109,-2.1109,-2.1109,-2.1109,-2.1109,-2.1109,-2.1109,-2.1109,-2.1109,-2.1109,-2.1109,-2.1109,-2.1109,-2.1109,-2.1109,-2.1109,-2.1109,-2.1109,-2.1109,-2.1109,-2.1109,-2.1109,-2.1109,-2.1122,-2.1162,-2.1162,-2.1309,-2.1628,0.0,-2.1964,-2.2217,-2.0527,-2.0,-1.9565,-1.591,-1.3595,0.0,0.0,0.0,0.0,0.0,-1.1619,0.0,0.0,0.0,0.0,0.0,-1.1945,0.0,-1.2257,-1.24,-1.2501,-1.2501,-1.2623,-1.2773,-1.2908,-1.3064,-1.3214,-1.3356,-1.339,-1.3403,-1.3403,-1.3519,0.0,0.0,0.0,0.0,-1.4285,-1.4299,-1.4299,-1.4299,-1.4299,-1.4299,-1.4299,-1.4299,-1.4299,-1.4299,-1.4299,-1.4299,-1.4299,-1.4299,-1.4299,-1.4299,-1.4299,-1.4299,-1.4299,-1.4299,-1.4299,-1.4299,-1.4299,-1.4299,-1.4299,-1.4299,-1.4299,-1.4299,-1.4299,-1.4299,-1.4333,-1.4631,-1.474,-1.478,0.0,0.0,0.0,-2.1109,-2.1109,-2.1109,-2.1109,-2.1109,-2.1109,-2.1109,-2.1109,-2.1109,-2.1109,-2.1109,-2.1109,-2.1109,-2.1109,-2.1109,-2.1109,-2.1109,-2.1109,-2.1109,-2.1109,-2.1109,-2.1109,-2.1109,-2.1109,-2.1109,-2.1109,-2.1109,-2.1109,-2.1109,-2.1109,-2.1109,-2.1109,-2.1109,-2.1109,-2.1109,-2.1243,-2.1534,-2.1534,-2.1561,-2.1668,-2.2071,-2.2325,-2.2378,-2.2277,-2.134,-1.9773,-1.7458,-1.6413,-1.5849,0.0,0.0,0.0,-1.2043,0.0,0.0,0.0,0.0,0.0,0.0,0.0,0.0,-1.2257,-1.24,-1.2501,-1.2501,-1.2623,-1.2739,-1.2766,-1.299,-1.3186,-1.3214,-1.3322,-1.3403,-1.3403,-1.3424,0.0,0.0,0.0,0.0,-1.4272,-1.4299,-1.4299,-1.4299,-1.4299,-1.4299,-1.4299,-1.4299,-1.4299,-1.4299,-1.4299,-1.4299,-1.4299,-1.4299,-1.4299,-1.4299,-1.4299,-1.4299,-1.4299,-1.4299,-1.4299,-1.4299,-1.4299,-1.4299,-1.4299,-1.4299,-1.4299,-1.4299,-1.4299,-1.4299,-1.4333,-1.4631,-1.474,-1.478,0.0,-2.1109,-2.1109,0.0,0.0,-2.1109,-2.1109,-2.1109,-2.1109,-2.1109,-2.1109,-2.1109,-2.1109,-2.1109,-2.1109,-2.1109,-2.1109,0.0,0.0,0.0,-2.1109,-2.1109,-2.1109,-2.1109,-2.1109,-2.1109,-2.1109,-2.1109,-2.1109,-2.1109,-2.1109,-2.1109,-2.1109,-2.1109,-2.1109,-2.1109,-2.1122,-2.1269,-2.148,-2.1614,-2.1614,0.0,-2.2017,-2.2311,-2.2512,-2.2659,-2.2806,-2.1665,-1.9912,-1.9008,-1.8019,0.0,0.0,-1.5132,-1.4219,0.0,-1.2323,-1.1619,0.0,0.0,0.0,-1.1708,0.0,0.0,0.0,-1.2345,-1.2501,-1.2501,-1.2562,-1.2637,-1.2718,-1.2915,-1.3091,-1.3159,-1.3302,-1.3403,-1.3403,-1.3403,0.0,0.0,0.0,0.0,-1.4163,-1.4251,-1.4299,-1.4299,-1.4299,-1.4299,-1.4299,-1.4299,-1.4299,-1.4299,-1.4299,-1.4299,-1.4299,-1.4299,-1.4299,-1.4299,-1.4299,-1.4299,-1.4299,-1.4299,-1.4299,-1.4299,-1.4299,-1.4299,-1.4299,-1.4299,-1.4299,-1.4299,-1.4299,-1.4346,-1.4434,-1.4658,-1.4787,-1.4889,-2.1109,-2.1109,-2.1109,0.0,-2.1109,0.0,0.0,0.0,-2.1109,-2.1109,-2.1109,-2.1109,-2.1109,-2.1109,-2.1109,-2.1109,-2.1109,0.0,0.0,0.0,0.0,0.0,0.0,-2.1109,-2.1109,-2.1109,-2.1109,-2.1109,-2.1109,-2.1109,-2.1109,-2.1109,-2.1109,-2.1109,-2.1109,-2.1149,-2.1203,-2.1521,-2.1681,-2.1724,0.0,-2.2004,-2.2432,-2.2485,-2.2645,-2.2928,-2.2928,-2.1953,-2.0617,-2.0617,-1.9634,-1.8229,-1.7879,-1.6474,0.0,0.0,0.0,0.0,0.0,0.0,0.0,0.0,0.0,-1.2142,0.0,0.0,0.0,-1.2501,-1.2501,-1.2542,-1.2664,0.0,0.0,0.0,0.0,0.0,0.0,-1.3363,0.0,0.0,0.0,0.0,-1.4055,-1.4211,-1.4299,-1.4299,-1.4299,-1.4299,-1.4299,-1.4299,-1.4299,-1.4299,-1.4299,-1.4299,-1.4299,-1.4299,-1.4299,-1.4299,-1.4299,-1.4299,-1.4299,-1.4299,-1.4299,-1.4299,-1.4299,-1.4299,-1.4299,-1.4299,-1.4299,-1.4299,-1.4299,-1.4387,-1.4529,-1.4685,-1.4835,-1.4991,-2.1109,-2.1109,-2.1109,0.0,0.0,0.0,0.0,0.0,-2.1109,-2.1109,-2.1109,-2.1109,-2.1109,-2.1109,-2.1109,-2.1109,-2.1109,0.0,-2.1109,0.0,0.0,0.0,0.0,0.0,-2.1109,-2.1109,-2.1109,-2.1109,-2.1109,-2.1109,-2.1109,-2.1109,-2.1109,-2.1109,-2.1109,-2.1256,-2.1574,-2.1601,-2.1844,0.0,-2.2325,-2.2365,0.0,-2.2712,-2.2901,-2.2928,-2.2928,-2.2791,-2.2585,0.0,-2.2435,-2.1941,0.0,-1.8438,-1.6545,-1.4929,0.0,0.0,0.0,0.0,0.0,0.0,-1.1938,0.0,0.0,0.0,-1.2501,-1.2501,0.0,-1.2508,0.0,0.0,0.0,0.0,0.0,0.0,-1.3051,-1.3234,0.0,0.0,0.0,0.0,0.0,-1.4211,-1.4299,-1.4299,-1.4299,-1.4299,-1.4299,-1.4299,-1.4299,-1.4299,-1.4299,-1.4299,-1.4299,-1.4299,-1.4299,-1.4299,-1.4299,-1.4299,-1.4299,-1.4299,-1.4299,-1.4299,-1.4299,-1.4299,-1.4299,-1.4299,-1.4299,-1.4299,-1.4299,-1.4387,-1.4529,-1.4685,-1.4835,-1.4991,-2.1109,-2.1109,-2.1109,-2.1109,0.0,0.0,0.0,0.0,-2.1109,-2.1109,-2.1109,-2.1109,-2.1109,-2.1109,-2.1109,-2.1109,-2.1109,-2.1109,0.0,0.0,-2.1109,0.0,0.0,0.0,0.0,0.0,0.0,-2.1109,-2.1109,-2.1109,-2.1109,-2.0068,-2.0221,-2.1299,-1.9136,-1.8942,-2.0203,-2.0364,-2.0563,0.0,0.0,0.0,0.0,-2.2887,-2.2928,-2.2928,-2.2928,-2.2928,-2.2928,0.0,-2.2928,0.0,0.0,0.0,0.0,0.0,0.0,0.0,0.0,0.0,0.0,0.0,0.0,0.0,-1.2277,0.0,-1.2501,0.0,0.0,0.0,0.0,0.0,0.0,0.0,-1.3125,0.0,0.0,0.0,-1.3424,0.0,0.0,0.0,0.0,0.0,0.0,0.0,-1.4299,-1.4299,-1.4299,-1.4299,-1.4299,-1.4299,-1.4299,-1.4299,-1.4299,-1.4299,-1.4299,-1.4299,-1.4299,-1.4299,-1.4299,-1.4299,-1.4299,-1.4299,-1.4299,-1.4299,-1.4299,-1.4299,-1.4299,-1.4299,-1.4299,-1.4441,-1.4652,-1.4719,-1.4889,-1.5099,-1.9734,-2.045,-2.1109,-2.1109,0.0,0.0,0.0,0.0,-2.1109,-2.1109,-2.1109,-2.1109,-2.1109,-2.1109,-2.1109,-2.1109,-2.1109,-2.1109,0.0,0.0,-2.1109,0.0,0.0,0.0,0.0,0.0,0.0,0.0,-1.9674,-1.9674,-1.9674,0.0,0.0,0.0,-1.7378,-1.7072,-1.8519,-1.8766,-1.8879,-1.9095,-2.1233,-2.2435,-2.2928,-2.2928,-2.2928,-2.2928,-2.2928,-2.2913,-2.2993,-2.2993,-2.3046,0.0,-2.3182,0.0,0.0,0.0,0.0,0.0,-1.4883,0.0,0.0,0.0,0.0,0.0,0.0,0.0,0.0,0.0,0.0,0.0,0.0,0.0,0.0,0.0,0.0,-1.337,0.0,-1.3349,0.0,0.0,0.0,0.0,0.0,0.0,0.0,-1.4299,-1.4299,-1.4299,-1.4299,-1.4299,-1.4299,-1.4299,-1.4299,-1.4299,-1.4299,-1.4299,-1.4299,-1.4299,-1.4299,-1.4299,-1.4299,-1.4299,-1.4299,-1.4299,-1.4299,-1.4299,-1.4299,-1.4299,-1.4299,-1.4299,-1.4299,-1.4482,-1.474,-1.474,-1.493,-1.5181,-1.6287,-1.8882,-2.1109,-2.1109,-2.1109,0.0,0.0,0.0,-2.1109,-2.1109,-2.1109,-2.1109,-2.1109,-2.1109,0.0,0.0,0.0,-2.1109,-2.1109,0.0,-2.1109,0.0,0.0,-2.0322,0.0,0.0,0.0,0.0,-1.6043,-1.6043,-1.6053,-1.6136,0.0,0.0,-1.6335,-1.6546,-1.6894,-1.6894,-1.7036,-1.7448,-1.9426,-2.1252,-2.2928,0.0,-2.2928,-2.2928,-2.2928,0.0,0.0,-2.3313,-2.35,0.0,0.0,0.0,0.0,0.0,0.0,0.0,0.0,0.0,0.0,-1.5127,0.0,0.0,0.0,0.0,-1.2501,0.0,0.0,0.0,0.0,0.0,0.0,0.0,0.0,0.0,0.0,0.0,0.0,0.0,0.0,0.0,0.0,0.0,0.0,-1.4299,-1.4299,-1.4299,-1.4299,-1.4299,-1.4299,-1.4299,-1.4299,-1.4299,-1.4299,-1.4299,-1.4299,-1.4299,-1.4299,-1.4299,-1.4299,-1.4299,-1.4299,-1.4299,-1.4299,-1.4299,-1.4299,-1.4299,-1.4299,-1.4299,-1.4299,-1.4482,-1.474,-1.474,-1.493,-1.5181,-1.6278,-1.7209,-1.7916,-1.7723,-1.7667,-1.8052,-1.9215,-1.9567,-2.0142,-2.1275,-2.1577,0.0,0.0,-2.1697,-2.1697,0.0,0.0,-2.1603,-2.1416,-2.1403,0.0,0.0,0.0,-2.0259,0.0,0.0,0.0,0.0,0.0,-1.6004,-1.6014,-1.5032,-1.5267,0.0,0.0,-1.3883,-1.5237,0.0,0.0,0.0,0.0,-1.9356,-2.1183,0.0,0.0,-2.2886,-2.31,-2.3233,0.0,-2.3554,-2.3688,-2.3768,-2.3768,-2.2885,-2.1822,-2.1994,-2.0196,0.0,0.0,0.0,-1.5068,-1.377,0.0,0.0,0.0,0.0,0.0,0.0,0.0,0.0,0.0,0.0,0.0,0.0,0.0,0.0,0.0,0.0,0.0,0.0,0.0,0.0,0.0,0.0,0.0,-1.4299,-1.4299,-1.4299,-1.4299,-1.4299,-1.4299,-1.4299,-1.4299,-1.4299,-1.4299,-1.4299,-1.4299,-1.4299,-1.4299,-1.4299,-1.4299,-1.4299,-1.4299,-1.4299,-1.4299,-1.4299,-1.4299,-1.4299,-1.4299,-1.4306,-1.4407,-1.4563,-1.474,-1.474,-1.493,-1.5181,-1.4603,-1.4585,-1.4964,-1.5886,-1.608,-1.6474,-1.7598,0.0,0.0,-2.0575,-2.1464,0.0,-2.1991,0.0,-2.1991,0.0,-2.1991,-2.1911,-2.1724,-2.1111,0.0,-2.0438,-1.9767,0.0,0.0,0.0,0.0,0.0,0.0,-1.437,-1.437,-1.3412,-1.3628,-1.4779,-1.2489,-1.2158,-1.3381,-1.3381,-1.3381,0.0,0.0,-1.7429,0.0,0.0,-2.2454,-2.3073,0.0,-2.3554,-2.3661,-2.3861,-2.3995,-2.4075,-2.4075,-2.3556,-2.3075,-2.3254,-2.1871,-2.0192,-1.9811,-1.8194,0.0,-1.5012,-1.4099,0.0,-1.2656,0.0,0.0,0.0,0.0,0.0,0.0,0.0,0.0,0.0,0.0,0.0,0.0,-1.3403,0.0,0.0,0.0,0.0,0.0,0.0,0.0,-1.4299,-1.4251,-1.4245,0.0,0.0,-1.4299,-1.4299,-1.4299,-1.4299,-1.4299,-1.4299,-1.4299,-1.4299,-1.4299,-1.4299,-1.4299,-1.4299,-1.4299,-1.4299,-1.4299,-1.4299,-1.4299,-1.4299,-1.4299,-1.4312,-1.4455,-1.4604,-1.4746,-1.4801,-1.4977,-1.5181,-1.143,-1.1402,-1.2392,-1.5632,-1.6117,-1.6165,-1.6233,0.0,-1.8965,0.0,-2.0668,-2.1753,-2.1753,-2.1753,-2.1753,-2.1753,-2.1753,-2.1753,-2.174,-2.0044,0.0,0.0,-1.7322,-1.5566,-1.3806,0.0,0.0,0.0,0.0,-1.1241,-1.1179,-1.1335,-1.1402,-1.1409,-1.1552,0.0,-1.1619,-1.1619,-1.1619,-1.1763,-1.3531,-1.5542,-1.7571,-1.9529,-2.1417,-2.3113,-2.3545,-2.3752,-2.3905,-2.3991,-2.4263,-2.4488,-2.4562,-2.3264,-2.1751,-2.1751,-2.038,-1.9252,-2.1141,-2.0155,-1.8572,-1.8497,0.0,0.0,0.0,0.0,-1.2515,0.0,0.0,0.0,0.0,0.0,0.0,0.0,0.0,0.0,0.0,0.0,0.0,0.0,0.0,0.0,0.0,0.0,-1.4143,-1.4292,-1.4163,-1.415,0.0,0.0,-1.4299,-1.4299,-1.4299,-1.4299,-1.4299,-1.4299,-1.4299,-1.4299,-1.4299,-1.4299,-1.4299,-1.4299,-1.4299,-1.4299,-1.4299,-1.4299,-1.4299,-1.4299,-1.4299,-1.4312,-1.4462,-1.4618,-1.478,-1.493,-1.5065,-1.5181,-1.1565,-1.1558,-1.183,-1.2697,-1.2688,-1.2993,0.0,0.0,0.0,0.0,-1.8009,-1.8393,-1.8393,-1.8393,-1.8393,-1.8393,-1.8393,0.0,0.0,0.0,0.0,-1.712,-1.6648,-1.5566,-1.3806,-1.3806,0.0,-1.1234,0.0,0.0,-1.1335,-1.1491,-1.1558,-1.1565,-1.1599,-1.1619,-1.1619,-1.1619,-1.1619,-1.1626,-1.2228,-1.3665,0.0,0.0,-1.7772,-1.9628,-2.1242,-2.0935,-1.99,-2.1659,-2.2299,-2.2657,-2.4105,-2.4253,-2.3796,-2.3796,-2.3487,-2.2819,-2.19,-2.0155,-1.8194,-1.6675,-1.4782,-1.3112,0.0,0.0,0.0,0.0,0.0,0.0,0.0,0.0,0.0,0.0,0.0,0.0,0.0,0.0,0.0,-1.3403,0.0,0.0,0.0,0.0,-1.4258,-1.4299,-1.4265,0.0,0.0,0.0,0.0,-1.4299,-1.4299,-1.4299,-1.4299,-1.4299,-1.4299,-1.4299,-1.4299,-1.4299,-1.4299,-1.4299,-1.4299,-1.4299,-1.4299,-1.4299,-1.4299,-1.4299,-1.4299,-1.4326,-1.4584,-1.4841,-1.5072,-1.5113,-1.5153,-1.5181,-1.1619,-1.1619,-1.1619,-1.1619,0.0,0.0,-1.2672,-1.3652,0.0,-1.5593,-1.6607,0.0,-1.7178,-1.7178,-1.7178,-1.7178,-1.7178,0.0,-1.6996,0.0,0.0,-1.5496,-1.4735,-1.385,-1.2882,-1.2812,0.0,-1.1362,0.0,-1.1491,-1.1491,-1.1579,-1.1619,-1.1619,-1.1619,-1.1619,-1.1619,-1.1619,-1.1653,-1.1714,-1.1796,0.0,0.0,-1.4886,-1.5462,-1.5908,-1.7931,-1.853,-1.855,-1.9811,-2.0316,-2.0466,-2.1601,-2.1975,-2.2124,-2.3042,-2.3264,-2.3264,-2.2967,-2.0767,-1.8345,-1.7132,-1.4692,-1.2603,-1.2603,-1.2718,-1.2834,0.0,0.0,0.0,0.0,0.0,0.0,0.0,0.0,0.0,0.0,0.0,0.0,0.0,-1.3702,0.0,0.0,0.0,0.0,0.0,0.0,0.0,0.0,0.0,0.0,-1.4299,-1.4299,-1.4299,-1.4299,-1.4299,-1.4299,-1.4299,-1.4299,-1.4299,-1.4299,-1.4299,-1.4299,-1.4299,-1.4299,-1.4299,-1.4299,-1.4299,-1.434,-1.4421,-1.4726,-1.4984,-1.5181,-1.5181,-1.5181,-1.5181,-1.1619,-1.1619,-1.1619,-1.1619,0.0,0.0,0.0,-1.2952,0.0,-1.4006,0.0,-1.6484,-1.6484,-1.6484,-1.6484,-1.6484,0.0,-1.6484,-1.6484,-1.4929,-1.4006,-1.4006,-1.2466,-1.1619,-1.1619,-1.1619,-1.1619,0.0,0.0,-1.1619,-1.1619,-1.1619,-1.1619,-1.1619,-1.1619,0.0,0.0,-1.1647,-1.1728,-1.1864,-1.1884,-1.2054,-1.2512,-1.4239,-1.3893,-1.2733,-1.4475,-1.6303,-1.7815,-1.8118,-1.8194,-1.827,-1.8497,-1.8572,-1.895,-2.0692,-2.1216,-2.1601,-2.3339,-2.1066,-1.8194,-1.8234,-1.5477,-1.2732,-1.2752,-1.2881,-1.307,-1.307,-1.3105,-1.32,0.0,0.0,0.0,0.0,0.0,0.0,0.0,0.0,0.0,0.0,0.0,0.0,0.0,0.0,0.0,0.0,0.0,0.0,0.0,0.0,0.0,-1.4299,-1.4299,-1.4299,-1.4299,0.0,-1.4299,-1.4299,-1.4299,-1.4299,-1.4299,-1.4299,-1.4299,-1.4299,-1.4299,-1.4299,-1.4299,-1.4299,-1.4394,-1.457,-1.4855,-1.5059,-1.5181,-1.5181,-1.5181,-1.5181,-1.1619,-1.1619,-1.1619,-1.1619,0.0,-1.1619,-1.1619,-1.19,-1.2115,-1.2115,-1.2395,-1.261,-1.261,-1.261,-1.261,-1.261,-1.261,0.0,0.0,0.0,0.0,-1.2115,-1.1763,-1.1619,-1.1619,-1.1619,-1.1619,0.0,-1.1619,-1.1619,-1.1619,-1.1619,-1.1619,-1.1619,-1.1619,0.0,-1.1796,-1.1796,0.0,-1.2033,-1.2162,-1.2244,-1.2381,-1.2797,-1.2783,-1.2579,-1.2881,-1.3259,-1.3791,-1.5463,-1.6066,-1.6371,-1.8042,-1.8572,-1.8648,-1.9025,-1.9101,-1.9176,-1.9553,-1.7891,-1.6109,-1.6276,-1.4493,-1.2766,-1.2895,-1.303,-1.3132,-1.3132,-1.3254,-1.3363,-1.3363,0.0,0.0,0.0,0.0,0.0,0.0,0.0,0.0,0.0,0.0,-1.4041,0.0,0.0,0.0,0.0,0.0,0.0,0.0,0.0,0.0,0.0,-1.4299,0.0,0.0,0.0,-1.4299,-1.4299,-1.4299,-1.4299,-1.4299,-1.4299,-1.4299,-1.4299,-1.4299,-1.4299,-1.4299,-1.4299,-1.4462,-1.4719,-1.4903,-1.5059,-1.5181,-1.5181,-1.5181,-1.5181,-1.1619,-1.1619,-1.1619,-1.1619,0.0,0.0,0.0,-1.1619,-1.1619,-1.1619,-1.1619,-1.1619,-1.1619,-1.1619,-1.1619,-1.1619,-1.1619,-1.1619,-1.1619,-1.1619,-1.1619,-1.1619,-1.1619,0.0,-1.1619,-1.1619,-1.1619,-1.1619,-1.1619,-1.1619,-1.1619,-1.1619,-1.1619,-1.1619,0.0,-1.1769,0.0,0.0,0.0,-1.2189,-1.2257,-1.2332,-1.2406,-1.2474,-1.2501,-1.2501,-1.2501,-1.2501,-1.2656,-1.3645,-1.3945,-1.4099,-1.5089,-1.5463,-1.5616,-1.6675,-1.698,-1.7208,-1.8345,-1.7139,-1.5709,-1.5802,-1.4332,-1.2976,-1.3057,-1.3186,-1.3288,-1.3288,-1.3349,-1.3403,-1.3403,-1.3403,0.0,0.0,0.0,0.0,0.0,0.0,0.0,0.0,0.0,0.0,0.0,0.0,0.0,0.0,0.0,0.0,0.0,0.0,0.0,0.0,0.0,0.0,0.0,0.0,0.0,-1.4299,-1.4299,-1.4299,-1.4299,-1.4299,-1.4299,-1.4299,-1.4299,-1.4299,-1.4312,-1.4468,-1.4611,-1.476,-1.4991,-1.512,-1.5181,-1.5181,-1.5181,-1.5181,-1.1714,-1.1714,-1.1714,0.0,-1.1714,0.0,-1.1714,-1.1714,-1.1687,-1.1626,-1.1619,-1.1619,-1.1619,-1.1619,-1.1619,-1.1619,-1.1619,-1.1619,-1.1619,-1.1619,-1.1619,-1.1619,-1.1619,-1.1619,-1.1619,-1.1619,-1.1619,0.0,-1.1619,-1.1619,0.0,-1.1647,0.0,0.0,0.0,0.0,0.0,0.0,-1.2196,-1.2338,-1.2338,-1.24,-1.2501,-1.2501,-1.2501,-1.2501,-1.2501,-1.2501,-1.2501,-1.2501,-1.2501,-1.2501,-1.2501,-1.2501,-1.2804,-1.4399,-1.4859,-1.5242,-1.6883,-1.6249,-1.515,-1.5222,-1.4186,-1.318,-1.3214,-1.3315,-1.3403,-1.3403,-1.3403,-1.3403,-1.3403,-1.3403,0.0,0.0,0.0,0.0,0.0,0.0,0.0,0.0,0.0,0.0,-1.4285,0.0,0.0,0.0,0.0,0.0,0.0,0.0,0.0,0.0,0.0,-1.4299,-1.4299,0.0,-1.4299,0.0,-1.4299,-1.4299,-1.4299,-1.4299,-1.4299,-1.4299,-1.4299,-1.4319,-1.4367,-1.4631,-1.476,-1.4814,-1.5079,-1.5181,-1.5181,-1.5181,-1.5181,-1.5181,0.0,-1.202,0.0,0.0,0.0,0.0,-1.202,-1.202,-1.1925,-1.1653,-1.1619,-1.1619,-1.1619,-1.1619,-1.1619,-1.1619,-1.1619,-1.1619,-1.1619,-1.1619,-1.1619,-1.1619,-1.1619,-1.1619,-1.1619,-1.1619,-1.1619,0.0,0.0,-1.1619,0.0,0.0,0.0,0.0,0.0,0.0,0.0,-1.2264,-1.2352,-1.2481,-1.2481,-1.2488,-1.2501,-1.2501,-1.2501,-1.2501,-1.2501,-1.2501,-1.2501,-1.2501,-1.2501,-1.2501,-1.2501,-1.2501,-1.2579,-1.2733,-1.2811,-1.2838,-1.3134,-1.3105,-1.303,-1.338,-1.3315,-1.3207,-1.3349,-1.339,-1.3403,-1.3403,-1.3403,-1.3403,-1.3403,-1.3403,-1.3403,0.0,0.0,0.0,0.0,0.0,0.0,0.0,0.0,0.0,0.0,-1.4177,0.0,0.0,-1.4299,0.0,0.0,0.0,0.0,-1.4299,0.0,-1.4299,-1.4299,-1.4299,-1.4299,-1.4299,-1.4299,-1.4299,-1.4299,-1.4299,-1.4299,-1.4299,-1.4299,-1.4373,-1.4502,-1.4672,-1.4821,-1.4964,-1.512,-1.5181,-1.5181,-1.5181,-1.5181,-1.5181,0.0,0.0,0.0,0.0,0.0,0.0,0.0,-1.2135,-1.202,-1.1898,-1.1884,-1.1884,-1.1884,-1.1884,-1.185,-1.1755,-1.1748,-1.1708,-1.1626,-1.1701,-1.1748,-1.1748,-1.1837,-1.1884,-1.1884,-1.1884,-1.1884,0.0,0.0,0.0,0.0,0.0,0.0,0.0,0.0,-1.223,-1.2298,-1.2379,-1.2447,-1.2501,-1.2501,-1.2501,-1.2501,-1.2501,-1.2501,-1.2501,-1.2501,-1.2501,-1.2501,-1.2501,-1.2501,-1.2501,-1.2501,-1.2501,-1.2522,-1.261,-1.2637,-1.2671,-1.2827,-1.2929,-1.3024,-1.3146,-1.3241,-1.3322,-1.339,-1.3403,-1.3403,-1.3403,-1.3403,-1.3403,-1.3403,-1.3403,-1.3431,0.0,0.0,0.0,0.0,0.0,0.0,0.0,0.0,0.0,0.0,-1.4245,-1.4231,0.0,0.0,0.0,0.0,0.0,0.0,-1.4299,0.0,-1.4299,-1.4299,-1.4299,-1.4299,-1.4299,-1.4299,-1.4299,-1.4299,-1.4299,-1.4299,-1.4299,-1.4299,-1.438,-1.4523,-1.4679,-1.4828,-1.4984,-1.5126,-1.5181,-1.5181,-1.5181,-1.5181,-1.5181,-1.2189,0.0,-1.2189,0.0,-1.2189,-1.2189,-1.2189,-1.2189,-1.2189,-1.2189,-1.2189,-1.2155,-1.2149,-1.2135,-1.202,-1.1911,-1.1898,-1.1857,-1.1755,-1.1843,-1.1898,-1.1898,-1.2006,0.0,-1.2135,-1.2135,-1.2135,-1.2135,-1.2135,0.0,0.0,0.0,0.0,0.0,-1.2305,-1.2352,-1.2359,-1.2461,-1.2501,-1.2501,-1.2501,-1.2501,-1.2501,-1.2501,-1.2501,-1.2501,-1.2501,-1.2501,-1.2508,-1.2556,-1.2569,-1.2562,-1.2515,-1.2535,-1.2589,-1.2698,-1.2759,-1.2834,-1.2983,-1.3098,-1.3186,-1.3227,-1.3322,-1.3403,-1.3403,-1.3403,-1.3403,-1.3403,-1.3403,-1.3403,-1.3403,-1.3437,-1.3505,-1.3614,0.0,0.0,0.0,0.0,0.0,0.0,-1.4258,-1.4251,-1.4299,-1.4258,-1.4251,0.0,0.0,0.0,0.0,0.0,0.0,0.0,0.0,0.0,0.0,-1.4299,-1.4299,-1.4299,-1.4299,-1.4299,-1.4299,-1.4299,-1.4299,-1.4299,-1.4299,-1.4407,-1.4584,-1.4699,-1.4855,-1.5045,-1.5147,-1.5181,-1.5181,-1.5181,-1.5181,-1.5181,-1.2494,-1.2494,-1.2494,-1.2494,-1.2494,-1.2494,-1.2494,-1.2494,-1.2494,-1.2494,-1.2494,-1.2386,-1.2094,-1.2135,-1.2135,-1.2135,-1.2135,-1.2135,-1.2054,-1.2135,-1.2135,0.0,0.0,-1.2135,-1.2135,-1.2135,-1.2135,-1.2135,0.0,0.0,-1.2067,0.0,-1.2366,-1.2494,-1.2501,-1.2501,-1.2501,-1.2501,-1.2501,-1.2501,-1.2501,-1.2501,-1.2501,-1.2501,-1.2501,-1.2501,-1.2501,-1.2501,-1.2522,-1.2678,-1.2725,-1.2698,-1.2549,-1.2603,-1.2725,-1.2732,-1.284,-1.307,-1.3132,-1.3173,-1.3207,-1.3363,-1.3397,-1.3403,-1.3403,-1.3403,-1.3403,-1.3403,-1.3403,-1.3403,-1.3403,-1.3526,-1.3627,-1.3627,0.0,0.0,0.0,0.0,0.0,0.0,-1.4163,-1.4136,-1.4285,-1.4163,0.0,0.0,0.0,0.0,0.0,0.0,0.0,-1.4299,-1.4299,0.0,-1.4299,-1.4299,-1.4299,-1.4299,-1.4299,-1.4299,-1.4299,-1.4299,-1.4299,-1.4299,-1.4299,-1.4468,-1.474,-1.474,-1.4916,-1.5181,-1.5181,-1.5181,-1.5181,-1.5181,-1.5181,-1.5181,-1.2501,-1.2501,-1.2501,-1.2501,-1.2501,-1.2501,-1.2501,-1.2501,-1.2501,-1.2501,-1.2501,-1.2467,-1.2372,-1.2359,-1.2325,0.0,-1.2216,-1.2176,0.0,-1.2162,-1.2216,-1.2216,-1.2311,-1.2359,-1.2359,-1.2359,-1.2359,-1.2359,0.0,0.0,0.0,-1.2413,-1.2461,-1.2501,-1.2501,-1.2501,-1.2501,-1.2501,-1.2501,-1.2501,-1.2501,-1.2501,-1.2501,-1.2501,-1.2501,-1.2501,-1.2501,-1.2569,-1.2664,-1.2712,-1.28,-1.2881,-1.2827,-1.2847,-1.2908,-1.3003,-1.3064,-1.3139,-1.3288,-1.3329,-1.3342,-1.339,-1.3403,-1.3403,-1.3403,-1.3403,-1.3403,-1.3403,-1.3403,-1.3403,-1.3403,-1.3526,-1.3661,-1.3756,-1.3939,0.0,0.0,0.0,0.0,0.0,-1.4258,-1.4245,0.0,-1.4258,0.0,0.0,0.0,0.0,0.0,0.0,0.0,0.0,-1.4299,0.0,-1.4299,-1.4299,-1.4299,-1.4299,-1.4299,-1.4299,-1.4299,-1.4299,-1.4299,-1.4306,-1.4401,-1.4557,-1.4746,-1.4855,-1.5011,-1.5181,-1.5181,-1.5181,-1.5181,-1.5181,-1.5181,-1.5181,-1.2501,-1.2501,-1.2501,-1.2501,-1.2501,-1.2501,-1.2501,-1.2501,-1.2501,-1.2501,-1.2501,-1.2501,-1.2501,-1.2501,0.0,-1.2379,-1.2372,-1.2332,-1.223,-1.2318,-1.2372,-1.2372,-1.2454,-1.2501,-1.2501,0.0,0.0,-1.2501,-1.2501,-1.2501,-1.2501,-1.2501,-1.2501,-1.2501,-1.2501,-1.2501,-1.2501,-1.2501,-1.2501,-1.2501,-1.2501,-1.2501,-1.2501,-1.2501,-1.2535,-1.2589,-1.2589,-1.2684,-1.2827,-1.2881,-1.2963,-1.3051,-1.3112,-1.3125,-1.3132,-1.3166,-1.3214,-1.3281,-1.3376,-1.3403,-1.3403,-1.3403,-1.3403,-1.3403,-1.3403,-1.3403,-1.3403,-1.3403,-1.3403,-1.3417,-1.3478,-1.3607,-1.3756,-1.3905,-1.4055,-1.419,-1.4285,0.0,0.0,0.0,0.0,0.0,0.0,-1.4299,-1.4299,0.0,0.0,0.0,0.0,0.0,0.0,-1.4299,-1.4299,0.0,-1.4299,-1.4299,-1.4299,-1.4299,-1.4299,-1.4299,-1.4299,-1.4299,-1.4299,-1.4306,-1.4448,-1.4597,-1.4753,-1.4909,-1.5052,-1.5181,-1.5181,-1.5181,-1.5181,-1.5181,-1.5181,-1.5181,-1.2501,-1.2501,0.0,0.0,-1.2501,0.0,-1.2501,-1.2501,-1.2501,-1.2501,-1.2501,-1.2501,-1.2501,-1.2501,-1.2501,-1.2501,0.0,0.0,0.0,-1.2501,-1.2501,-1.2501,-1.2501,-1.2501,-1.2501,-1.2501,-1.2501,-1.2501,-1.2501,-1.2501,-1.2501,-1.2501,-1.2501,-1.2501,-1.2501,-1.2501,-1.2501,-1.2501,-1.2501,-1.2501,-1.2501,-1.2508,-1.2515,-1.2515,-1.261,-1.2745,-1.2745,-1.2847,-1.2996,-1.3125,-1.318,-1.3214,-1.3356,-1.3403,-1.337,-1.3227,-1.3288,-1.3403,-1.3403,-1.3403,-1.3403,-1.3403,-1.3403,-1.3403,-1.3403,-1.3403,-1.3403,-1.3403,-1.3403,-1.3451,-1.36,-1.3743,-1.3892,-1.4048,-1.4197,-1.4299,-1.4299,0.0,0.0,0.0,0.0,0.0,0.0,-1.4299,-1.4299,0.0,0.0,0.0,0.0,0.0,-1.4299,-1.4299,-1.4299,-1.4299,-1.4299,-1.4299,-1.4299,-1.4299,-1.4299,-1.4299,-1.4299,-1.4299,-1.4306,-1.4326,-1.4468,-1.4611,-1.4767,-1.4923,-1.5065,-1.5181,-1.5181,-1.5181,-1.5181,-1.5181,-1.5181,-1.5181,0.0,0.0,-1.2501,-1.2501,-1.2501,-1.2501,-1.2501,-1.2501,-1.2501,-1.2501,-1.2501,-1.2501,-1.2501,-1.2501,-1.2501,-1.2501,-1.2501,-1.2501,-1.2501,-1.2501,-1.2501,-1.2501,-1.2501,-1.2501,-1.2501,-1.2501,-1.2501,-1.2501,-1.2501,-1.2501,-1.2501,-1.2501,-1.2501,-1.2501,-1.2501,-1.2501,-1.2501,-1.2501,-1.2501,-1.2501,-1.2501,-1.2569,-1.2678,-1.2678,-1.2773,-1.2908,-1.2908,-1.2996,-1.3125,-1.3159,-1.3247,-1.3356,-1.339,-1.3403,-1.3397,-1.3356,-1.337,-1.3403,-1.3403,-1.3403,-1.3403,-1.3403,-1.3403,-1.3403,-1.3403,-1.3403,-1.3403,-1.3403,-1.3403,-1.3451,-1.36,-1.3743,-1.3892,-1.4048,-1.4197,-1.4299,-1.4299,-1.4299,0.0,0.0,-1.4299,-1.4299,-1.4299,-1.4299,-1.4299,0.0,0.0,0.0,0.0,-1.4299,-1.4299,-1.4299,-1.4299,-1.4299,-1.4299,-1.4299,-1.4299,-1.4299,-1.4299,-1.4299,-1.4299,-1.4299,-1.436,-1.4468,-1.4618,-1.4774,-1.493,-1.5072,-1.5153,-1.5181,-1.5181,-1.5181,-1.5181,-1.5181,-1.5181,-1.5181,-1.2501,-1.2501,-1.2501,-1.2501,-1.2501,-1.2501,-1.2501,-1.2501,-1.2501,-1.2501,-1.2501,-1.2501,-1.2501,-1.2501,-1.2501,-1.2501,-1.2501,-1.2501,-1.2501,-1.2501,-1.2501,-1.2501,-1.2501,-1.2501,-1.2501,-1.2501,-1.2501,-1.2501,-1.2501,-1.2501,-1.2501,-1.2501,-1.2501,-1.2501,-1.2501,-1.2501,-1.2501,-1.2501,-1.2542,-1.2603,-1.2603,-1.2698,-1.2834,-1.2834,-1.2929,-1.3057,-1.3057,-1.3152,-1.3275,-1.3275,-1.3336,-1.3403,-1.3403,-1.3403,-1.3403,-1.3403,-1.3403,-1.3403,-1.3403,-1.3403,-1.3403,-1.3403,-1.3403,-1.3403,-1.3403,-1.3403,-1.3403,-1.3403,-1.3403,-1.3464,-1.3688,-1.379,-1.3912,-1.4143,-1.4245,-1.4299,-1.4299,-1.4299,0.0,-1.4299,-1.4299,-1.4299,-1.4299,-1.4299,-1.4299,-1.4299,-1.4299,0.0,-1.4299,-1.4299,-1.4299,-1.4299,-1.4299,-1.4299,-1.4299,-1.4299,-1.4299,-1.4299,-1.4299,-1.4299,-1.4299,-1.4299,-1.438,-1.4523,-1.4672,-1.4828,-1.4984,-1.5126,-1.5181,-1.5181,-1.5181,-1.5181,-1.5181,-1.5181,-1.5181,-1.5181,-1.2501,-1.2501,-1.2501,-1.2501,-1.2501,-1.2501,-1.2501,-1.2501,-1.2501,-1.2501,-1.2501,-1.2501,-1.2501,-1.2501,-1.2501,-1.2501,-1.2501,-1.2501,-1.2501,-1.2501,-1.2501,-1.2501,-1.2501,-1.2501,-1.2501,-1.2501,-1.2501,-1.2501,-1.2501,-1.2501,-1.2501,-1.2501,-1.2501,-1.2501,-1.2501,-1.2515,-1.2535,-1.2535,-1.2623,-1.2766,-1.2766,-1.2854,-1.299,-1.299,-1.3085,-1.3207,-1.3207,-1.3288,-1.3403,-1.3403,-1.3403,-1.3403,-1.3403,-1.3403,-1.3403,-1.3403,-1.3403,-1.3403,-1.3403,-1.3403,-1.3403,-1.3403,-1.3403,-1.3403,-1.3403,-1.3403,-1.3403,-1.3403,-1.3403,-1.3492,-1.3783,-1.3838,-1.3939,-1.4251,-1.4299,-1.4299,-1.4299,0.0,-1.4299,-1.4299,-1.4299,-1.4299,-1.4299,-1.4299,-1.4299,-1.4299,-1.4299,-1.4299,0.0,-1.4299,-1.4299,-1.4299,-1.4299,-1.4299,-1.4299,-1.4299,-1.4299,-1.4299,-1.4299,-1.4299,-1.4299,-1.4299,-1.4387,-1.4557,-1.4685,-1.4841,-1.5011,-1.5133,-1.5181,-1.5181,-1.5181,-1.5181,-1.5181,-1.5181,-1.5181,-1.5181,-1.2501,-1.2501,-1.2501,-1.2501,-1.2501,-1.2501,-1.2501,-1.2501,-1.2501,-1.2501,-1.2501,-1.2501,-1.2501,-1.2501,-1.2501,-1.2501,-1.2501,-1.2501,-1.2501,-1.2501,-1.2501,-1.2501,-1.2501,-1.2501,-1.2501,-1.2501,-1.2501,-1.2501,-1.2501,-1.2501,-1.2501,-1.2501,-1.2501,-1.2501,-1.2501,-1.2576,-1.2698,-1.2698,-1.2786,-1.2929,-1.2929,-1.301,-1.3139,-1.3139,-1.3234,-1.3363,-1.3363,-1.3383,-1.3403,-1.3403,-1.3403,-1.3403,-1.3403,-1.3403,-1.3403,-1.3403,-1.3403,-1.3403,-1.3403,-1.3403,-1.3403,-1.3403,-1.3403,-1.3403,-1.3403,-1.3403,-1.3403,-1.3403,-1.3403,-1.3492,-1.3783,-1.3838,-1.3939,-1.4251,-1.4299,-1.4299,-1.4299,0.0,-1.4299,-1.4299,-1.4299,-1.4299,-1.4299,-1.4299,-1.4299,-1.4299,-1.4299,-1.4299,-1.4299,-1.4299,-1.4299,-1.4299,-1.4299,-1.4299,-1.4299,-1.4299,-1.4299,-1.4299,-1.4299,-1.4299,-1.4299,-1.4299,-1.4448,-1.4706,-1.4726,-1.4896,-1.5153,-1.5174,-1.5181,-1.5181,-1.5181,-1.5181,-1.5181,-1.5181,-1.5181,-1.5181,-1.2501,-1.2501,-1.2501,-1.2501,-1.2501,-1.2501,-1.2501,-1.2501,-1.2501,-1.2501,-1.2501,-1.2501,-1.2501,-1.2501,-1.2501,-1.2501,-1.2501,-1.2501,-1.2501,-1.2501,-1.2501,-1.2501,-1.2501,-1.2501,-1.2501,-1.2501,-1.2501,-1.2501,-1.2501,-1.2501,-1.2501,-1.2501,-1.2549,-1.2623,-1.2623,-1.2712,-1.2854,-1.2854,-1.2942,-1.3078,-1.3078,-1.3166,-1.3295,-1.3295,-1.3342,-1.3403,-1.3403,-1.3403,-1.3403,-1.3403,-1.3403,-1.3403,-1.3403,-1.3403,-1.3403,-1.3403,-1.3403,-1.3403,-1.3403,-1.3403,-1.3403,-1.3403,-1.3403,-1.3403,-1.3403,-1.3403,-1.3403,-1.3403,-1.3403,-1.3492,-1.3783,-1.3838,-1.3939,-1.4251,-1.4299,0.0,0.0,-1.4299,-1.4299,-1.4299,-1.4299,-1.4299,-1.4299,-1.4299,-1.4299,-1.4299,-1.4299,-1.4299,-1.4299,-1.4299,-1.4299,-1.4299,-1.4299,-1.4299,-1.4299,-1.4299,-1.4299,-1.4299,-1.4299,-1.4299,-1.4299,-1.4299,-1.4462,-1.474,-1.474,-1.4909,-1.5181,-1.5181,-1.5181,-1.5181,-1.5181,-1.5181,-1.5181,-1.5181,-1.5181,-1.5181,-1.2501,-1.2501,-1.2501,-1.2501,-1.2501,-1.2501,-1.2501,-1.2501,-1.2501,-1.2501,-1.2501,-1.2501,-1.2501,-1.2501,-1.2501,-1.2501,-1.2501,-1.2501,-1.2501,-1.2501,-1.2501,-1.2501,-1.2501,-1.2501,-1.2501,-1.2501,-1.2501,-1.2501,-1.2535,-1.2556,-1.2556,-1.2589,-1.2671,-1.2786,-1.2786,-1.2868,-1.301,-1.301,-1.3091,-1.3227,-1.3227,-1.3295,-1.3403,-1.3403,-1.3403,-1.3403,-1.3403,-1.3403,-1.3403,-1.3403,-1.3403,-1.3403,-1.3403,-1.3403,-1.3403,-1.3403,-1.3403,-1.3403,-1.3403,-1.3403,-1.3403,-1.3403,-1.3403,-1.3403,-1.3403,-1.3403,-1.3403,-1.3403,-1.3403,-1.3492,-1.3783,-1.3838,-1.3939,-1.4251,0.0,0.0,0.0,-1.4299,-1.4299,-1.4299,-1.4299,-1.4299,-1.4299,-1.4299,-1.4299,-1.4299,-1.4299,-1.4299,-1.4299,-1.4299,-1.4299,-1.4299,-1.4299,-1.4299,-1.4299,-1.4299,-1.4299,-1.4299,-1.4299,-1.4299,-1.4299,-1.4299,-1.4462,-1.474,-1.474,-1.4909,-1.5181,-1.5181,-1.5181,-1.5181,-1.5181,-1.5181,-1.5181,-1.5181,-1.5181,-1.5181,-1.2501,-1.2501,-1.2501,-1.2501,-1.2501,-1.2501,-1.2501,-1.2501,-1.2501,-1.2501,-1.2501,-1.2501,-1.2501,-1.2501,-1.2501,-1.2501,-1.2501,-1.2501,-1.2501,-1.2501,-1.2501,-1.2501,-1.2501,-1.2501,-1.2501,-1.2501,-1.2501,-1.2501,-1.2644,-1.2712,-1.2718,-1.2861,-1.2935,-1.2942,-1.2942,-1.3024,-1.3159,-1.3159,-1.3247,-1.3383,-1.3383,-1.339,-1.3403,-1.3403,-1.3403,-1.3403,-1.3403,-1.3403,-1.3403,-1.3403,-1.3403,-1.3403,-1.3403,-1.3403,-1.3403,-1.3403,-1.3403,-1.3403,-1.3403,-1.3403,-1.3403,-1.3403,-1.3403,-1.3403,-1.3403,-1.3403,-1.3403,-1.3403,-1.3403,-1.3492,-1.3783,-1.3838,-1.3939,-1.4251,0.0,0.0,-1.4299,-1.4299,-1.4299,-1.4299,-1.4299,-1.4299,-1.4299,-1.4299,-1.4299,-1.4299,-1.4299,-1.4299,-1.4299,-1.4299,-1.4299,-1.4299,-1.4299,-1.4299,-1.4299,-1.4299,-1.4299,-1.4299,-1.4299,-1.4299,-1.4299,-1.4299,-1.4462,-1.474,-1.474,-1.4909,-1.5181,-1.5181,-1.5181,-1.5181,-1.5181,-1.5181,-1.5181,-1.5181,-1.5181,-1.5181,-1.2501,-1.2501,-1.2501,-1.2501,-1.2501,-1.2501,-1.2501,-1.2501,-1.2501,-1.2501,-1.2501,-1.2501,-1.2501,-1.2501,-1.2501,-1.2501,-1.2501,-1.2501,-1.2501,-1.2501,-1.2501,-1.2501,-1.2501,-1.2501,-1.2501,-1.2596,-1.2644,-1.2644,-1.28,-1.2874,-1.2874,-1.2935,-1.301,-1.3091,-1.3091,-1.3173,-1.3315,-1.3315,-1.3349,-1.3403,-1.3403,-1.3403,-1.3403,-1.3403,-1.3403,-1.3403,-1.3403,-1.3403,-1.3403,-1.3403,-1.3403,-1.3403,-1.3403,-1.3403,-1.3403,-1.3403,-1.3403,-1.3403,-1.3403,-1.3403,-1.3403,-1.3403,-1.3403,-1.3403,-1.3403,-1.3403,-1.3403,-1.3403,-1.3403,-1.3492,-1.3783,-1.3838,-1.3939,-1.4251,0.0,-1.4299,-1.4299,-1.4299,-1.4299,-1.4299,-1.4299,-1.4299,-1.4299,-1.4299,-1.4299,-1.4299,-1.4299,-1.4299,-1.4299,-1.4299,-1.4299,-1.4299,-1.4299,-1.4299,-1.4299,-1.4299,-1.4299,-1.4299,-1.4299,-1.4299,-1.4306,-1.4394,-1.4543,-1.4746,-1.4841,-1.4997,-1.5181,-1.5181,-1.5181,-1.5181,-1.5181,-1.5181,-1.5181,-1.5181,-1.5181,-1.5181,-1.2501,-1.2501,-1.2501,-1.2501,-1.2501,-1.2501,-1.2501,-1.2501,-1.2501,-1.2501,-1.2501,-1.2501,-1.2501,-1.2501,-1.2501,-1.2501,-1.2501,-1.2501,-1.2501,-1.2501,-1.2501,-1.2501,-1.2549,-1.2576,-1.2576,-1.2725,-1.28,-1.28,-1.2956,-1.303,-1.303,-1.3078,-1.3152,-1.3247,-1.3247,-1.3302,-1.3403,-1.3403,-1.3403,-1.3403,-1.3403,-1.3403,-1.3403,-1.3403,-1.3403,-1.3403,-1.3403,-1.3403,-1.3403,-1.3403,-1.3403,-1.3403,-1.3403,-1.3403,-1.3403,-1.3403,-1.3403,-1.3403,-1.3403,-1.3403,-1.3403,-1.3403,-1.3403,-1.3403,-1.3403,-1.3403,-1.3403,-1.3403,-1.3403,-1.3492,-1.3783,-1.3838,-1.3939,-1.4251,-1.4299,-1.4299,-1.4299,-1.4299,-1.4299,-1.4299,-1.4299,-1.4299,-1.4299,-1.4299,-1.4299,-1.4299,-1.4299,-1.4299,-1.4299,-1.4299,-1.4299,-1.4299,-1.4299,-1.4299,-1.4299,-1.4299,-1.4299,-1.4299,-1.4299,-1.4299,-1.4306,-1.4448,-1.4597,-1.4746,-1.4903,-1.5052,-1.5181,-1.5181,-1.5181,-1.5181,-1.5181,-1.5181,-1.5181,-1.5181,-1.5181,-1.5181,-1.2501,-1.2501,-1.2501,-1.2501,-1.2501,-1.2501,-1.2501,-1.2501,-1.2501,-1.2501,-1.2501,-1.2501,-1.2501,-1.2501,-1.2501,-1.2501,-1.2501,-1.2501,-1.2501,-1.2501,-1.2501,-1.2508,-1.2651,-1.2732,-1.2732,-1.2881,-1.2963,-1.2963,-1.3105,-1.3173,-1.318,-1.3329,-1.3403,-1.3403,-1.3403,-1.3403,-1.3403,-1.3403,-1.3403,-1.3403,-1.3403,-1.3403,-1.3403,-1.3403,-1.3403,-1.3403,-1.3403,-1.3403,-1.3403,-1.3403,-1.3403,-1.3403,-1.3403,-1.3403,-1.3403,-1.3403,-1.3403,-1.3403,-1.3403,-1.3403,-1.3403,-1.3403,-1.3403,-1.3403,-1.3403,-1.3403,-1.3403,-1.3403,-1.3403,-1.3492,-1.3783,-1.3838,-1.3939,-1.4251,-1.4299,-1.4299,-1.4299,-1.4299,-1.4299,-1.4299,-1.4299,-1.4299,-1.4299,-1.4299,-1.4299,-1.4299,-1.4299,-1.4299,-1.4299,-1.4299,-1.4299,-1.4299,-1.4299,-1.4299,-1.4299,-1.4299,-1.4299,-1.4299,-1.4299,-1.4299,-1.4306,-1.4448,-1.4597,-1.4746,-1.4903,-1.5052,-1.5181,-1.5181,-1.5181,-1.5181,-1.5181,-1.5181,-1.5181,-1.5181,-1.5181,-1.5181,-1.2501,-1.2501,-1.2501,-1.2501,-1.2501,-1.2501,-1.2501,-1.2501,-1.2501,-1.2501,-1.2501,-1.2501,-1.2501,-1.2501,-1.2501,-1.2501,-1.2501,-1.2549,-1.2657,-1.2664,-1.2712,-1.282,-1.2766,-1.2779,-1.2888,-1.3037,-1.3112,-1.3112,-1.3261,-1.3336,-1.3336,-1.3376,-1.3403,-1.3403,-1.3403,-1.3403,-1.3403,-1.3403,-1.3403,-1.3403,-1.3403,-1.3403,-1.3403,-1.3403,-1.3403,-1.3403,-1.3403,-1.3403,-1.3403,-1.3403,-1.3403,-1.3403,-1.3403,-1.3403,-1.3403,-1.3403,-1.3403,-1.3403,-1.3403,-1.3403,-1.3403,-1.3403,-1.3403,-1.3403,-1.3403,-1.3403,-1.3403,-1.3403,-1.3403,-1.3492,-1.3783,-1.3838,-1.3939,-1.4251,-1.4299,-1.4299,-1.4299,-1.4299,-1.4299,-1.4299,-1.4299,-1.4299,-1.4299,-1.4299,-1.4299,-1.4299,-1.4299,-1.4299,-1.4299,-1.4299,-1.4299,-1.4299,-1.4299,-1.4299,-1.4299,-1.4299,-1.4299,-1.4299,-1.4299,-1.4299,-1.4306,-1.4557,-1.4699,-1.4753,-1.5011,-1.5147,-1.5181,-1.5181,-1.5181,-1.5181,-1.5181,-1.5181,-1.5181,-1.5181,-1.5181,-1.5181,-1.2501,-1.2501,-1.2501,-1.2501,-1.2501,-1.2501,-1.2501,-1.2501,-1.2501,-1.2501,-1.2501,-1.2501,-1.2501,-1.2501,-1.2501,-1.2501,-1.2556,-1.263,-1.2725,-1.2786,-1.2888,-1.3037,-1.2956,-1.2949,-1.3044,-1.3186,-1.3261,-1.3261,-1.3356,-1.3403,-1.3403,-1.3403,-1.3403,-1.3403,-1.3403,-1.3403,-1.3403,-1.3403,-1.3403,-1.3403,-1.3403,-1.3403,-1.3403,-1.3403,-1.3403,-1.3403,-1.3403,-1.3403,-1.3403,-1.3403,-1.3403,-1.3403,-1.3403,-1.3403,-1.3403,-1.3403,-1.3403,-1.3403,-1.3403,-1.3403,-1.3403,-1.3403,-1.3403,-1.3403,-1.3403,-1.3403,-1.3403,-1.3403,-1.3451,-1.3559,-1.3797,-1.3892,-1.4014,-1.4258,-1.4299,-1.4299,-1.4299,-1.4299,-1.4299,-1.4299,-1.4299,-1.4299,-1.4299,-1.4299,-1.4299,-1.4299,-1.4299,-1.4299,-1.4299,-1.4299,-1.4299,-1.4299,-1.4299,-1.4299,-1.4299,-1.4299,-1.4299,-1.4299,-1.4299,-1.4299,-1.4306,-1.4543,-1.4679,-1.4753,-1.4997,-1.5133,-1.5181,-1.5181,-1.5181,-1.5181,-1.5181,-1.5181,-1.5181,-1.5181,-1.5181,-1.5181,-1.2501,-1.2501,-1.2501,-1.2501,-1.2501,-1.2501,-1.2501,-1.2501,-1.2501,-1.2501,-1.2501,-1.2501,-1.2501,-1.2501,-1.2508,-1.2522,-1.2664,-1.2759,-1.2766,-1.2901,-1.3044,-1.3186,-1.3193,-1.3193,-1.3193,-1.3329,-1.3403,-1.3403,-1.3403,-1.3403,-1.3403,-1.3403,-1.3403,-1.3403,-1.3403,-1.3403,-1.3403,-1.3403,-1.3403,-1.3403,-1.3403,-1.3403,-1.3403,-1.3403,-1.3403,-1.3403,-1.3403,-1.3403,-1.3403,-1.3403,-1.3403,-1.3403,-1.3403,-1.3403,-1.3403,-1.3403,-1.3403,-1.3403,-1.3403,-1.3403,-1.3403,-1.3403,-1.3403,-1.3403,-1.3403,-1.3403,-1.3403,-1.3417,-1.3532,-1.3675,-1.3831,-1.3973,-1.4122,-1.4278,-1.4299,-1.4299,-1.4299,-1.4299,-1.4299,-1.4299,-1.4299,-1.4299,-1.4299,-1.4299,-1.4299,-1.4299,-1.4299,-1.4299,-1.4299,-1.4299,-1.4299,-1.4299,-1.4299,-1.4299,-1.4299,-1.4299,-1.4299,-1.4299,-1.4299,-1.4299,-1.4306,-1.4448,-1.4597,-1.4746,-1.4903,-1.5052,-1.5181,-1.5181,-1.5181,-1.5181,-1.5181,-1.5181,-1.5181,-1.5181,-1.5181,-1.5181,-1.2501,-1.2501,-1.2501,-1.2501,-1.2501,-1.2501,-1.2501,-1.2501,-1.2501,-1.2501,-1.2501,-1.2501,-1.2501,-1.2501,-1.2549,-1.2671,-1.282,-1.2956,-1.3071,-1.3105,-1.3193,-1.3342,-1.3349,-1.3349,-1.3349,-1.3383,-1.3403,-1.3403,-1.3403,-1.3403,-1.3403,-1.3403,-1.3403,-1.3403,-1.3403,-1.3403,-1.3403,-1.3403,-1.3403,-1.3403,-1.3403,-1.3403,-1.3403,-1.3403,-1.3403,-1.3403,-1.3403,-1.3403,-1.3403,-1.3403,-1.3403,-1.3403,-1.3403,-1.3403,-1.3403,-1.3403,-1.3403,-1.3403,-1.3403,-1.3403,-1.3403,-1.3403,-1.3403,-1.3403,-1.3403,-1.3403,-1.3437,-1.3553,-1.3607,-1.3709,-1.3973,-1.4048,-1.4122,-1.4278,-1.4299,-1.4299,-1.4299,-1.4299,-1.4299,-1.4299,-1.4299,-1.4299,-1.4299,-1.4299,-1.4299,-1.4299,-1.4299,-1.4299,-1.4299,-1.4299,-1.4299,-1.4299,-1.4299,-1.4299,-1.4299,-1.4299,-1.4299,-1.4299,-1.4299,-1.4299,-1.4306,-1.4448,-1.4597,-1.4746,-1.4903,-1.5052,-1.5181,-1.5181,-1.5181,-1.5181,-1.5181,-1.5181,-1.5181,-1.5181,-1.5181,-1.5181,-1.2718,-1.2718,-1.2718,-1.2718,-1.2718,-1.2718,-1.2718,-1.2718,-1.2718,-1.2718,-1.2718,-1.2718,-1.2718,-1.2718,-1.2752,-1.2834,-1.2976,-1.3091,-1.3166,-1.3241,-1.3315,-1.3397,-1.3403,-1.3403,-1.3403,-1.3403,-1.3403,-1.3403,-1.3403,-1.3403,-1.3403,-1.3403,-1.3403,-1.3403,-1.3403,-1.3403,-1.3403,-1.3403,-1.3403,-1.3403,-1.3403,-1.3403,-1.3403,-1.3403,-1.3403,-1.3403,-1.3403,-1.3403,-1.3403,-1.3403,-1.3403,-1.3403,-1.3403,-1.3403,-1.3403,-1.3403,-1.3403,-1.3403,-1.3403,-1.3403,-1.3403,-1.3403,-1.3403,-1.3403,-1.3403,-1.3403,-1.3444,-1.36,-1.3682,-1.3804,-1.4027,-1.4129,-1.4204,-1.4285,-1.4299,-1.4299,-1.4299,-1.4299,-1.4299,-1.4299,-1.4299,-1.4299,-1.4299,-1.4299,-1.4299,-1.4299,-1.4299,-1.4299,-1.4299,-1.4299,-1.4299,-1.4299,-1.4299,-1.4299,-1.4299,-1.4299,-1.4299,-1.4299,-1.4299,-1.4299,-1.4299,-1.438,-1.4529,-1.4746,-1.4828,-1.4984,-1.5181,-1.5181,-1.5181,-1.5181,-1.5181,-1.5181,-1.5181,-1.5181,-1.5181,-1.5194,-1.2963,-1.2963,-1.2963,-1.2963,-1.2963,-1.2963,-1.2963,-1.2963,-1.2963,-1.2963,-1.2963,-1.2963,-1.2963,-1.2983,-1.2996,-1.2996,-1.3125,-1.3214,-1.3214,-1.3329,-1.3403,-1.3403,-1.3403,-1.3403,-1.3403,-1.3403,-1.3403,-1.3403,-1.3403,-1.3403,-1.3403,-1.3403,-1.3403,-1.3403,-1.3403,-1.3403,-1.3403,-1.3403,-1.3403,-1.3403,-1.3403,-1.3403,-1.3403,-1.3403,-1.3403,-1.3403,-1.3403,-1.3403,-1.3403,-1.3403,-1.3403,-1.3403,-1.3403,-1.3403,-1.3403,-1.3403,-1.3403,-1.3403,-1.3403,-1.3403,-1.3403,-1.3403,-1.3417,-1.3437,-1.3437,-1.3437,-1.3485,-1.3634,-1.3777,-1.3926,-1.4082,-1.4217,-1.4299,-1.4299,-1.4299,-1.4299,-1.4299,-1.4299,-1.4299,-1.4299,-1.4299,-1.4299,-1.4299,-1.4299,-1.4299,-1.4299,-1.4299,-1.4299,-1.4299,-1.4299,-1.4299,-1.4299,-1.4299,-1.4299,-1.4299,-1.4299,-1.4299,-1.4299,-1.4299,-1.4299,-1.4299,-1.4299,-1.4462,-1.474,-1.474,-1.4909,-1.5181,-1.5181,-1.5181,-1.5181,-1.5181,-1.5181,-1.5181,-1.5181,-1.5181,-1.5201,-1.2963,-1.2963,-1.2963,-1.2963,-1.2963,-1.2963,-1.2963,-1.2963,-1.2963,-1.2963,-1.2963,-1.2963,-1.2963,-1.3071,-1.3146,-1.3146,-1.3281,-1.337,-1.337,-1.339,-1.3403,-1.3403,-1.3403,-1.3403,-1.3403,-1.3403,-1.3403,-1.3403,-1.3403,-1.3403,-1.3403,-1.3403,-1.3403,-1.3403,-1.3403,-1.3403,-1.3403,-1.3403,-1.3403,-1.3403,-1.3403,-1.3403,-1.3403,-1.3403,-1.3403,-1.3403,-1.3403,-1.3403,-1.3403,-1.3403,-1.3403,-1.3403,-1.3403,-1.3403,-1.3403,-1.3403,-1.3403,-1.3403,-1.3403,-1.3403,-1.3403,-1.3403,-1.3498,-1.36,-1.36,-1.36,-1.3641,-1.3783,-1.3933,-1.4089,-1.4238,-1.4285,-1.4299,-1.4299,-1.4299,-1.4299,-1.4299,-1.4299,-1.4299,-1.4299,-1.4299,-1.4299,-1.4299,-1.4299,-1.4299,-1.4299,-1.4299,-1.4299,-1.4299,-1.4299,-1.4299,-1.4299,-1.4299,-1.4299,-1.4299,-1.4299,-1.4299,-1.4299,-1.4299,-1.4299,-1.4299,-1.4299,-1.4462,-1.474,-1.474,-1.4909,-1.5181,-1.5181,-1.5181,-1.5181,-1.5181,-1.5181,-1.5181,-1.5181,-1.5181,-1.5201,-1.3207,-1.3207,-1.3207,-1.3207,-1.3207,-1.3207,-1.3207,-1.3207,-1.3207,-1.3207,-1.3207,-1.3207,-1.3207,-1.3261,-1.3302,-1.3302,-1.3363,-1.3403,-1.3403,-1.3403,-1.3403,-1.3403,-1.3403,-1.3403,-1.3403,-1.3403,-1.3403,-1.3403,-1.3403,-1.3403,-1.3403,-1.3403,-1.3403,-1.3403,-1.3403,-1.3403,-1.3403,-1.3403,-1.3403,-1.3403,-1.3403,-1.3403,-1.3403,-1.3403,-1.3403,-1.3403,-1.3403,-1.3403,-1.3403,-1.3403,-1.3403,-1.3403,-1.3403,-1.3403,-1.3403,-1.3403,-1.3403,-1.3403,-1.3403,-1.3464,-1.3532,-1.3532,-1.3641,-1.3749,-1.3749,-1.3817,-1.3892,-1.396,-1.4021,-1.4122,-1.4272,-1.4299,-1.4299,-1.4299,-1.4299,-1.4299,-1.4299,-1.4299,-1.4299,-1.4299,-1.4299,-1.4299,-1.4299,-1.4299,-1.4299,-1.4299,-1.4299,-1.4299,-1.4299,-1.4299,-1.4299,-1.4299,-1.4299,-1.4299,-1.4299,-1.4299,-1.4299,-1.4299,-1.4299,-1.4299,-1.4299,-1.4299,-1.4462,-1.474,-1.474,-1.4909,-1.5181,-1.5181,-1.5181,-1.5181,-1.5181,-1.5181,-1.5181,-1.5181,-1.5181,-1.5215]},{"header":{"parameterUnit":"m.s-1","parameterCategory":1,"la1":30.6,"la2":28.766,"lo1":-90.7593,"lo2":-88.6598,"dy":0.0162,"dx":0.0183,"nx":116,"ny":114,"refTime":"2023-10-21T06:00:00:Z","depth":0,"parameterNumber":3,"parameterNumberName":"V-component_of_WINDS"},"data":[0.0,0.0,0.0,0.0,0.0,0.0,0.0,0.0,0.0,0.0,0.0,0.0,0.0,0.0,0.0,0.0,0.0,0.0,0.0,0.0,0.0,0.0,0.0,0.0,0.0,0.0,0.0,0.0,0.0,0.0,0.0,0.0,0.0,0.0,0.0,0.0,0.0,0.0,0.0,0.0,0.0,0.0,0.0,0.0,0.0,0.0,0.0,0.0,0.0,0.0,0.0,0.0,0.0,0.0,0.0,0.0,0.0,0.0,0.0,0.0,0.0,0.0,0.0,0.0,0.0,0.0,0.0,0.0,0.0,0.0,0.0,0.0,0.0,0.0,0.0,0.0,0.0,0.0,0.0,0.0,0.0,0.0,0.0,0.0,0.0,0.0,0.0,0.0,0.0,0.0,0.0,0.0,0.0,0.0,0.0,0.0,0.0,0.0,0.0,0.0,0.0,0.0,0.0,0.0,0.0,0.0,0.0,0.0,0.0,0.0,0.0,0.0,0.0,0.0,0.0,0.0,0.0,0.0,0.0,0.0,0.0,0.0,0.0,0.0,0.0,0.0,0.0,0.0,0.0,0.0,0.0,0.0,0.0,0.0,0.0,0.0,0.0,0.0,0.0,0.0,0.0,0.0,0.0,0.0,0.0,0.0,0.0,0.0,0.0,0.0,0.0,0.0,0.0,0.0,0.0,0.0,0.0,0.0,0.0,0.0,0.0,0.0,0.0,0.0,0.0,0.0,0.0,0.0,0.0,0.0,0.0,0.0,0.0,0.0,0.0,0.0,0.0,0.0,0.0,0.0,0.0,0.0,0.0,0.0,0.0,0.0,0.0,0.0,0.0,0.0,0.0,0.0,0.0,0.0,0.0,0.0,0.0,0.0,0.0,0.0,0.0,0.0,0.0,0.0,0.0,0.0,0.0,0.0,0.0,0.0,0.0,0.0,0.0,0.0,0.0,0.0,0.0,0.0,0.0,0.0,0.0,0.0,0.0,0.0,0.0,0.0,0.0,0.0,0.0,0.0,0.0,0.0,0.0,0.0,0.0,0.0,0.0,0.0,0.0,0.0,0.0,0.0,0.0,0.0,0.0,0.0,0.0,0.0,0.0,0.0,0.0,0.0,0.0,0.0,0.0,0.0,0.0,0.0,0.0,0.0,0.0,0.0,0.0,0.0,0.0,0.0,0.0,0.0,0.0,0.0,0.0,0.0,0.0,0.0,0.0,0.0,0.0,0.0,0.0,0.0,0.0,0.0,0.0,0.0,0.0,0.0,0.0,0.0,0.0,0.0,0.0,0.0,0.0,0.0,0.0,0.0,0.0,0.0,0.0,0.0,0.0,0.0,0.0,0.0,0.0,0.0,0.0,0.0,0.0,0.0,0.0,0.0,0.0,0.0,0.0,0.0,0.0,0.0,0.0,0.0,0.0,0.0,0.0,0.0,0.0,0.0,0.0,0.0,0.0,0.0,0.0,0.0,0.0,0.0,0.0,0.0,0.0,0.0,0.0,0.0,0.0,0.0,0.0,0.0,0.0,0.0,0.0,0.0,0.0,0.0,0.0,0.0,0.0,0.0,0.0,0.0,0.0,0.0,0.0,0.0,0.0,0.0,0.0,0.0,0.0,0.0,0.0,0.0,0.0,0.0,0.0,0.0,0.0,0.0,0.0,0.0,0.0,0.0,0.0,0.0,0.0,0.0,0.0,0.0,0.0,0.0,0.0,0.0,0.0,0.0,0.0,0.0,0.0,0.0,0.0,0.0,0.0,0.0,0.0,0.0,0.0,0.0,0.0,0.0,0.0,0.0,0.0,0.0,0.0,0.0,0.0,0.0,0.0,0.0,0.0,0.0,0.0,0.0,0.0,0.0,0.0,0.0,0.0,0.0,0.0,0.0,0.0,0.0,0.0,0.0,0.0,0.0,0.0,0.0,0.0,0.0,0.0,0.0,0.0,0.0,0.0,0.0,0.0,0.0,0.0,0.0,0.0,0.0,0.0,0.0,0.0,0.0,0.0,0.0,0.0,0.0,0.0,0.0,0.0,0.0,0.0,0.0,0.0,0.0,0.0,0.0,0.0,0.0,0.0,0.0,0.0,0.0,0.0,0.0,0.0,0.0,0.0,0.0,0.0,0.0,0.0,0.0,0.0,0.0,0.0,0.0,0.0,0.0,0.0,0.0,0.0,0.0,0.0,0.0,0.0,0.0,0.0,0.0,0.0,0.0,0.0,0.0,0.0,0.0,0.0,0.0,0.0,0.0,0.0,0.0,0.0,0.0,0.0,0.0,0.0,0.0,0.0,0.0,0.0,0.0,0.0,0.0,0.0,0.0,0.0,0.0,0.0,0.0,0.0,0.0,0.0,0.0,0.0,0.0,0.0,0.0,0.0,0.0,0.0,0.0,0.0,0.0,0.0,0.0,0.0,0.0,0.0,0.0,0.0,0.0,0.0,0.0,0.0,0.0,0.0,0.0,0.0,0.0,0.0,0.0,0.0,0.0,0.0,0.0,0.0,0.0,0.0,0.0,0.0,0.0,0.0,0.0,0.0,0.0,0.0,0.0,0.0,0.0,0.0,0.0,0.0,0.0,0.0,0.0,0.0,0.0,0.0,0.0,0.0,0.0,0.0,0.0,0.0,0.0,0.0,0.0,0.0,0.0,0.0,0.0,0.0,0.0,0.0,0.0,0.0,0.0,0.0,0.0,0.0,0.0,0.0,0.0,0.0,0.0,0.0,0.0,0.0,0.0,0.0,0.0,0.0,0.0,0.0,0.0,0.0,0.0,0.0,0.0,0.0,0.0,0.0,0.0,0.0,0.0,0.0,0.0,0.0,0.0,0.0,0.0,0.0,0.0,0.0,0.0,0.0,0.0,0.0,0.0,0.0,0.0,0.0,0.0,0.0,0.0,0.0,0.0,0.0,0.0,0.0,0.0,0.0,0.0,0.0,0.0,0.0,0.0,0.0,0.0,0.0,0.0,0.0,0.0,0.0,0.0,0.0,0.0,0.0,0.0,0.0,0.0,0.0,0.0,0.0,0.0,0.0,0.0,0.0,0.0,0.0,0.0,0.0,0.0,0.0,0.0,0.0,0.0,0.0,0.0,0.0,0.0,0.0,0.0,0.0,0.0,0.0,0.0,0.0,0.0,0.0,0.0,0.0,0.0,0.0,0.0,0.0,0.0,0.0,0.0,0.0,0.0,0.0,0.0,0.0,0.0,0.0,0.0,0.0,0.0,0.0,0.0,0.0,0.0,0.0,0.0,0.0,0.0,0.0,0.0,0.0,0.0,0.0,0.0,0.0,0.0,0.0,0.0,0.0,0.0,0.0,0.0,0.0,0.0,0.0,0.0,0.0,0.0,0.0,0.0,0.0,0.0,0.0,0.0,0.0,0.0,0.0,0.0,0.0,0.0,0.0,0.0,0.0,0.0,0.0,0.0,0.0,0.0,0.0,0.0,0.0,0.0,0.0,0.0,0.0,0.0,0.0,0.0,0.0,0.0,0.0,0.0,0.0,0.0,0.0,0.0,0.0,0.0,0.0,0.0,0.0,0.0,0.0,0.0,0.0,0.0,0.0,0.0,0.0,0.0,0.0,0.0,0.0,0.0,0.0,0.0,0.0,0.0,0.0,0.0,0.0,0.0,0.0,0.0,0.0,0.0,0.0,0.0,0.0,0.0,0.0,0.0,0.0,0.0,0.0,0.0,0.0,0.0,0.0,0.0,0.0,0.0,0.0,0.0,0.0,0.0,0.0,0.0,0.0,0.0,0.0,0.0,0.0,0.0,0.0,0.0,0.0,0.0,0.0,0.0,0.0,0.0,0.0,0.0,0.0,0.0,0.0,0.0,0.0,0.0,0.0,0.0,0.0,0.0,0.0,0.0,0.0,0.0,0.0,0.0,0.0,0.0,0.0,0.0,0.0,0.0,0.0,0.0,0.0,0.0,0.0,0.0,0.0,0.0,0.0,0.0,0.0,0.0,0.0,0.0,0.0,0.0,0.0,0.0,0.0,0.0,0.0,0.0,0.0,0.0,0.0,0.0,0.0,0.0,0.0,0.0,0.0,0.0,0.0,0.0,0.0,0.0,0.0,0.0,0.0,0.0,0.0,0.0,0.0,0.0,0.0,0.0,0.0,0.0,0.0,0.0,0.0,0.0,0.0,0.0,0.0,0.0,0.0,0.0,0.0,0.0,0.0,0.0,0.0,0.0,0.0,0.0,0.0,0.0,0.0,0.0,0.0,0.0,0.0,0.0,0.0,0.0,0.0,0.0,0.0,0.0,0.0,0.0,0.0,0.0,0.0,0.0,0.0,0.0,0.0,0.0,0.0,0.0,0.0,0.0,0.0,0.0,0.0,0.0,0.0,0.0,0.0,0.0,0.0,0.0,0.0,0.0,0.0,0.0,0.0,0.0,0.0,0.0,0.0,0.0,0.0,0.0,0.0,0.0,0.0,0.0,0.0,0.0,0.0,0.0,0.0,0.0,0.0,0.0,0.0,0.0,0.0,0.0,0.0,0.0,0.0,0.0,0.0,0.0,0.0,0.0,0.0,0.0,0.0,0.0,0.0,0.0,0.0,0.0,0.0,0.0,0.0,0.0,0.0,0.0,0.0,0.0,0.0,0.0,0.0,0.0,0.0,0.0,0.0,0.0,0.0,0.0,0.0,0.0,0.0,0.0,0.0,0.0,0.0,0.0,0.0,0.0,0.0,0.0,0.0,0.0,0.0,0.0,0.0,0.0,0.0,0.0,0.0,0.0,0.0,0.0,0.0,0.0,0.0,0.0,0.0,0.0,0.0,0.0,0.0,0.0,0.0,0.0,0.0,0.0,0.0,0.0,0.0,0.0,0.0,0.0,0.0,0.0,0.0,0.0,0.0,0.0,0.0,0.0,0.0,0.0,0.0,0.0,0.0,0.0,0.0,0.0,0.0,0.0,0.0,0.0,0.0,0.0,0.0,0.0,0.0,0.0,0.0,0.0,0.0,0.0,0.0,0.0,0.0,0.0,0.0,0.0,0.0,0.0,0.0,0.0,0.0,0.0,0.0,0.0,0.0,0.0,0.0,0.0,0.0,0.0,0.0,0.0,0.0,0.0,0.0,0.0,0.0,0.0,0.0,0.0,0.0,0.0,0.0,0.0,0.0,0.0,0.0,0.0,0.0,0.0,0.0,0.0,0.0,0.0,0.0,0.0,0.0,0.0,0.0,0.0,0.0,0.0,0.0,0.0,0.0,0.0,0.0,0.0,0.0,0.0,0.0,0.0,0.0,0.0,0.0,0.0,0.0,0.0,0.0,0.0,0.0,0.0,0.0,0.0,0.0,0.0,0.0,0.0,0.0,0.0,0.0,0.0,0.0,0.0,0.0,0.0,0.0,0.0,0.0,0.0,0.0,0.0,0.0,0.0,0.0,0.0,0.0,0.0,0.0,0.0,0.0,0.0,0.0,0.0,0.0,0.0,0.0,0.0,0.0,0.0,0.0,0.0,0.0,0.0,0.0,0.0,0.0,0.0,0.0,0.0,0.0,0.0,0.0,0.0,0.0,0.0,0.0,0.0,0.0,0.0,0.0,0.0,0.0,0.0,0.0,0.0,0.0,0.0,0.0,0.0,0.0,0.0,0.0,0.0,0.0,0.0,0.0,0.0,0.0,0.0,0.0,0.0,0.0,0.0,0.0,0.0,0.0,0.0,0.0,0.0,0.0,0.0,0.0,0.0,0.0,0.0,0.0,0.0,0.0,0.0,0.0,0.0,0.0,0.0,0.0,0.0,0.0,0.0,0.0,0.0,0.0,0.0,0.0,0.0,0.0,0.0,0.0,0.0,0.0,0.0,0.0,0.0,0.0,0.0,0.0,0.0,0.0,0.0,0.0,0.0,0.0,0.0,0.0,0.0,0.0,0.0,0.0,0.0,0.0,0.0,0.0,0.0,0.0,0.0,0.0,0.0,0.0,0.0,0.0,0.0,0.0,0.0,0.0,0.0,0.0,0.0,0.0,0.0,0.0,0.0,0.0,0.0,0.0,0.0,0.0,0.0,0.0,0.0,0.0,0.0,0.0,0.0,0.0,0.0,0.0,0.0,0.0,0.0,0.0,0.0,0.0,0.0,0.0,0.0,0.0,0.0,6.1379,0.0,0.0,0.0,0.0,0.0,0.0,0.0,0.0,0.0,0.0,0.0,0.0,0.0,0.0,0.0,0.0,0.0,0.0,0.0,0.0,0.0,0.0,0.0,0.0,0.0,0.0,0.0,0.0,0.0,0.0,0.0,0.0,0.0,0.0,0.0,0.0,0.0,0.0,5.8558,5.8153,5.774,5.7329,5.7329,5.6542,5.5141,0.0,0.0,0.0,0.0,0.0,0.0,0.0,0.0,0.0,0.0,0.0,0.0,0.0,0.0,0.0,0.0,0.0,0.0,0.0,0.0,0.0,0.0,0.0,0.0,0.0,0.0,0.0,0.0,0.0,0.0,0.0,0.0,0.0,0.0,0.0,0.0,0.0,0.0,0.0,0.0,0.0,0.0,0.0,0.0,0.0,0.0,0.0,0.0,0.0,0.0,0.0,0.0,0.0,0.0,0.0,0.0,0.0,0.0,0.0,0.0,0.0,0.0,0.0,0.0,0.0,0.0,0.0,0.0,0.0,0.0,0.0,6.2402,0.0,0.0,0.0,0.0,0.0,0.0,0.0,0.0,0.0,0.0,0.0,0.0,0.0,0.0,0.0,0.0,0.0,0.0,0.0,0.0,0.0,0.0,0.0,0.0,6.079,6.079,6.067,6.061,0.0,0.0,0.0,0.0,0.0,0.0,6.0397,5.9704,5.9671,6.0397,5.9739,5.9379,5.9344,5.9344,5.832,5.6508,5.6234,0.0,0.0,0.0,0.0,0.0,0.0,0.0,0.0,0.0,0.0,0.0,0.0,0.0,0.0,0.0,0.0,0.0,0.0,0.0,0.0,0.0,0.0,0.0,0.0,0.0,0.0,0.0,0.0,0.0,0.0,0.0,0.0,0.0,0.0,0.0,0.0,0.0,0.0,0.0,0.0,0.0,0.0,0.0,0.0,0.0,0.0,0.0,0.0,0.0,0.0,0.0,0.0,0.0,0.0,0.0,0.0,0.0,0.0,0.0,0.0,0.0,0.0,0.0,6.5375,6.5301,6.5301,6.5301,6.5353,6.537,6.3883,6.322,6.322,6.3099,0.0,0.0,0.0,0.0,0.0,0.0,0.0,0.0,0.0,0.0,0.0,0.0,0.0,0.0,0.0,0.0,0.0,0.0,0.0,0.0,0.0,6.249,6.249,6.249,6.1824,6.1464,0.0,0.0,0.0,0.0,0.0,0.0,6.0397,6.0273,6.0273,6.0397,6.0273,6.0211,6.0211,6.0211,6.0074,5.9706,5.8305,5.7353,5.6729,0.0,0.0,0.0,0.0,0.0,0.0,0.0,0.0,0.0,0.0,0.0,0.0,0.0,0.0,0.0,0.0,0.0,0.0,0.0,0.0,0.0,0.0,0.0,0.0,0.0,0.0,0.0,0.0,0.0,0.0,0.0,0.0,0.0,0.0,0.0,0.0,0.0,0.0,0.0,0.0,0.0,6.3638,6.3778,0.0,0.0,0.0,0.0,0.0,0.0,0.0,0.0,0.0,0.0,0.0,0.0,0.0,6.7357,6.7357,6.6696,6.6329,6.6329,6.5632,6.5301,6.5301,6.5301,6.5558,6.5975,6.5262,0.0,6.4934,6.4237,0.0,0.0,0.0,0.0,0.0,0.0,0.0,0.0,0.0,0.0,0.0,0.0,0.0,0.0,0.0,0.0,0.0,0.0,0.0,0.0,0.0,6.278,6.278,6.278,6.249,6.248,6.2954,6.2694,0.0,0.0,0.0,6.3153,6.3153,6.222,6.155,6.1055,6.152,6.152,6.1055,6.1055,6.082,6.0397,6.0164,5.9597,5.8847,5.8847,0.0,0.0,0.0,0.0,0.0,0.0,0.0,0.0,0.0,0.0,0.0,0.0,0.0,0.0,0.0,0.0,0.0,0.0,0.0,0.0,0.0,0.0,0.0,0.0,0.0,0.0,0.0,0.0,0.0,0.0,0.0,0.0,0.0,0.0,0.0,0.0,0.0,0.0,0.0,6.453,6.4787,6.4787,6.5485,6.5962,0.0,0.0,0.0,0.0,0.0,0.0,0.0,0.0,0.0,6.8068,6.8404,6.859,6.859,6.8255,6.8068,6.8068,6.7732,6.7546,6.7546,6.7546,6.7666,6.7905,6.7643,6.7546,6.7411,6.5858,6.5631,6.6112,0.0,0.0,0.0,0.0,6.4395,6.4321,0.0,0.0,0.0,0.0,0.0,0.0,0.0,0.0,0.0,0.0,0.0,0.0,6.3191,6.311,6.3014,6.3014,6.3014,6.3309,6.4042,6.409,0.0,6.5264,6.5301,6.5301,6.5301,6.4075,6.3175,6.2558,6.3137,6.3137,6.2558,6.2558,6.2109,6.1348,6.1984,6.1672,6.07,6.07,6.07,6.067,0.0,0.0,0.0,0.0,0.0,0.0,0.0,0.0,0.0,0.0,0.0,0.0,0.0,0.0,0.0,0.0,0.0,0.0,0.0,0.0,0.0,0.0,0.0,0.0,0.0,0.0,0.0,0.0,0.0,0.0,0.0,0.0,0.0,0.0,0.0,0.0,0.0,6.578,6.6013,6.6013,6.6753,6.7235,0.0,0.0,0.0,0.0,0.0,0.0,6.9313,6.9313,6.9313,6.9313,6.9313,6.9313,6.9313,6.9539,6.9614,6.9652,6.9841,6.9916,6.9916,6.9916,6.9997,7.0116,6.9788,6.9775,6.9853,6.7556,6.695,6.7465,6.7069,6.7032,6.7107,6.6257,6.5955,6.5823,0.0,0.0,0.0,0.0,0.0,0.0,0.0,0.0,0.0,0.0,0.0,6.3191,6.4197,6.3871,6.3565,6.3565,6.3565,6.3711,6.4067,6.409,6.4457,6.5264,6.5301,6.5301,6.5301,6.5212,6.5176,6.5102,6.5165,6.5165,6.5102,6.5102,6.4673,6.394,6.3965,6.3089,6.1548,6.1548,6.1548,6.1492,6.07,0.0,0.0,0.0,0.0,0.0,0.0,0.0,0.0,0.0,0.0,0.0,0.0,0.0,0.0,0.0,0.0,0.0,0.0,0.0,0.0,0.0,0.0,0.0,0.0,0.0,0.0,0.0,0.0,0.0,0.0,0.0,0.0,0.0,0.0,0.0,0.0,0.0,0.0,6.7952,6.8686,0.0,0.0,0.0,0.0,6.9272,6.9292,6.9313,6.9313,6.9313,6.9313,6.9313,6.9313,6.9313,6.9313,7.0125,7.0541,7.0541,7.1316,7.1677,7.1677,7.1677,7.1938,7.2348,7.1064,7.11,7.1838,6.9131,6.8482,6.9048,6.7503,6.7352,6.7956,6.7145,6.6843,6.6843,0.0,0.0,0.0,0.0,0.0,0.0,0.0,0.0,6.4063,6.4793,6.4275,6.4183,6.5068,6.4556,6.4099,6.4099,6.4587,6.5144,6.5817,6.6035,6.6505,6.7321,6.7005,6.6586,6.6072,6.6072,6.5815,6.5301,6.5301,6.5301,6.5301,6.5301,6.5154,6.4861,6.4861,6.4548,6.3909,6.285,6.235,6.235,6.2049,6.1942,0.0,0.0,0.0,0.0,0.0,0.0,0.0,0.0,0.0,0.0,0.0,0.0,0.0,0.0,0.0,0.0,0.0,0.0,0.0,0.0,0.0,0.0,0.0,0.0,0.0,0.0,0.0,0.0,0.0,0.0,0.0,0.0,0.0,0.0,0.0,0.0,0.0,6.886,6.9124,0.0,6.9313,6.9626,6.9811,6.9811,7.0129,7.056,7.1134,7.1172,7.144,7.1975,7.2013,7.2013,7.2013,7.2319,7.2472,7.2472,7.274,7.2893,7.2893,7.2893,7.3013,7.3139,7.2652,7.2686,7.2947,7.1988,7.1057,7.0292,6.9696,6.9658,6.9811,6.9008,6.8702,6.8625,0.0,0.0,0.0,0.0,0.0,0.0,0.0,0.0,6.4633,6.5327,6.4821,6.4745,6.5631,6.5055,6.4739,6.5042,6.5573,6.6257,6.7181,6.7438,6.7935,6.8736,6.844,6.7975,6.7456,6.7271,6.6911,6.6369,6.6176,6.6109,6.6109,6.6109,6.5962,6.5705,6.5705,6.5558,6.5228,6.4127,6.3649,6.3649,6.3649,6.3649,6.3649,0.0,0.0,0.0,0.0,0.0,0.0,0.0,0.0,0.0,0.0,0.0,0.0,0.0,0.0,0.0,0.0,0.0,0.0,0.0,0.0,0.0,0.0,0.0,0.0,0.0,0.0,0.0,0.0,0.0,0.0,0.0,0.0,0.0,0.0,0.0,6.9829,6.9829,6.9829,6.9829,6.9829,7.0412,7.0821,7.0821,7.141,7.2014,7.2591,7.2629,7.2899,7.3462,7.3514,7.363,7.3899,7.4207,7.4476,7.4784,7.5053,7.5207,7.5207,7.5207,7.5207,7.5168,7.4591,7.4361,7.4322,7.3745,7.2822,7.1783,7.1783,7.1783,7.1706,7.1168,7.0975,7.0898,0.0,0.0,0.0,0.0,0.0,0.0,0.0,6.4731,6.4646,6.5105,6.4751,6.482,6.5833,6.5432,6.5474,6.6297,6.6428,6.6933,6.8034,6.8127,6.8485,6.9275,6.9313,6.9313,6.9313,6.8795,6.8535,6.8535,6.797,6.7767,6.7741,6.7741,6.731,6.6549,6.6549,6.6109,6.5375,6.5375,6.5375,6.5375,6.5338,6.5301,6.5301,0.0,0.0,0.0,0.0,0.0,0.0,0.0,0.0,0.0,0.0,0.0,0.0,0.0,0.0,0.0,0.0,0.0,0.0,0.0,0.0,0.0,0.0,0.0,0.0,0.0,0.0,0.0,0.0,0.0,0.0,0.0,0.0,0.0,7.0179,7.0554,7.0898,7.0898,7.0937,7.0937,7.0937,7.1745,7.2245,7.2245,7.3014,7.3514,7.3538,7.3553,7.3591,7.363,7.363,7.4053,7.4822,7.5668,7.6515,7.7361,7.813,7.8477,7.8477,7.8477,7.8477,7.84,7.6784,7.6092,7.5938,7.4322,7.3668,7.3668,7.3538,7.3514,7.3514,7.3514,7.3514,7.3514,0.0,0.0,0.0,0.0,0.0,0.0,0.0,6.5556,6.5719,6.6482,6.5939,6.58,6.6692,6.6127,6.5792,6.6022,6.7135,6.7975,6.828,6.9103,6.9492,6.9333,6.9313,6.9313,6.9313,6.9148,6.9085,6.9085,6.8913,6.866,6.8284,6.8284,6.7961,6.7357,6.7357,6.7247,6.7026,6.7026,6.7026,6.6953,6.5778,6.5301,6.5301,0.0,0.0,0.0,0.0,0.0,0.0,0.0,0.0,0.0,0.0,0.0,0.0,0.0,0.0,0.0,0.0,0.0,0.0,0.0,0.0,0.0,0.0,0.0,0.0,0.0,0.0,0.0,0.0,0.0,0.0,0.0,7.0898,7.0871,7.0681,7.0791,7.0898,7.0898,7.1475,7.1822,7.1822,7.2629,7.3129,7.3129,7.336,7.3745,7.4361,7.4976,7.5592,7.6245,7.6823,7.7246,7.7438,7.7669,7.7938,7.8169,7.84,7.8477,7.8477,7.8477,7.8477,7.8477,7.8015,7.7823,7.7784,7.7323,7.713,7.6861,7.4437,7.3514,7.3514,7.3514,7.3514,7.3514,0.0,0.0,0.0,0.0,0.0,0.0,0.0,6.5897,6.6051,6.6551,6.6205,6.609,6.6551,6.6167,6.6051,6.6359,6.7628,6.8552,6.8936,6.9879,7.0298,6.9992,6.9974,6.9974,6.9974,6.9738,6.9645,6.9645,6.9413,6.9148,6.8862,6.8862,6.866,6.8368,6.8368,6.8368,6.8368,6.8368,6.8368,6.8294,6.7364,6.6692,6.6329,6.6329,6.6329,6.6329,6.6329,6.6623,6.7043,6.7255,0.0,0.0,0.0,0.0,0.0,0.0,0.0,0.0,0.0,0.0,0.0,0.0,0.0,0.0,0.0,0.0,0.0,0.0,0.0,0.0,0.0,0.0,0.0,0.0,7.1206,7.1437,7.1437,7.1437,7.1437,7.1437,7.2206,7.2745,7.2745,7.3514,7.4168,7.4514,7.4899,7.5438,7.6245,7.6784,7.7284,7.7784,7.8246,7.8669,7.9054,7.9054,7.9208,7.9592,7.9592,7.9592,7.9592,7.9592,7.9592,0.0,7.9208,7.9054,7.9015,7.8631,7.8477,0.0,0.0,0.0,0.0,0.0,7.4861,7.4553,0.0,0.0,0.0,0.0,0.0,0.0,0.0,6.5897,6.5897,6.5897,6.5897,6.5897,6.5897,6.5897,6.6205,6.6898,6.7859,6.8821,6.9783,7.0514,7.0898,7.0898,7.0898,7.0898,7.0898,7.0448,7.0179,7.0179,6.972,6.9452,6.9393,6.9393,6.9373,6.9313,6.9313,6.9313,6.9313,6.9313,6.9313,6.9313,6.9313,6.8728,6.7852,6.7852,6.7852,6.7852,6.7852,6.7852,6.7956,6.844,0.0,0.0,0.0,0.0,0.0,0.0,0.0,0.0,0.0,0.0,0.0,0.0,0.0,0.0,0.0,0.0,0.0,0.0,0.0,0.0,0.0,0.0,0.0,0.0,7.1783,7.236,7.236,7.2399,7.2437,7.236,7.3129,7.3668,7.3783,7.4514,7.5361,7.6207,7.7015,7.7746,7.8453,0.0,0.0,0.0,0.0,7.9169,7.9939,7.9939,8.0323,8.1093,8.1093,8.1093,8.1093,8.1093,8.1093,8.1054,8.0285,7.9939,7.99,7.9092,7.8784,7.8746,7.8569,7.8477,7.84,7.7707,7.6938,7.6284,0.0,0.0,0.0,0.0,0.0,0.0,0.0,6.5897,6.5897,6.5897,6.5897,6.5897,6.5897,6.5897,6.5974,6.6128,6.7513,6.9052,7.0552,7.0821,7.0898,7.0898,7.0898,7.0898,7.0898,7.0791,7.0748,7.0748,7.0637,7.0362,6.9974,6.9974,6.972,6.9313,6.9313,6.9313,6.9313,6.9313,6.9313,6.9313,6.9313,6.9169,6.8978,6.8978,6.8978,6.8978,6.8978,6.8978,6.8999,6.9106,6.9148,6.9169,6.9272,6.9313,0.0,0.0,0.0,0.0,0.0,0.0,0.0,0.0,0.0,0.0,0.0,0.0,0.0,0.0,0.0,0.0,0.0,0.0,0.0,7.1937,7.2668,7.3245,7.3245,7.3822,7.3976,7.3322,7.3976,7.4745,7.5438,7.6284,7.713,7.7938,7.8169,7.8323,7.8477,7.9169,7.9554,7.9554,8.0246,8.0669,8.0862,8.0862,8.0939,8.1093,0.0,0.0,8.1093,8.1093,8.1093,8.1093,8.0939,8.0862,8.0823,8.0669,8.0592,8.0477,7.9054,7.8477,7.8477,7.8323,7.8169,7.8015,0.0,0.0,0.0,0.0,0.0,0.0,0.0,6.5897,6.5897,6.5897,6.5897,6.5897,6.5897,6.5897,6.5897,6.5897,6.7013,6.8667,7.0744,7.0514,7.0475,7.0898,7.0898,7.0898,7.0898,7.0898,7.0898,7.0898,7.0898,7.0762,7.0494,7.0494,7.0346,7.0095,7.0095,7.0095,7.0095,7.0095,7.0095,7.0095,7.0095,7.0095,7.0044,6.9511,6.9313,6.9313,6.9313,6.9313,6.9353,6.9607,6.9701,6.9738,7.0026,7.0095,7.0095,0.0,0.0,0.0,0.0,0.0,0.0,0.0,0.0,0.0,0.0,0.0,0.0,0.0,0.0,7.1552,7.1552,0.0,7.286,7.286,7.3553,7.4091,7.4091,7.5207,7.5707,7.4861,7.5476,7.6322,7.7169,7.763,7.8246,7.9092,7.9131,7.9323,7.9785,8.0208,8.0439,8.0439,8.0862,8.1093,8.1093,8.1093,8.1093,8.1093,8.1093,8.1093,8.1093,8.1093,8.1093,8.1093,8.1093,8.1093,8.1093,8.1093,8.1093,8.1016,8.0131,7.9515,7.9131,7.9131,7.8861,7.8477,0.0,0.0,0.0,0.0,0.0,0.0,0.0,6.5897,6.5897,6.5897,6.5897,6.5897,6.5897,6.5897,6.5974,6.6128,6.6744,6.8052,7.0283,6.9821,6.9821,7.0629,7.0667,7.0744,7.0898,7.0898,7.0898,7.0898,7.0898,7.0898,7.0898,7.0898,7.0898,7.0898,7.0898,7.0898,7.0898,7.0898,7.0898,7.0898,7.0898,7.0898,7.0791,6.9957,6.9607,6.9607,6.9607,6.9607,6.9683,7.0112,7.0266,7.033,7.0762,7.0898,7.0898,7.0898,7.0898,0.0,0.0,0.0,0.0,0.0,0.0,0.0,0.0,7.0898,7.0937,7.1129,7.1706,7.2245,7.2399,7.3168,7.3745,7.3745,7.4553,7.5207,7.5207,7.6553,7.7323,7.6784,7.7207,7.7861,7.8669,7.8746,7.9092,7.9977,8.0054,8.0362,8.1054,8.1093,8.1093,8.1093,8.1093,8.1093,8.1093,8.1093,8.1093,8.1093,8.1093,8.1093,8.1093,8.1093,8.1093,8.1093,8.1093,8.1093,8.1093,8.1093,8.1093,8.1093,8.1093,8.0669,8.0054,8.0054,7.9592,7.9015,0.0,0.0,0.0,0.0,0.0,0.0,0.0,0.0,6.5897,6.5897,6.5897,6.5897,6.5897,6.5897,6.6205,6.6898,6.7051,6.7552,6.8629,6.859,6.8936,6.9821,6.9821,7.0167,7.0898,7.0898,7.0898,7.0898,7.0898,7.0898,7.0898,7.0898,7.0898,7.0898,7.0898,7.0898,7.0898,7.0898,7.0898,7.0898,7.0898,7.0898,7.0885,7.0762,7.0734,7.0734,7.0734,7.0734,7.0734,7.0791,7.0805,7.0805,7.0885,7.0898,7.0898,7.0898,7.0898,7.0898,7.0898,7.0898,7.0898,7.0898,7.0898,7.0898,0.0,7.0898,7.1129,7.1898,7.2129,7.2437,7.3206,7.4014,7.4591,7.4591,7.5938,7.7015,7.7015,7.7784,7.8631,7.9285,7.8784,7.8707,7.9592,7.9669,8.0015,8.09,8.0939,8.1016,8.1093,8.1093,8.1093,8.1093,8.1093,8.1093,8.1093,8.1093,8.1093,8.1093,8.1093,8.1093,8.1093,8.1093,8.1093,8.1093,8.1093,8.1093,8.1093,8.1093,8.1093,8.1093,8.1093,8.1054,8.0939,8.0939,8.09,8.0823,0.0,0.0,0.0,0.0,0.0,0.0,0.0,0.0,0.0,6.4719,6.5434,6.5897,6.5897,6.5897,6.6205,6.7013,6.6667,6.6974,6.8321,6.7936,6.8013,6.8898,6.9436,6.986,7.0206,7.0667,7.0898,7.0898,7.0898,7.0898,7.0898,7.0898,7.0898,7.0898,7.0898,7.0898,7.0898,7.0898,7.0898,7.0898,7.0898,7.0898,7.0898,7.0898,7.0898,7.0898,7.0898,7.0898,0.0,7.0898,7.0898,7.0898,7.0898,7.0898,7.0898,7.0898,7.0898,7.0898,7.0898,7.0898,7.0898,7.0898,7.1283,7.1668,7.1668,7.2052,7.2514,7.2899,7.3322,7.3783,7.413,7.4899,7.563,7.613,7.6823,7.7438,7.7938,7.8707,7.94,7.9746,7.9939,8.0169,8.0516,8.0554,8.0708,8.1054,8.1093,8.1093,8.1093,8.1093,8.1093,8.1093,8.1093,8.1093,8.1093,8.1093,8.1093,8.1093,8.1093,8.1093,8.1093,8.1093,8.1093,8.1093,8.1093,8.1093,8.1093,8.1093,8.1093,8.1093,8.1093,8.1093,8.1093,8.1093,8.1093,8.1093,0.0,0.0,0.0,0.0,0.0,0.0,0.0,0.0,0.0,0.0,6.4604,6.5499,6.5846,6.5897,6.6128,6.6705,6.6244,6.6436,6.7628,6.7128,6.7167,6.8013,6.8667,6.909,6.936,7.0167,7.0552,7.0552,7.0783,7.0898,7.0898,7.0898,7.0898,7.0898,7.0898,7.0898,7.0898,7.0898,7.0898,7.0898,7.0898,7.0898,7.0898,7.0898,7.0898,7.0898,7.0898,7.0898,7.0898,7.0898,7.0898,7.0898,7.0898,7.0898,7.0898,7.0898,7.0898,7.0898,7.0898,7.1091,7.1245,7.1245,7.1898,7.2552,7.2552,7.3053,7.3553,7.3783,7.4284,7.4784,7.5014,7.5784,7.6553,7.7207,7.7669,7.8169,7.8784,7.9592,8.0169,8.0169,8.0708,8.1093,8.1093,8.1093,8.1093,8.1093,8.1093,8.1093,8.1093,8.1093,8.1093,8.1093,8.1093,8.1093,8.1093,8.1093,8.1093,8.1093,8.1093,8.1093,8.1093,8.1093,8.1093,8.1093,8.1093,8.1093,8.1093,8.1093,8.1093,8.1093,8.1093,8.1093,8.1093,8.1093,8.1093,8.1093,0.0,0.0,0.0,0.0,0.0,0.0,0.0,0.0,0.0,0.0,0.0,0.0,0.0,6.5897,6.5897,6.5936,6.5897,6.5897,6.5974,6.5936,6.6282,6.709,6.7167,6.7552,6.8436,6.9283,6.9744,6.9744,7.0514,7.0898,7.0898,7.0898,7.0898,7.0898,7.0898,7.0898,7.0898,7.0898,7.0898,7.0898,7.0898,7.0898,7.0898,7.0898,7.0898,7.0898,7.0898,7.0898,7.0898,7.0898,7.0898,7.0898,7.0898,7.0898,7.0898,7.0898,7.0898,7.0898,7.0898,7.1514,7.2168,7.2168,7.2822,7.3476,7.3476,7.3462,7.3745,7.4514,7.4668,7.4976,7.5784,7.6669,7.7284,7.7284,7.8669,7.9746,7.9746,8.0516,8.1054,8.1054,8.1093,8.1093,0.0,8.1093,8.1093,8.1093,8.1093,8.1093,8.1093,8.1093,8.1093,8.1093,8.1093,8.1093,8.1093,8.1093,8.1093,8.1093,8.1093,8.1093,8.1093,8.1093,8.1093,8.1093,8.1093,8.1093,8.1093,8.1093,8.1093,8.1093,8.1093,8.1093,8.1093,8.1093,8.1093,8.1093,0.0,0.0,0.0,0.0,0.0,0.0,0.0,0.0,0.0,0.0,0.0,0.0,0.0,0.0,0.0,0.0,6.5551,6.5897,6.5897,6.5897,6.6013,6.6282,6.6821,6.7244,6.7513,6.8398,6.8859,6.8859,6.9706,7.009,7.0129,7.0667,7.0898,7.0898,7.0898,7.0898,7.0898,7.0898,7.0898,7.0898,7.0898,7.0898,7.0898,7.0898,7.0898,7.0898,0.0,7.0898,7.0898,7.0898,7.0898,7.0898,7.0898,7.0898,7.0898,7.0898,7.0898,7.1014,7.1591,7.1975,7.2322,7.2937,7.3668,7.4322,7.4322,7.4745,7.5245,7.5515,7.5553,7.5822,7.6707,7.7092,7.7669,7.8784,7.9438,8.0015,8.0592,8.0939,8.1093,8.1093,8.1093,0.0,0.0,0.0,0.0,8.1093,8.1093,8.1093,8.1093,8.1093,8.1093,8.1093,8.1093,8.1093,8.1093,8.1093,8.1093,8.1093,8.1093,8.1093,8.1093,8.1093,8.1093,8.1093,8.1093,8.1093,8.1093,8.1093,8.1093,8.1093,8.1093,8.1093,8.1093,8.1093,8.1093,8.1093,0.0,0.0,0.0,0.0,0.0,0.0,0.0,0.0,0.0,0.0,0.0,0.0,0.0,0.0,0.0,0.0,0.0,6.5436,6.5436,6.5743,6.5897,6.5897,6.6397,6.6667,6.6667,6.7513,6.7936,6.7936,6.8821,6.9244,6.9244,7.009,7.0475,7.0475,7.0783,7.0898,7.0898,7.0898,7.0898,7.0898,7.0898,7.0898,7.0898,7.0898,7.0898,0.0,7.0898,7.0898,7.0898,7.0898,7.0898,7.0898,7.0898,7.0898,7.0898,7.0898,7.1129,7.1475,7.2052,7.2629,7.3245,7.3783,7.4553,7.5168,7.5168,7.5592,7.6015,7.6015,7.6015,7.6284,7.713,7.7515,7.8169,7.9592,8.0054,8.0477,8.1016,8.1093,8.1093,8.1093,8.1093,8.1093,0.0,0.0,0.0,8.1093,8.1093,8.1093,8.1093,8.1093,8.1093,8.1093,8.1093,8.1093,8.1093,8.1093,8.1093,8.1093,8.1093,8.1093,8.1093,8.1093,8.1093,8.1093,8.1093,8.1093,8.1093,8.1093,8.1093,8.1093,8.1093,8.1093,8.1093,8.1093,8.1093,8.1093,0.0,0.0,0.0,0.0,0.0,0.0,0.0,0.0,0.0,0.0,0.0,0.0,0.0,0.0,0.0,0.0,0.0,0.0,6.4551,6.5359,6.582,6.582,6.5859,6.5897,6.5897,6.6628,6.7051,6.7051,6.7898,6.8321,6.8359,6.9283,6.9706,6.9744,7.0552,7.0898,7.0898,7.0898,7.0898,7.0898,7.0898,7.0898,7.0898,7.0898,7.0898,7.0898,7.0898,7.0898,7.0898,7.0898,7.0898,7.0898,7.0898,7.0898,7.0898,7.0937,7.1552,7.2206,7.2283,7.3476,7.4707,7.4784,7.5399,7.6015,7.6015,7.6015,7.6015,7.6015,7.6015,7.6284,7.7169,7.7977,7.8784,7.9708,8.0554,8.1093,8.1093,8.1093,8.1093,8.1093,8.1093,8.1093,0.0,0.0,0.0,8.1093,0.0,8.1093,8.1093,8.1093,8.1093,8.1093,8.1093,8.1093,8.1093,8.1093,8.1093,8.1093,8.1093,8.1093,8.1093,8.1093,8.1093,8.1093,8.1093,8.1093,8.1093,8.1093,8.1093,8.1093,8.1093,8.1093,8.1093,8.1093,8.1093,8.1093,0.0,0.0,0.0,0.0,0.0,0.0,0.0,0.0,0.0,0.0,0.0,0.0,0.0,0.0,0.0,0.0,0.0,0.0,6.3628,6.4436,6.4936,6.4936,6.5551,6.5897,6.5897,6.609,6.6205,6.6205,6.7013,6.7436,6.7475,6.8975,6.9706,6.9744,7.0552,7.0898,7.0898,7.0898,7.0898,7.0898,7.0898,7.0898,7.0898,7.0898,7.0898,7.0898,7.0898,7.0898,7.0898,7.0898,7.0898,7.0898,7.0898,7.0898,7.1014,7.1668,7.2014,7.2476,7.3707,7.4361,7.4861,7.5515,7.5822,7.6015,7.6015,7.6015,7.6015,7.6015,7.6015,7.6438,7.79,7.8361,7.8977,8.0516,8.0977,8.1093,8.1093,8.1093,8.1093,8.1093,8.1093,8.1093,8.1093,8.1093,0.0,0.0,8.1093,8.1093,8.1093,8.1093,8.1093,8.1093,8.1093,8.1093,8.1093,8.1093,8.1093,8.1093,8.1093,8.1093,8.1093,8.1093,8.1093,8.1093,8.1093,8.1093,8.1093,8.1093,8.1093,8.1093,8.1093,8.1093,8.1093,8.1093,8.1093,8.1093,0.0,0.0,0.0,0.0,0.0,0.0,0.0,0.0,0.0,0.0,0.0,0.0,0.0,0.0,0.0,0.0,0.0,0.0,0.0,6.3438,6.4051,6.4051,6.4859,6.532,6.532,6.5705,6.5897,6.5897,6.6359,6.6551,6.659,6.7936,6.8552,6.859,6.9436,7.0014,7.036,7.036,7.0591,0.0,0.0,7.0898,7.0898,7.0898,7.0898,7.0898,7.0898,7.0898,7.0898,7.0898,7.0898,7.0898,7.0898,7.1168,7.1552,7.2052,7.2706,7.3514,7.4437,7.4976,7.5399,7.5861,7.6015,7.6015,7.6015,7.6015,7.6015,7.6015,7.6015,7.6515,7.8169,7.8477,7.9054,8.0823,8.1093,8.1093,8.1093,8.1093,8.1093,8.1093,8.1093,8.1093,8.1093,8.1093,8.1093,0.0,8.1093,8.1093,8.1093,8.1093,8.1093,8.1093,8.1093,8.1093,8.1093,8.1093,8.1093,8.1093,8.1093,8.1093,8.1093,8.1093,8.1093,8.1093,0.0,8.1093,8.1093,8.1093,8.1093,8.1093,8.1093,8.1093,8.1093,8.1093,8.1093,8.1093,0.0,0.0,0.0,0.0,0.0,0.0,0.0,0.0,0.0,0.0,0.0,0.0,0.0,0.0,0.0,0.0,0.0,0.0,0.0,0.0,6.3053,6.3053,6.3949,6.4474,6.4589,6.532,6.5782,6.5897,6.5897,6.5897,6.5897,6.6705,6.709,6.7128,6.8013,6.8821,6.9513,6.9513,7.0014,7.0744,7.0744,7.0783,7.0898,0.0,7.0898,7.0898,7.0898,7.0898,7.0898,7.0898,7.0898,7.0898,7.0898,7.1514,7.2206,7.2322,7.3476,7.4745,7.4861,7.5438,7.6015,7.6015,7.6015,7.6015,7.6015,7.6015,7.6015,7.6015,7.6015,7.6515,7.8169,7.8477,7.9054,8.0823,8.1093,8.1093,8.1093,8.1093,8.1093,8.1093,8.1093,8.1093,8.1093,8.1093,8.1093,8.1093,8.1093,8.1093,8.1093,8.1093,8.1093,8.1093,8.1093,8.1093,8.1093,8.1093,8.1093,8.1093,8.1093,8.1093,8.1093,8.1093,8.1093,8.1093,8.1093,0.0,8.1093,8.1093,8.1093,8.1093,8.1093,8.117,8.1246,8.1246,8.1323,8.1439,0.0,0.0,0.0,0.0,0.0,0.0,0.0,0.0,0.0,0.0,0.0,0.0,0.0,0.0,0.0,0.0,0.0,0.0,0.0,0.0,0.0,6.1707,6.2874,6.3858,6.4589,6.4743,6.5166,6.5897,6.5897,6.5897,6.5897,6.6705,6.709,6.7128,6.8013,6.8475,6.8629,6.8629,6.9129,6.9898,6.9898,7.0321,7.0898,7.0898,0.0,0.0,7.0898,7.0898,7.0898,7.0898,7.0898,7.0898,7.0898,7.1514,7.2322,7.3053,7.3937,7.4861,7.5592,7.5861,7.6015,7.6015,7.6015,7.6015,7.6015,7.6015,7.6015,7.6015,7.6015,7.6515,7.8169,7.8477,7.9054,8.0823,8.1093,8.1093,8.1093,8.1093,8.1093,8.1093,8.1093,8.1093,8.1093,8.1093,0.0,0.0,8.1093,8.1093,8.1093,8.1093,8.1093,8.1093,8.1093,8.1093,8.1093,8.1093,8.1093,8.1093,8.1093,8.1093,8.1093,8.1093,8.1093,8.1093,8.1093,0.0,8.1093,8.1093,8.1093,8.1093,8.1093,8.1516,8.2093,8.2093,8.2554,8.317,0.0,0.0,0.0,0.0,0.0,0.0,0.0,0.0,0.0,0.0,5.7997,5.7997,0.0,0.0,0.0,0.0,0.0,0.0,0.0,0.0,0.0,6.0367,6.1602,6.2525,6.2908,6.404,6.4782,6.5205,0.0,6.5897,6.5897,6.6282,6.6474,6.6474,6.6898,6.7321,6.7705,6.7705,6.8244,6.9052,6.9513,6.9937,7.0321,0.0,0.0,0.0,7.0898,7.0898,7.0898,7.0898,7.0898,7.0898,7.0898,7.1822,7.2976,7.3399,7.4399,7.5476,7.5899,7.6015,7.6015,7.6015,7.6015,7.6015,7.6015,7.6015,7.6015,7.6015,7.6015,7.6361,7.763,7.8207,7.89,8.0208,8.0785,8.1093,8.1093,8.1093,8.1093,8.1093,8.1093,8.1093,8.1093,8.1093,8.1093,8.1093,8.1093,8.1093,8.1093,8.1093,8.1093,8.1093,8.1093,8.1093,8.1093,8.1093,8.1093,8.1093,8.1093,8.1093,8.1093,8.1093,8.1093,8.1093,8.1093,0.0,8.1708,8.1708,8.1977,8.2401,8.2401,8.2631,8.2978,8.2978,8.3247,8.3593,0.0,0.0,0.0,0.0,0.0,0.0,0.0,5.7522,5.7997,5.7997,5.7997,5.7997,5.7997,5.7997,0.0,0.0,0.0,0.0,0.0,0.0,0.0,0.0,0.0,6.1066,6.1256,0.0,0.0,6.4449,6.514,0.0,0.0,0.0,0.0,0.0,6.5897,6.6244,6.6821,6.6821,6.7321,0.0,0.0,6.9244,0.0,0.0,0.0,0.0,0.0,7.0898,7.0898,7.0898,7.0898,7.0898,7.0898,7.1975,7.3245,7.3437,7.4553,7.5745,7.5938,7.6015,7.6015,7.6015,7.6015,7.6015,7.6015,7.6015,7.6015,7.6015,7.6015,7.6284,7.713,7.7938,7.8784,7.9669,8.0516,8.1093,8.1093,8.1093,8.1093,8.1093,8.1093,8.1093,8.1093,8.1093,0.0,8.1093,8.1093,8.1093,8.1093,8.1093,8.1093,8.1093,8.1093,8.1093,8.1093,8.1093,8.1093,8.1093,8.1093,8.1093,8.1093,8.1093,8.1093,8.1093,8.1285,0.0,0.0,8.2516,8.2978,8.3593,8.3593,8.3708,8.3862,8.3862,8.3978,8.4132,0.0,0.0,0.0,0.0,0.0,0.0,0.0,5.7522,5.7997,5.7997,5.7997,5.7997,5.7997,5.7997,0.0,0.0,0.0,0.0,0.0,0.0,0.0,0.0,0.0,0.0,0.0,0.0,0.0,6.397,6.4046,0.0,0.0,0.0,0.0,0.0,0.0,6.5936,6.6013,6.6013,0.0,0.0,0.0,0.0,0.0,0.0,0.0,0.0,0.0,7.0898,7.0898,7.0898,7.0898,7.0898,7.0898,7.1552,7.2476,7.3283,7.413,7.4976,7.5784,7.6015,7.6015,7.6015,7.6015,7.6015,7.6015,7.6015,7.6015,7.6015,7.6015,7.6284,7.713,7.7938,7.8784,7.9669,8.0516,8.1093,8.1093,8.1093,8.1093,8.1093,8.1093,8.1093,8.1093,8.1093,8.1093,8.1093,8.1093,0.0,8.1093,8.1093,8.1093,8.1093,8.1093,8.1093,8.1093,8.1093,8.1093,8.1093,8.1093,8.1093,8.1093,8.1093,8.1093,8.1131,8.1862,0.0,0.0,8.3131,8.3516,8.3593,8.3593,8.4093,8.4786,8.4786,8.5247,8.5863,0.0,0.0,0.0,0.0,0.0,0.0,0.0,5.7522,5.7997,5.7997,5.7997,5.7997,5.7997,5.7997,0.0,0.0,0.0,0.0,0.0,0.0,0.0,0.0,0.0,0.0,0.0,0.0,6.1114,6.1982,6.2952,0.0,0.0,0.0,0.0,0.0,0.0,6.5583,6.5897,6.5897,0.0,0.0,0.0,0.0,0.0,0.0,0.0,0.0,0.0,0.0,7.0898,7.0898,7.0898,7.0898,7.0898,7.1129,7.1591,7.2476,7.3322,7.4168,7.4976,7.5207,7.5361,7.5861,7.6015,7.6015,7.6015,7.6015,7.6015,7.6015,7.6015,7.6092,7.6438,7.7207,7.8054,7.8861,7.9746,8.0516,8.1016,8.1093,8.1093,8.1093,8.1093,8.1093,0.0,0.0,8.1093,8.1093,8.1093,0.0,8.1093,8.1093,8.1093,8.1093,8.1093,8.1093,8.1093,8.1093,8.1093,8.1093,8.1093,8.1093,8.1093,8.1093,8.1093,8.1131,8.1939,0.0,0.0,8.4016,8.467,8.5093,8.5093,8.5324,8.5632,8.5632,8.5824,8.6094,0.0,0.0,0.0,0.0,0.0,0.0,5.6447,5.7364,5.7997,5.7997,5.7997,5.7997,5.7997,5.7997,5.7997,5.7997,0.0,0.0,0.0,0.0,0.0,0.0,0.0,0.0,0.0,0.0,6.0079,6.051,6.1638,6.2485,0.0,0.0,6.4416,6.5099,0.0,0.0,0.0,0.0,0.0,0.0,0.0,0.0,0.0,0.0,0.0,0.0,0.0,0.0,0.0,0.0,0.0,7.0206,7.0475,7.0552,7.0744,7.186,7.2629,7.3283,7.413,7.4514,7.4861,7.5476,7.5822,7.6015,7.6015,7.6015,7.6015,7.6015,7.6015,7.6015,7.6015,7.6707,7.7553,7.8361,7.9246,8.0092,8.0977,8.1093,8.1093,8.1093,8.1093,8.1093,8.1093,8.1093,8.1093,8.1093,8.1093,0.0,8.1093,8.1093,8.1093,8.1093,8.1093,8.1093,8.1093,8.1093,8.1093,8.1093,8.1093,8.1093,8.1093,8.1093,8.1093,8.1131,8.1939,0.0,0.0,8.4555,8.5363,8.6094,8.6094,8.6094,8.6094,8.6094,8.6094,8.6094,0.0,0.0,0.0,0.0,0.0,0.0,0.0,5.7029,5.7997,5.7997,5.7997,5.7997,5.7997,5.7997,5.7997,5.7997,0.0,0.0,0.0,0.0,0.0,0.0,0.0,0.0,0.0,0.0,5.8666,6.0004,6.0004,6.1069,6.3105,6.3105,6.3827,6.5099,0.0,0.0,0.0,0.0,0.0,0.0,0.0,0.0,0.0,0.0,0.0,0.0,0.0,0.0,0.0,0.0,0.0,0.0,0.0,6.9706,7.0052,7.1706,7.2206,7.2399,7.3283,7.4091,7.4707,7.4707,7.5361,7.6015,7.6015,7.6015,7.6015,7.6015,7.6015,7.6015,7.6015,7.6707,7.7553,7.8361,7.9246,8.0092,8.0977,8.1093,8.1093,8.1093,8.1093,8.1093,8.1093,8.1093,8.1093,8.1093,8.1093,0.0,8.1093,8.1093,8.1093,8.1093,8.1093,8.1093,8.1093,8.1093,8.1093,8.1093,8.1093,8.1093,8.1093,8.1093,8.1093,0.0,0.0,0.0,0.0,8.4555,8.5363,8.6094,8.6094,8.6094,8.6094,8.6094,8.6094,8.6094,0.0,0.0,0.0,0.0,0.0,0.0,0.0,5.6902,5.7425,5.795,5.7997,5.7997,5.7997,5.7997,0.0,5.7997,0.0,0.0,0.0,0.0,0.0,0.0,0.0,0.0,0.0,0.0,5.8221,5.8644,5.9175,5.9782,6.0462,6.1575,6.2476,6.3292,6.4198,6.4904,0.0,0.0,0.0,0.0,0.0,0.0,0.0,0.0,0.0,0.0,0.0,0.0,0.0,0.0,0.0,0.0,0.0,0.0,0.0,7.0975,7.1321,7.1514,7.236,7.2783,7.3129,7.3745,7.4514,7.513,7.513,7.5553,7.6015,7.6015,7.6015,7.6015,7.6015,7.6245,7.6861,7.8246,7.8707,7.94,8.09,8.1093,8.1093,8.1093,8.1093,8.1093,0.0,0.0,8.1093,8.1093,8.1093,0.0,8.1093,8.1093,8.1093,8.1093,8.1093,8.1093,8.1093,8.1093,8.1093,8.1093,8.1093,8.1093,8.1093,8.1093,8.1093,0.0,0.0,0.0,0.0,8.4555,8.5363,8.6094,8.6094,8.6094,8.6094,8.6094,8.6094,8.6094,0.0,0.0,0.0,0.0,0.0,0.0,0.0,5.6695,5.7141,5.7927,5.7997,5.7997,5.7997,0.0,0.0,0.0,0.0,0.0,0.0,0.0,0.0,0.0,0.0,0.0,0.0,5.7997,5.7997,5.7997,5.851,5.8891,5.9221,6.0236,6.114,6.1997,6.3133,6.3898,0.0,0.0,0.0,0.0,0.0,0.0,6.5897,0.0,0.0,0.0,0.0,0.0,0.0,0.0,0.0,0.0,0.0,0.0,0.0,0.0,7.0667,7.1014,7.1552,7.1937,7.2322,7.286,7.363,7.4322,7.463,7.513,7.5592,7.5938,7.6015,7.6015,7.6015,7.6015,7.6438,7.7823,7.8284,7.8977,8.04,8.09,8.1093,8.1093,8.1093,0.0,0.0,8.1093,8.1093,8.1093,0.0,0.0,8.1093,8.1093,8.1093,8.1093,8.1093,8.1093,8.1093,8.1093,8.1093,8.1093,8.1093,8.1093,8.1093,8.1093,8.1093,0.0,0.0,0.0,0.0,8.4055,8.4901,8.567,8.5978,8.6094,8.6094,8.6094,8.6094,8.6094,0.0,0.0,0.0,0.0,0.0,0.0,0.0,0.0,0.0,0.0,0.0,5.795,5.7997,0.0,0.0,0.0,0.0,0.0,0.0,0.0,0.0,0.0,0.0,0.0,5.7997,5.7997,5.7997,5.7997,5.7997,5.84,5.9111,5.9148,5.984,6.1092,6.1917,6.2623,0.0,0.0,0.0,0.0,6.5897,6.5897,0.0,0.0,0.0,0.0,0.0,0.0,0.0,0.0,0.0,0.0,0.0,0.0,0.0,0.0,0.0,0.0,0.0,7.1475,7.2091,7.2091,7.2745,7.3591,7.4361,7.463,0.0,7.5745,7.5976,7.6015,7.6015,7.6015,7.6284,7.7169,7.7977,7.8784,7.9669,8.0554,8.1093,8.1093,8.1093,0.0,8.1093,8.1093,8.1093,8.1093,0.0,0.0,8.1093,8.1093,8.1093,8.1093,8.1093,8.1093,8.1093,8.1093,8.1093,8.1093,8.1093,8.1093,8.1093,8.1093,8.1093,0.0,0.0,0.0,0.0,8.317,8.4055,8.4978,8.5709,8.6055,8.6094,8.6094,8.6094,8.6094,0.0,0.0,0.0,0.0,0.0,0.0,0.0,0.0,0.0,0.0,0.0,5.7376,0.0,0.0,0.0,0.0,0.0,0.0,0.0,0.0,0.0,0.0,0.0,0.0,5.7997,5.7997,5.7997,5.7997,5.7997,5.8107,5.829,5.8891,5.9388,5.9697,6.0964,6.2061,0.0,0.0,0.0,0.0,6.5717,6.5897,0.0,0.0,0.0,0.0,6.5897,6.5897,0.0,0.0,0.0,0.0,0.0,0.0,0.0,0.0,7.0283,7.0898,7.0898,0.0,7.1206,7.1206,7.186,7.2552,0.0,7.3783,7.4784,7.4976,7.5553,7.6015,7.6015,7.6015,7.6284,7.7169,7.7977,7.8784,7.9669,8.0554,8.1093,8.1093,8.1093,8.1093,8.1093,8.1093,8.1093,8.1093,0.0,8.1093,8.1093,8.1093,8.1093,8.1093,8.1093,8.1093,8.1093,8.1093,8.1093,8.1093,8.1093,8.1093,8.1093,8.1093,8.1093,0.0,0.0,0.0,8.2324,8.2516,8.3516,8.4939,8.5132,8.5555,8.6094,8.6094,8.6094,8.6094,0.0,0.0,0.0,0.0,0.0,0.0,0.0,0.0,0.0,0.0,0.0,0.0,0.0,0.0,0.0,0.0,0.0,0.0,0.0,0.0,0.0,0.0,0.0,5.7997,5.7997,5.7997,5.7997,5.7997,5.7997,5.7997,5.7997,5.8437,5.8657,5.8694,5.9797,6.1018,0.0,0.0,0.0,0.0,6.4858,0.0,0.0,0.0,0.0,0.0,6.5897,6.5897,0.0,6.5897,6.5897,6.5974,0.0,0.0,0.0,0.0,6.9706,7.0437,7.0783,7.0898,7.0898,7.0898,7.1245,7.1706,7.2091,7.3206,7.4245,7.463,7.5399,7.6015,7.6015,7.6015,7.613,7.663,7.7707,7.8938,8.0208,8.0785,8.1093,8.1093,8.1093,8.1093,0.0,8.1093,8.1093,0.0,0.0,8.1093,8.1093,8.1093,8.1093,8.1093,8.1093,8.1093,8.1093,8.1093,8.1093,8.1093,8.1093,8.1093,8.1093,8.1093,8.1093,0.0,0.0,0.0,8.1785,8.2131,8.2862,8.3785,8.4593,8.517,8.5593,8.5978,8.6094,8.6094,0.0,0.0,0.0,0.0,0.0,0.0,0.0,0.0,0.0,0.0,0.0,0.0,0.0,0.0,0.0,0.0,0.0,0.0,0.0,0.0,0.0,0.0,0.0,5.7997,5.7997,5.7997,5.7997,5.7997,5.7997,5.7997,5.7997,5.7997,5.7997,5.8033,5.8731,5.9729,0.0,0.0,0.0,0.0,6.3634,0.0,0.0,0.0,0.0,0.0,0.0,0.0,0.0,6.5897,6.5897,6.5897,6.5897,0.0,0.0,0.0,0.0,0.0,7.0667,7.0898,7.0898,7.0898,7.0898,7.1091,7.1822,7.2783,7.3707,7.4399,7.5322,7.6015,7.6015,7.6015,7.6015,7.6015,7.74,7.9092,8.0862,8.1093,8.1093,8.1093,8.1093,0.0,8.1093,8.1093,8.1093,0.0,0.0,8.1093,8.1093,8.1093,8.1093,8.1093,8.1093,8.1093,8.1093,8.1093,8.1093,8.1093,8.1093,8.1093,8.1093,8.1093,8.1093,8.1093,0.0,0.0,8.1131,8.1823,8.217,8.2439,8.4055,8.4786,8.5016,8.5786,8.6094,8.6094,0.0,0.0,0.0,0.0,0.0,0.0,0.0,0.0,0.0,0.0,0.0,0.0,0.0,0.0,0.0,0.0,0.0,0.0,0.0,0.0,0.0,5.7997,5.7997,5.7997,5.7997,5.7997,5.7997,5.7997,5.7997,5.7997,5.7997,5.7997,5.7997,5.7997,5.8143,5.8667,5.9541,0.0,0.0,6.1689,6.2466,0.0,0.0,0.0,0.0,0.0,0.0,0.0,0.0,6.5897,6.5897,6.5897,6.5897,0.0,0.0,0.0,0.0,0.0,7.0667,7.0898,7.0898,7.0898,7.0898,7.0937,7.1052,7.236,7.3538,7.3654,7.4938,7.6015,7.6015,7.6015,7.6015,7.6015,7.74,7.9092,8.0862,0.0,8.1093,8.1093,0.0,8.1093,8.1093,8.1093,8.1093,0.0,0.0,8.1093,8.1093,8.1093,8.1093,8.1093,8.1093,8.1093,8.1093,8.1093,8.1093,8.1093,8.1093,8.1093,8.1093,8.1093,8.1093,8.1093,0.0,8.1093,8.1093,8.1246,8.1708,8.2401,8.3401,8.4247,8.5016,8.5786,8.6094,8.6094,0.0,0.0,0.0,0.0,0.0,0.0,0.0,0.0,0.0,0.0,0.0,0.0,0.0,0.0,0.0,0.0,0.0,0.0,0.0,0.0,0.0,5.7997,5.7997,5.7997,5.7997,5.7997,5.7997,5.7997,5.7997,5.7997,5.7997,5.7997,5.7997,5.7997,5.7997,5.8217,5.857,5.8792,5.9694,6.0961,0.0,0.0,0.0,0.0,0.0,0.0,0.0,0.0,0.0,0.0,6.5897,6.5897,6.5897,0.0,0.0,0.0,0.0,0.0,7.0552,7.0898,7.0898,7.0898,7.0898,7.0898,7.0898,7.2245,7.3514,7.3514,7.4822,7.6015,7.6015,7.6015,7.6284,7.7207,7.7977,7.9092,8.0862,8.1093,8.1093,0.0,0.0,8.1093,8.1093,8.1093,0.0,0.0,0.0,0.0,8.1093,8.1093,8.1093,8.1093,8.1093,8.1093,8.1093,8.1093,8.1093,8.1093,8.1093,8.1093,8.1093,8.1093,8.1093,8.1093,0.0,8.1093,8.1093,8.1093,8.1323,8.1747,8.2554,8.3439,8.4362,8.5632,8.6094,8.6094,0.0,0.0,0.0,0.0,0.0,0.0,0.0,0.0,0.0,0.0,0.0,0.0,0.0,0.0,0.0,0.0,0.0,0.0,0.0,0.0,5.7997,5.7997,5.7997,5.7997,5.7997,5.7997,5.7997,5.7997,5.7997,5.7997,5.7997,5.7997,5.7997,5.7997,5.7997,5.7997,5.7997,5.7997,5.8837,6.0245,0.0,0.0,0.0,0.0,0.0,0.0,0.0,0.0,0.0,0.0,0.0,0.0,0.0,0.0,0.0,6.7667,6.8244,6.8744,7.0206,7.0744,7.0898,7.0898,7.0898,7.0937,7.1168,7.2399,7.3553,7.3745,7.4976,7.6015,7.6015,7.6015,7.6553,7.8207,7.8477,7.9092,8.0862,8.1093,8.1093,8.1093,8.1093,8.1093,8.1093,0.0,0.0,0.0,0.0,0.0,8.1093,8.1093,8.1093,8.1093,8.1093,8.1093,8.1093,8.1093,8.1093,8.1093,8.1093,8.1093,8.1093,8.1093,8.1093,8.1093,8.1093,8.1093,8.1093,8.1093,8.1093,8.117,8.1977,8.2939,8.4093,8.5555,8.6094,8.6094,0.0,0.0,0.0,0.0,0.0,0.0,0.0,0.0,0.0,0.0,0.0,0.0,0.0,0.0,0.0,0.0,0.0,0.0,0.0,0.0,5.7997,5.7997,5.7997,5.7997,5.7997,5.7997,5.7997,5.7997,5.7997,5.7997,5.7997,5.7997,5.7997,5.7997,5.7997,5.7997,5.7997,5.7997,5.8341,5.8888,5.9325,0.0,0.0,0.0,0.0,0.0,0.0,0.0,0.0,0.0,0.0,0.0,0.0,0.0,6.6051,6.6936,6.7782,6.859,6.9552,7.0321,7.0898,7.0898,7.0898,7.1091,7.1898,7.2822,7.3692,7.4476,7.5361,7.6015,7.6015,7.6015,7.6553,7.8207,7.8477,7.9092,8.0862,0.0,8.1093,8.1093,8.1093,8.1093,8.1093,0.0,0.0,0.0,0.0,0.0,8.1093,8.1093,8.1093,8.1093,8.1093,8.1093,8.1093,8.1093,8.1093,8.1093,8.1093,8.1093,8.1093,8.1093,8.1093,8.1093,8.1093,8.1093,8.1093,8.1093,8.1093,8.117,8.1977,8.3324,8.4901,8.5786,8.6094,8.6094,0.0,0.0,0.0,0.0,0.0,0.0,0.0,0.0,0.0,0.0,0.0,0.0,0.0,0.0,0.0,0.0,0.0,0.0,0.0,5.7997,5.7997,5.7997,5.7997,5.7997,5.7997,5.7997,5.7997,5.7997,5.7997,5.7997,5.7997,5.7997,5.7997,5.7997,5.7997,5.7997,5.802,5.8326,5.8713,5.9158,5.9625,6.0118,0.0,0.0,0.0,0.0,0.0,0.0,0.0,0.0,6.5436,6.5897,6.5897,6.5897,6.6051,6.6859,6.7705,6.859,6.9475,7.0283,7.0898,7.0898,7.0898,7.1129,7.2014,7.286,7.3745,7.4553,7.5399,7.6015,7.6015,7.6015,7.6553,7.8207,7.8477,7.9092,8.0862,8.1093,8.1093,8.1093,8.1093,8.1093,0.0,0.0,0.0,0.0,0.0,0.0,8.1093,8.1093,8.1093,8.1093,8.1093,8.1093,8.1093,8.1093,8.1093,8.1093,8.1093,8.1093,8.1093,8.1093,8.1093,8.1093,8.1093,8.1093,8.1093,8.1093,8.1093,8.1246,8.2593,8.3516,8.4247,8.5593,8.6094,8.6094,0.0,0.0,0.0,0.0,0.0,0.0,0.0,0.0,0.0,0.0,0.0,0.0,0.0,0.0,0.0,0.0,0.0,0.0,5.7997,5.7997,5.7997,5.7997,5.7997,5.7997,5.7997,5.7997,5.7997,5.7997,5.7997,5.7997,5.7997,5.7997,5.7997,5.7997,5.7997,5.7997,5.802,5.8332,5.8736,5.9212,5.9674,6.0161,0.0,0.0,0.0,0.0,0.0,0.0,0.0,0.0,6.5166,6.5897,6.5897,6.5897,6.6013,6.6551,6.7513,6.8552,6.9129,7.009,7.0898,7.0898,7.0898,7.1206,7.236,7.3091,7.3822,7.4899,7.5592,7.6015,7.6015,7.6015,7.6553,7.8207,7.8477,7.9092,8.0862,8.1093,8.1093,8.1093,8.1093,0.0,0.0,0.0,0.0,0.0,0.0,0.0,0.0,8.1093,8.1093,8.1093,8.1093,8.1093,8.1093,8.1093,8.1093,8.1093,8.1093,8.1093,8.1093,8.1093,8.1093,8.1093,8.1093,8.1093,8.1093,8.1093,8.1093,8.1246,8.2631,8.3362,8.3747,8.5209,8.5901,8.6094,0.0,0.0,0.0,0.0,0.0,0.0,0.0,0.0,0.0,0.0,0.0,0.0,0.0,0.0,0.0,0.0,0.0,0.0,5.7997,5.7997,5.7997,5.7997,5.7997,5.7997,5.7997,5.7997,5.7997,5.7997,5.7997,5.7997,5.7997,5.7997,5.7997,5.7997,5.7997,5.7997,5.7997,5.7997,5.8282,5.8716,5.9212,5.9712,6.0146,0.0,0.0,0.0,0.0,0.0,0.0,0.0,6.5166,6.5897,6.5897,6.5897,6.5897,6.5897,6.709,6.8385,6.8385,6.9629,7.0898,7.0898,7.0898,7.136,7.3091,7.3514,7.3976,7.5668,7.6015,7.6015,7.6015,7.6015,7.6553,7.8207,7.8477,7.9092,8.0823,8.1093,8.1093,8.1093,8.1093,0.0,0.0,0.0,0.0,0.0,0.0,0.0,0.0,8.1093,8.1093,8.1093,8.1093,8.1093,8.1093,8.1093,8.1093,8.1093,8.1093,8.1093,8.1093,8.1093,8.1093,8.1093,8.1093,8.1093,8.1093,8.1093,8.1093,8.117,8.1977,8.2824,8.3708,8.4593,8.5401,8.6094,0.0,0.0,0.0,0.0,0.0,0.0,0.0,0.0,0.0,0.0,0.0,0.0,0.0,0.0,0.0,0.0,0.0,0.0,5.7997,5.7997,5.7997,5.7997,5.7997,5.7997,5.7997,5.7997,5.7997,5.7997,5.7997,5.7997,5.7997,5.7997,5.7997,5.7997,5.7997,5.7997,5.802,5.8332,5.857,5.8756,5.9559,5.9962,6.0146,0.0,0.0,0.0,0.0,0.0,0.0,0.0,0.0,0.0,6.5705,6.5897,6.5897,6.5897,6.709,6.8385,6.8385,6.9629,7.0898,7.0898,7.0898,7.136,7.3091,7.3514,7.3976,7.5668,7.6015,7.6015,7.6015,7.6015,7.6361,7.7476,7.813,7.89,8.0015,8.0708,8.1093,8.1093,8.1093,0.0,0.0,0.0,0.0,0.0,0.0,0.0,0.0,8.1093,8.1093,8.1093,8.1093,8.1093,8.1093,8.1093,8.1093,8.1093,8.1093,8.1093,8.1093,8.1093,8.1093,8.1093,8.1093,8.1093,8.1093,8.1093,8.1093,8.117,8.1977,8.2824,8.3708,8.4593,8.5401,8.6094,0.0,0.0,0.0,0.0,0.0,0.0,0.0,0.0,0.0,0.0,5.5232,5.6004,0.0,0.0,0.0,0.0,0.0,0.0,0.0,5.7997,5.7997,5.7997,5.7997,5.7997,5.7997,5.7997,5.7997,5.7997,5.7997,5.7997,5.7997,5.7997,5.7997,5.7997,5.7997,5.7997,5.802,5.8304,5.8418,5.8487,5.9441,5.9823,5.9885,0.0,0.0,0.0,0.0,0.0,0.0,0.0,0.0,0.0,6.5628,6.5897,6.5897,6.5897,6.709,6.8385,6.8385,6.9629,7.0898,7.0898,7.0898,7.136,7.3091,7.4014,7.4784,7.5784,7.6015,7.6015,7.6015,7.6015,0.0,7.7169,7.7977,7.8784,7.9669,8.0554,8.1093,8.1093,0.0,0.0,0.0,0.0,0.0,0.0,0.0,0.0,0.0,8.1093,8.1093,8.1093,8.1093,8.1093,8.1093,8.1093,8.1093,8.1093,8.1093,8.1093,8.1093,8.1093,8.1093,8.1093,8.1093,8.1093,8.1093,8.1093,8.1093,8.1131,8.1631,8.2554,8.367,8.417,8.5093,8.6094,0.0,0.0,0.0,0.0,0.0,0.0,0.0,0.0,0.0,0.0,5.5232,5.6004,0.0,0.0,0.0,0.0,0.0,0.0,0.0,0.0,5.7997,5.7997,5.7997,5.7997,5.7997,5.7997,5.7997,5.7997,5.7997,5.7997,5.7997,5.7997,5.7997,5.7997,5.7997,5.7997,5.7997,5.7997,5.7997,5.8074,5.9009,5.9389,5.9492,6.0456,0.0,0.0,0.0,0.0,0.0,0.0,0.0,0.0,6.5513,6.582,6.5897,6.5897,6.7013,6.8321,6.8385,6.959,7.0821,7.0898,7.1014,7.1552,7.3129,7.4822,7.6015,7.6015,7.6015,7.6015,7.6015,7.6015,7.6245,7.7053,7.79,7.8784,7.9592,8.0516,8.1093,8.1093,0.0,0.0,0.0,0.0,0.0,0.0,0.0,0.0,0.0,8.1093,8.1093,8.1093,8.1093,8.1093,8.1093,8.1093,8.1093,8.1093,8.1093,8.1093,8.1093,8.1093,8.1093,8.1093,8.1093,8.1093,8.1093,8.1093,8.1093,8.1093,8.1093,8.2131,8.3593,8.3593,8.467,8.6094,0.0,0.0,0.0,0.0,0.0,0.0,0.0,0.0,0.0,0.0,0.0,0.0,0.0,0.0,0.0,0.0,0.0,0.0,0.0,0.0,5.7997,5.7997,5.7997,5.7997,5.7997,5.7997,5.7997,5.7997,5.7997,5.7997,5.7997,5.7997,5.7997,5.7997,5.7997,5.7997,5.7997,5.7997,5.7997,5.8074,5.9009,5.9389,5.9492,6.0456,6.0781,0.0,0.0,0.0,0.0,0.0,0.0,0.0,6.4589,6.5359,6.5897,6.5897,6.659,6.7513,6.8205,6.9167,7.0129,7.0744,7.1937,7.3053,7.3399,7.4822,7.6015,7.6015,7.6015,7.6015,7.6015,7.6015,7.6053,7.6245,7.7515,7.8554,7.8746,8.0131,8.1093,0.0,0.0,0.0,0.0,0.0,0.0,0.0,0.0,0.0,8.1093,8.1093,8.1093,8.1093,8.1093,8.1093,8.1093,8.1093,8.1093,0.0,8.1093,8.1093,8.1093,8.1093,8.1093,8.1093,8.1093,8.1093,8.1093,8.1093,8.1093,8.1093,8.1093,8.2131,8.3593,8.3593,8.467,8.6094,0.0,0.0,0.0,0.0,0.0,0.0,0.0,0.0,0.0,0.0,0.0,0.0,0.0,0.0,0.0,0.0,0.0,0.0,0.0,0.0,0.0,5.7997,5.7997,5.7997,5.7997,5.7997,5.7997,5.7997,5.7997,5.7997,5.7997,5.7997,5.7997,5.7997,5.7997,5.7997,5.7997,5.7997,5.7997,5.8051,5.8776,5.9194,5.9475,6.0189,6.061,6.0781,6.0781,0.0,0.0,0.0,0.0,0.0,0.0,0.0,6.5897,6.5897,6.6474,6.7282,6.8167,6.9052,6.9898,7.0706,7.1898,7.2976,7.3399,7.4476,7.5515,7.5899,7.6015,7.6015,7.6015,7.6015,7.6015,7.6015,7.7092,7.8054,7.8438,7.9631,0.0,0.0,0.0,0.0,0.0,0.0,0.0,0.0,0.0,8.1093,8.1093,8.1093,8.1093,8.1093,8.1093,8.1093,8.1093,8.1093,8.1093,8.1093,8.1093,8.1093,8.1093,8.1093,8.1093,8.1093,8.1093,8.1093,8.1093,8.1093,8.1093,8.1093,8.1093,8.2131,8.3593,8.3593,8.467,8.6094,0.0,0.0,0.0,0.0,0.0,0.0,0.0,0.0,0.0,0.0,0.0,0.0,0.0,0.0,0.0,0.0,0.0,0.0,0.0,0.0,0.0,0.0,5.7997,5.7997,5.7997,5.7997,0.0,5.7997,5.7997,5.7997,5.7997,5.7997,5.7997,5.7997,5.7997,5.7997,5.7997,5.7997,5.7997,5.8042,5.8487,5.8932,5.9337,5.9885,6.0338,6.0671,6.0769,6.0781,6.0896,6.1639,0.0,0.0,0.0,0.0,6.5705,6.5859,6.6359,6.709,6.7936,6.8936,6.9898,7.0706,7.1552,7.2437,7.3322,7.413,7.4938,7.5822,7.6015,7.6015,7.6015,7.6015,7.6015,7.6015,7.6746,7.7592,7.84,7.9246,0.0,0.0,0.0,0.0,0.0,0.0,0.0,0.0,0.0,8.1093,8.1093,8.1093,8.1093,8.1093,8.1093,8.1093,8.1093,8.1093,8.1093,8.1093,8.1093,8.1093,8.1093,8.1093,8.1093,8.1093,8.1093,8.1093,8.1093,8.1093,8.1093,8.1093,8.1093,8.2131,8.3593,8.3593,8.467,8.6094,0.0,0.0,0.0,0.0,0.0,0.0,0.0,0.0,0.0,0.0,5.5291,5.6031,0.0,0.0,0.0,0.0,0.0,0.0,0.0,0.0,0.0,5.7997,5.7997,5.7997,5.7997,5.7997,0.0,5.7997,5.7997,5.7997,5.7997,5.7997,5.7997,5.7997,5.7997,5.7997,5.7997,5.7997,5.7997,5.8042,5.8487,5.8716,5.8894,5.9776,6.0146,6.0269,6.0647,6.0781,6.0819,6.0935,6.155,0.0,0.0,0.0,6.4936,6.5667,6.5974,6.6244,6.7051,6.8475,6.9898,7.0706,7.1552,7.2437,7.3322,7.413,7.4938,7.5822,7.6015,7.6015,7.6015,7.6015,7.6015,7.6015,7.6746,7.7592,7.84,7.9246,0.0,0.0,0.0,0.0,0.0,0.0,0.0,0.0,8.1093,8.1093,8.1093,8.1093,8.1093,8.1093,8.1093,8.1093,8.1093,8.1093,8.1093,8.1093,8.1093,8.1093,8.1093,8.1093,8.1093,8.1093,8.1093,8.1093,8.1093,8.1093,8.1093,8.1093,8.1093,8.2131,8.3593,8.3593,8.467,8.6094,0.0,0.0,0.0,0.0,0.0,0.0,0.0,0.0,0.0,0.0,0.0,5.6004,0.0,0.0,0.0,5.7997,0.0,0.0,0.0,0.0,0.0,5.7997,5.7997,5.7997,5.7997,5.7997,5.7997,5.7997,5.7997,5.7997,5.7997,5.7997,5.7997,5.7997,5.7997,5.7997,5.7997,5.7997,5.7997,5.802,5.8216,5.8482,5.8773,5.9139,5.9625,6.0132,6.0338,6.0597,6.0781,6.0781,6.1358,6.2243,6.3051,0.0,0.0,0.0,6.5897,6.6167,6.7475,6.8744,6.9898,7.0706,7.1206,7.1706,7.2552,7.3437,7.4284,7.5091,7.5668,7.6015,7.6015,7.6015,7.6015,7.6015,7.6322,7.7015,7.8323,7.8823,0.0,0.0,0.0,0.0,0.0,0.0,0.0,0.0,8.1093,8.1093,8.1093,8.1093,8.1093,8.1093,8.1093,8.1093,8.1093,8.1093,8.1093,8.1093,8.1093,8.1093,8.1093,8.1093,8.1093,8.1093,8.1093,8.1093,8.1093,8.1093,8.1093,8.1093,8.1093,8.1823,8.2939,8.3401,8.4362,8.5478,0.0,0.0,0.0,0.0,0.0,0.0,0.0,0.0,0.0,0.0,0.0,0.0,0.0,0.0,0.0,0.0,5.7997,0.0,0.0,0.0,0.0,5.7997,5.7997,5.7997,5.7997,5.7997,5.7997,5.7997,5.7997,5.7997,5.7997,5.7997,5.7997,5.7997,5.7997,5.7997,5.7997,5.7997,5.7997,5.7997,5.7997,5.8194,5.8528,5.8652,5.9194,5.9931,6.0074,6.0391,6.0781,6.0781,6.1243,6.1935,6.2974,6.3743,0.0,0.0,0.0,6.6205,6.7667,6.8706,6.9578,7.0427,7.0773,7.1156,7.2058,7.2929,7.3745,7.4553,7.5399,7.6015,7.6015,7.6015,7.6015,7.6015,7.6015,7.6515,7.7977,7.8361,0.0,0.0,0.0,0.0,0.0,0.0,0.0,0.0,8.1093,8.1093,8.1093,8.1093,8.1093,8.1093,8.1093,8.1093,8.1093,8.1093,8.1093,8.1093,8.1093,8.1093,8.1093,8.1093,8.1093,8.1093,8.1093,8.1093,8.1093,8.1093,8.1093,8.1093,8.1093,8.1593,8.2401,8.3285,8.4132,8.5016,0.0,0.0,0.0,0.0,0.0,0.0,0.0,0.0,0.0,0.0,0.0,0.0,5.6887,5.7546,5.7997,5.7997,5.7997,5.7997,5.7997,5.7997,0.0,5.7997,5.7997,0.0,5.7997,5.7997,5.7997,5.7997,5.7997,5.7997,5.7997,5.7997,5.7997,5.7997,5.7997,5.7997,5.7997,5.7997,5.7997,5.7997,5.7997,5.802,5.8074,5.8508,5.9028,5.9492,5.9931,6.0391,6.0781,6.0781,6.0819,6.1166,6.2781,6.332,6.3705,0.0,0.0,0.0,6.6936,6.7782,6.8706,6.9705,7.0447,7.1184,7.2258,7.3021,7.3745,7.4553,7.5399,7.6015,7.6015,7.6015,7.6015,7.6015,7.6015,7.6322,7.7207,7.8015,0.0,0.0,0.0,0.0,0.0,0.0,0.0,0.0,8.1093,8.1093,8.1093,8.1093,8.1093,8.1093,8.1093,8.1093,8.1093,8.1093,8.1093,8.1093,8.1093,8.1093,8.1093,8.1093,8.1093,8.1093,8.1093,8.1093,8.1093,8.1093,8.1093,8.1093,8.1093,8.1593,8.2401,8.3285,8.4132,8.5016,0.0,0.0,0.0,0.0,0.0,0.0,0.0,0.0,0.0,0.0,0.0,0.0,0.0,5.7546,5.7997,5.7997,5.7997,5.7997,5.7997,5.7997,0.0,5.7997,5.7997,5.7997,5.7997,5.7997,5.7997,5.7997,5.7997,5.7997,5.7997,5.7997,5.7997,5.7997,5.7997,5.7997,5.7997,5.7997,5.7997,5.7997,5.7997,5.7997,5.802,5.8209,5.8528,5.9028,5.9475,5.9946,6.0378,0.0,0.0,6.182,6.2935,6.3666,6.4359,6.5551,6.5897,6.609,6.6859,6.7744,6.8616,6.9552,7.0337,7.1002,7.1403,7.2109,7.2899,7.3783,7.4591,7.5361,7.5899,7.6015,7.6015,7.6015,7.6015,7.6284,7.7169,7.7977,0.0,0.0,0.0,0.0,0.0,0.0,0.0,0.0,0.0,8.1093,8.1093,8.1093,8.1093,8.1093,8.1093,8.1093,8.1093,8.1093,8.1093,8.1093,8.1093,8.1093,8.1093,8.1093,8.1093,8.1093,8.1093,8.1093,8.1093,8.1093,8.1093,8.1093,8.1093,8.1285,8.1708,8.3093,8.3785,8.4247,0.0,0.0,0.0,0.0,0.0,0.0,0.0,0.0,0.0,5.6438,0.0,0.0,0.0,0.0,5.7997,5.7997,5.7997,5.7997,5.7997,5.7997,5.7997,5.7997,5.7997,5.7997,5.7997,5.7997,5.7997,5.7997,5.7997,5.7997,5.7997,5.7997,5.7997,5.7997,5.7997,5.7997,5.7997,5.7997,5.7997,5.7997,5.7997,5.7997,5.7997,5.7997,5.8452,5.9184,5.9644,0.0,0.0,0.0,0.0,6.2666,6.3474,6.432,6.5166,6.5743,6.5897,6.6013,6.6551,6.7321,6.8193,6.9116,6.9952,7.0579,7.0928,7.1608,7.236,7.2937,7.3937,7.4899,7.5476,7.5784,7.6015,7.6015,7.6015,7.6207,7.6784,0.0,0.0,0.0,0.0,0.0,0.0,0.0,0.0,0.0,0.0,0.0,8.1093,8.1093,8.1093,8.1093,8.1093,8.1093,8.1093,8.1093,8.1093,8.1093,8.1093,8.1093,8.1093,8.1093,8.1093,8.1093,8.1093,8.1093,8.1093,8.1093,8.1093,8.1093,8.1093,8.1093,8.1285,8.2978,8.3593,8.3824,0.0,0.0,0.0,0.0,0.0,0.0,0.0,0.0,5.7166,5.7927,0.0,0.0,0.0,0.0,0.0,5.7997,5.7997,5.7997,5.7997,5.7997,5.7997,5.7997,0.0,0.0,5.7997,5.7997,5.7997,5.7997,5.7997,5.7997,5.7997,5.7997,5.7997,5.7997,5.7997,5.7997,5.7997,5.7997,5.7997,5.7997,5.7997,5.7997,5.7997,5.8033,5.8799,5.9963,6.0491,6.1532,0.0,6.3105,0.0,0.0,6.4359,6.5205,6.5897,6.5897,6.5897,6.5897,0.0,0.0,0.0,6.8411,6.9185,6.9952,7.0954,7.1683,7.2168,7.2168,7.3514,7.4668,7.4707,7.5399,7.6015,7.6015,7.6015,7.6015,7.6015,0.0,0.0,0.0,0.0,0.0,0.0,0.0,0.0,0.0,8.1093,8.1093,8.1093,8.1093,8.1093,8.1093,8.1093,8.1093,8.1093,8.1093,8.1093,8.1093,8.1093,8.1093,8.1093,8.1093,8.1093,8.1093,8.1093,8.1093,8.1093,8.1093,8.1093,8.1093,8.1093,8.1093,8.1285,8.2978,8.3593,8.3824,0.0,0.0,0.0,0.0,0.0,0.0,5.757,5.7703,5.7774,0.0,0.0,0.0,5.7997,5.7997,5.7997,5.7997,5.7997,5.7997,5.7997,5.7997,5.7997,5.7997,5.7997,5.7997,5.7997,5.7997,5.7997,5.7997,5.7997,5.7997,5.7997,5.7997,5.7997,5.7997,5.7997,5.7997,5.7997,5.7997,5.7997,5.7997,5.7997,5.7997,5.807,5.8657,5.9081,0.0,0.0,6.1469,6.2163,0.0,6.3447,6.4397,0.0,6.5705,6.5897,6.5897,6.5897,6.5897,6.5897,0.0,0.0,0.0,0.0,0.0,7.0786,7.1119,7.1437,7.2052,7.3053,7.4014,7.4591,7.5399,7.6015,7.6015,7.6015,7.6015,7.6015,0.0,0.0,0.0,0.0,0.0,0.0,0.0,0.0,0.0,8.1093,8.1093,8.1093,8.1093,8.1093,8.1093,8.1093,8.1093,8.1093,8.1093,8.1093,8.1093,8.1093,8.1093,8.1093,8.1093,8.1093,8.1093,8.1093,8.1093,8.1093,8.1093,8.1093,8.1093,8.1093,8.1093,8.1285,8.2978,8.3593,8.3824,0.0,0.0,0.0,0.0,0.0,0.0,5.795,5.7997,5.7997,0.0,0.0,0.0,5.7997,5.7997,5.7997,5.7997,5.7997,5.7997,5.7997,5.7997,5.7997,5.7997,5.7997,5.7997,5.7997,5.7997,5.7997,5.7997,5.7997,5.7997,5.7997,5.7997,5.7997,5.7997,5.7997,5.7997,5.7997,5.7997,5.7997,5.7997,5.7997,5.8217,5.8547,5.9001,5.9625,0.0,0.0,0.0,6.271,6.3389,6.4298,0.0,0.0,0.0,0.0,6.5897,6.5897,0.0,0.0,0.0,6.6782,6.7667,0.0,0.0,7.0206,7.0667,7.1052,7.1552,7.236,7.3206,7.4053,7.4899,7.5592,7.5938,7.6015,7.6015,7.6015,0.0,0.0,0.0,0.0,0.0,0.0,8.1093,8.1093,8.1093,8.1093,8.1093,8.1093,8.1093,8.1093,8.1093,8.1093,8.1093,8.1093,8.1093,8.1093,8.1093,8.1093,8.1093,8.1093,8.1093,8.1093,8.1093,8.1093,8.1093,8.1093,8.1093,8.1093,8.1093,8.1093,8.1093,8.1285,8.2978,8.3593,8.3824,0.0,0.0,0.0,5.7997,5.7997,5.7997,5.7997,5.7997,5.7997,0.0,5.7997,5.7997,5.7997,5.7997,5.7997,5.7997,5.7997,5.7997,5.7997,5.7997,5.7997,5.7997,5.7997,5.7997,5.7997,5.7997,5.7997,5.7997,5.7997,5.7997,5.7997,5.7997,5.7997,5.7997,5.7997,5.7997,5.7997,5.7997,5.8033,5.8143,5.8143,5.8547,5.9221,0.0,6.0346,6.1667,6.225,6.2954,6.3745,6.4713,6.5359,0.0,0.0,0.0,0.0,0.0,6.5897,0.0,0.0,0.0,0.0,0.0,6.7744,0.0,6.9513,7.0321,7.0898,7.0898,7.1591,7.2437,7.3206,7.4091,7.4938,7.5745,7.5938,7.6015,7.6015,7.6669,0.0,0.0,0.0,0.0,8.1016,8.1093,8.1093,8.1093,8.1093,8.1093,8.1093,8.1093,8.1093,8.1093,8.1093,8.1093,8.1093,8.1093,8.1093,8.1093,8.1093,8.1093,8.1093,8.1093,8.1093,8.1093,8.1093,8.1093,8.1093,8.1093,8.1093,8.1093,8.1093,8.1093,8.1285,8.2978,8.3593,8.3824,0.0,0.0,0.0,5.7997,5.7997,5.7997,5.7997,5.7997,5.7997,5.7997,5.7997,5.7997,5.7997,5.7997,5.7997,5.7997,5.7997,5.7997,5.7997,5.7997,5.7997,5.7997,5.7997,5.7997,5.7997,5.7997,5.7997,5.7997,5.7997,5.7997,5.7997,5.7997,5.7997,5.7997,5.7997,5.7997,5.7997,5.7997,5.8364,5.8964,5.8964,5.9038,5.9331,6.0639,6.1337,6.1692,6.2475,6.309,6.368,6.4313,6.4628,6.4769,0.0,0.0,0.0,6.5781,0.0,0.0,0.0,0.0,0.0,0.0,0.0,0.0,6.9513,7.0321,7.0898,7.0898,7.1591,7.2245,7.2399,7.3668,7.4784,7.4938,7.5553,7.6015,7.6015,7.613,0.0,0.0,0.0,0.0,8.0939,8.1093,8.1093,8.1093,8.1093,8.1093,8.1093,8.1093,8.1093,8.1093,8.1093,8.1093,8.1093,8.1093,8.1093,8.1093,8.1093,8.1093,8.1093,8.1093,8.1093,8.1093,8.1093,8.1093,8.1093,8.1093,8.1093,8.1093,8.1093,8.1093,8.1285,8.2978,8.3593,8.3824,0.0,5.7997,5.7997,0.0,0.0,5.7997,5.7997,5.7997,5.7997,5.7997,5.7997,5.7997,5.7997,5.7997,5.7997,5.7997,5.7997,0.0,0.0,0.0,5.7997,5.7997,5.7997,5.7997,5.7997,5.7997,5.7997,5.7997,5.7997,5.7997,5.7997,5.7997,5.7997,5.7997,5.7997,5.7997,5.8033,5.8437,5.8817,5.9184,5.9184,0.0,6.0493,6.13,6.1851,6.2254,6.2658,6.3144,6.3637,6.3913,6.4158,0.0,0.0,6.49,6.5146,0.0,6.569,6.5897,0.0,0.0,0.0,6.6397,0.0,0.0,0.0,7.0014,7.0898,7.0898,7.1245,7.1668,7.2129,7.3245,7.4245,7.463,7.5438,7.6015,7.6015,7.6015,0.0,0.0,0.0,0.0,8.0323,8.0823,8.1093,8.1093,8.1093,8.1093,8.1093,8.1093,8.1093,8.1093,8.1093,8.1093,8.1093,8.1093,8.1093,8.1093,8.1093,8.1093,8.1093,8.1093,8.1093,8.1093,8.1093,8.1093,8.1093,8.1093,8.1093,8.1093,8.1093,8.1362,8.1862,8.3131,8.3862,8.4439,5.7997,5.7997,5.7997,0.0,5.7997,0.0,0.0,0.0,5.7997,5.7997,5.7997,5.7997,5.7997,5.7997,5.7997,5.7997,5.7997,0.0,0.0,0.0,0.0,0.0,0.0,5.7997,5.7997,5.7997,5.7997,5.7997,5.7997,5.7997,5.7997,5.7997,5.7997,5.7997,5.7997,5.8107,5.8253,5.8927,5.9368,5.9685,0.0,6.0456,6.163,6.1777,6.2218,6.278,6.278,6.3086,6.3453,6.3453,6.3723,6.4099,6.4197,6.4572,0.0,0.0,0.0,0.0,0.0,0.0,0.0,0.0,0.0,6.8423,0.0,0.0,0.0,7.0898,7.0898,7.1129,7.1822,0.0,0.0,0.0,0.0,0.0,0.0,7.5784,0.0,0.0,0.0,0.0,7.9708,8.0592,8.1093,8.1093,8.1093,8.1093,8.1093,8.1093,8.1093,8.1093,8.1093,8.1093,8.1093,8.1093,8.1093,8.1093,8.1093,8.1093,8.1093,8.1093,8.1093,8.1093,8.1093,8.1093,8.1093,8.1093,8.1093,8.1093,8.1093,8.1593,8.2401,8.3285,8.4132,8.5016,5.7997,5.7997,5.7997,0.0,0.0,0.0,0.0,0.0,5.7997,5.7997,5.7997,5.7997,5.7997,5.7997,5.7997,5.7997,5.7997,0.0,5.7997,0.0,0.0,0.0,0.0,0.0,5.7997,5.7997,5.7997,5.7997,5.7997,5.7997,5.7997,5.7997,5.7997,5.7997,5.7997,5.84,5.9074,5.9148,6.0015,0.0,6.1337,6.1447,0.0,6.2401,6.2707,6.278,6.278,6.283,6.2904,0.0,6.2917,6.3049,0.0,6.4039,6.4554,6.4987,0.0,0.0,0.0,0.0,0.0,0.0,6.7705,0.0,0.0,0.0,7.0898,7.0898,0.0,7.0937,0.0,0.0,0.0,0.0,0.0,0.0,7.4014,7.5053,0.0,0.0,0.0,0.0,0.0,8.0592,8.1093,8.1093,8.1093,8.1093,8.1093,8.1093,8.1093,8.1093,8.1093,8.1093,8.1093,8.1093,8.1093,8.1093,8.1093,8.1093,8.1093,8.1093,8.1093,8.1093,8.1093,8.1093,8.1093,8.1093,8.1093,8.1093,8.1093,8.1593,8.2401,8.3285,8.4132,8.5016,5.7997,5.7997,5.7997,5.7997,0.0,0.0,0.0,0.0,5.7997,5.7997,5.7997,5.7997,5.7997,5.7997,5.7997,5.7997,5.7997,5.7997,0.0,0.0,5.7997,0.0,0.0,0.0,0.0,0.0,0.0,5.7997,5.7997,5.7997,5.7997,5.8282,5.8519,5.8717,5.9334,5.9847,6.0381,6.0863,6.1456,0.0,0.0,0.0,0.0,6.267,6.278,6.278,6.278,6.278,6.278,0.0,6.278,0.0,0.0,0.0,0.0,0.0,0.0,0.0,0.0,0.0,0.0,0.0,0.0,0.0,6.9629,0.0,7.0898,0.0,0.0,0.0,0.0,0.0,0.0,0.0,7.4437,0.0,0.0,0.0,7.613,0.0,0.0,0.0,0.0,0.0,0.0,0.0,8.1093,8.1093,8.1093,8.1093,8.1093,8.1093,8.1093,8.1093,8.1093,8.1093,8.1093,8.1093,8.1093,8.1093,8.1093,8.1093,8.1093,8.1093,8.1093,8.1093,8.1093,8.1093,8.1093,8.1093,8.1093,8.19,8.3093,8.3478,8.4439,8.5632,5.8767,5.8356,5.7997,5.7997,0.0,0.0,0.0,0.0,5.7997,5.7997,5.7997,5.7997,5.7997,5.7997,5.7997,5.7997,5.7997,5.7997,0.0,0.0,5.7997,0.0,0.0,0.0,0.0,0.0,0.0,0.0,5.8375,5.8375,5.8375,0.0,0.0,0.0,6.0604,6.13,6.1776,6.2354,6.2728,6.2949,6.3002,6.2917,6.278,6.278,6.278,6.278,6.278,6.2952,6.3172,6.3172,6.3319,0.0,6.3477,0.0,0.0,0.0,0.0,0.0,6.748,0.0,0.0,0.0,0.0,0.0,0.0,0.0,0.0,0.0,0.0,0.0,0.0,0.0,0.0,0.0,0.0,7.5822,0.0,7.5707,0.0,0.0,0.0,0.0,0.0,0.0,0.0,8.1093,8.1093,8.1093,8.1093,8.1093,8.1093,8.1093,8.1093,8.1093,8.1093,8.1093,8.1093,8.1093,8.1093,8.1093,8.1093,8.1093,8.1093,8.1093,8.1093,8.1093,8.1093,8.1093,8.1093,8.1093,8.1093,8.2131,8.3593,8.3593,8.467,8.6094,6.0785,5.921,5.7997,5.7997,5.7997,0.0,0.0,0.0,5.7997,5.7997,5.7997,5.7997,5.7997,5.7997,0.0,0.0,0.0,5.7997,5.7997,0.0,5.7997,0.0,0.0,5.8194,0.0,0.0,0.0,0.0,5.9354,5.9354,5.9392,6.0219,0.0,0.0,6.15,6.2293,6.3049,6.3049,6.3577,6.4275,6.3787,6.3285,6.278,0.0,6.278,6.278,6.278,0.0,0.0,6.4053,6.4567,0.0,0.0,0.0,0.0,0.0,0.0,0.0,0.0,0.0,0.0,6.8586,0.0,0.0,0.0,0.0,7.0898,0.0,0.0,0.0,0.0,0.0,0.0,0.0,0.0,0.0,0.0,0.0,0.0,0.0,0.0,0.0,0.0,0.0,0.0,8.1093,8.1093,8.1093,8.1093,8.1093,8.1093,8.1093,8.1093,8.1093,8.1093,8.1093,8.1093,8.1093,8.1093,8.1093,8.1093,8.1093,8.1093,8.1093,8.1093,8.1093,8.1093,8.1093,8.1093,8.1093,8.1093,8.2131,8.3593,8.3593,8.467,8.6094,6.1556,6.1018,6.0244,5.9119,5.8932,5.8815,5.8487,5.8905,5.9124,5.8851,5.9281,0.0,0.0,5.9612,5.9612,0.0,0.0,5.9355,5.8841,5.8804,0.0,0.0,0.0,5.8216,0.0,0.0,0.0,0.0,0.0,6.0254,6.0292,6.143,6.2096,0.0,0.0,6.394,6.4394,0.0,0.0,0.0,0.0,6.3808,6.3308,0.0,0.0,6.2879,6.3466,6.3833,0.0,6.4714,6.5081,6.5301,6.5301,6.5533,6.5936,6.6455,6.7105,0.0,0.0,0.0,6.9399,7.0026,0.0,0.0,0.0,0.0,0.0,0.0,0.0,0.0,0.0,0.0,0.0,0.0,0.0,0.0,0.0,0.0,0.0,0.0,0.0,0.0,0.0,0.0,0.0,8.1093,8.1093,8.1093,8.1093,8.1093,8.1093,8.1093,8.1093,8.1093,8.1093,8.1093,8.1093,8.1093,8.1093,8.1093,8.1093,8.1093,8.1093,8.1093,8.1093,8.1093,8.1093,8.1093,8.1093,8.1131,8.1708,8.2593,8.3593,8.3593,8.467,8.6094,6.2937,6.2861,6.233,6.0609,6.0275,6.0168,5.989,0.0,0.0,5.9967,6.0194,0.0,6.0419,0.0,6.0419,0.0,6.0419,6.0199,5.9685,5.9822,0.0,5.9146,5.9292,0.0,0.0,0.0,0.0,0.0,0.0,6.1628,6.1628,6.2762,6.3435,6.3698,6.4625,6.5204,6.5403,6.5403,6.5403,0.0,0.0,6.4483,0.0,0.0,6.3407,6.3392,0.0,6.4714,6.5007,6.5558,6.5925,6.6145,6.6145,6.629,6.6542,6.7059,6.7564,6.8166,6.8806,6.9413,0.0,7.025,7.0478,0.0,7.0871,0.0,0.0,0.0,0.0,0.0,0.0,0.0,0.0,0.0,0.0,0.0,0.0,7.6015,0.0,0.0,0.0,0.0,0.0,0.0,0.0,8.1093,8.0823,8.0785,0.0,0.0,8.1093,8.1093,8.1093,8.1093,8.1093,8.1093,8.1093,8.1093,8.1093,8.1093,8.1093,8.1093,8.1093,8.1093,8.1093,8.1093,8.1093,8.1093,8.1093,8.117,8.1977,8.2824,8.3632,8.3939,8.4939,8.6094,6.482,6.4666,6.4126,6.2408,6.2042,6.1949,6.1931,0.0,6.1313,0.0,6.0885,6.0588,6.0588,6.0588,6.0588,6.0588,6.0588,6.0588,6.0551,6.101,0.0,0.0,6.1676,6.2142,6.2597,0.0,0.0,0.0,0.0,6.3346,6.3397,6.4282,6.4666,6.4705,6.5513,0.0,6.5897,6.5897,6.5897,6.5872,6.5412,6.5365,6.5577,6.5144,6.4712,6.4375,6.5132,6.593,6.6581,6.6591,6.7116,6.7741,6.7714,6.8047,6.8464,6.8464,6.8803,6.9127,6.8614,6.8869,6.9313,6.9333,0.0,0.0,0.0,0.0,7.0975,0.0,0.0,0.0,0.0,0.0,0.0,0.0,0.0,0.0,0.0,0.0,0.0,0.0,0.0,0.0,0.0,0.0,8.0208,8.1054,8.0323,8.0246,0.0,0.0,8.1093,8.1093,8.1093,8.1093,8.1093,8.1093,8.1093,8.1093,8.1093,8.1093,8.1093,8.1093,8.1093,8.1093,8.1093,8.1093,8.1093,8.1093,8.1093,8.117,8.2016,8.2901,8.3824,8.467,8.544,8.6094,6.559,6.5551,6.5423,6.4942,6.3789,6.2811,0.0,0.0,0.0,0.0,6.3065,6.3361,6.3361,6.3361,6.3361,6.3361,6.3361,0.0,0.0,0.0,0.0,6.1732,6.1861,6.2142,6.2597,6.2597,0.0,6.3308,0.0,0.0,6.4282,6.5166,6.5551,6.559,6.5782,6.5897,6.5897,6.5897,6.5897,6.5936,6.6383,6.6421,0.0,0.0,6.7504,6.7069,6.6863,6.7164,6.7723,6.7919,6.8123,6.821,6.7836,6.7784,6.7904,6.7904,6.797,6.8198,6.8416,6.8869,6.9413,6.9793,7.0298,7.0748,0.0,0.0,0.0,0.0,0.0,0.0,0.0,0.0,0.0,0.0,0.0,0.0,0.0,0.0,0.0,7.6015,0.0,0.0,0.0,0.0,8.0862,8.1093,8.09,0.0,0.0,0.0,0.0,8.1093,8.1093,8.1093,8.1093,8.1093,8.1093,8.1093,8.1093,8.1093,8.1093,8.1093,8.1093,8.1093,8.1093,8.1093,8.1093,8.1093,8.1093,8.1246,8.2708,8.417,8.5478,8.5709,8.594,8.6094,6.5897,6.5897,6.5897,6.5897,0.0,0.0,6.4071,6.4229,0.0,6.4027,6.4215,0.0,6.4389,6.4389,6.4389,6.4389,6.4389,0.0,6.3709,0.0,0.0,6.3327,6.3508,6.3787,6.4029,6.4043,0.0,6.4436,0.0,6.5166,6.5166,6.5667,6.5897,6.5897,6.5897,6.5897,6.5897,6.5897,6.609,6.6436,6.6898,0.0,0.0,6.8559,6.9032,6.9251,6.8714,6.8555,6.8631,6.8806,6.8862,6.8818,6.8511,6.8392,6.8344,6.8123,6.8047,6.8047,6.8148,6.8728,6.9373,6.9683,7.0636,7.1475,7.1475,7.2129,7.2783,0.0,0.0,0.0,0.0,0.0,0.0,0.0,0.0,0.0,0.0,0.0,0.0,0.0,7.7707,0.0,0.0,0.0,0.0,0.0,0.0,0.0,0.0,0.0,0.0,8.1093,8.1093,8.1093,8.1093,8.1093,8.1093,8.1093,8.1093,8.1093,8.1093,8.1093,8.1093,8.1093,8.1093,8.1093,8.1093,8.1093,8.1323,8.1785,8.3516,8.4978,8.6094,8.6094,8.6094,8.6094,6.5897,6.5897,6.5897,6.5897,0.0,0.0,0.0,6.5489,0.0,6.5192,0.0,6.461,6.461,6.461,6.461,6.461,0.0,6.461,6.461,6.4987,6.5192,6.5192,6.5663,6.5897,6.5897,6.5897,6.5897,0.0,0.0,6.5897,6.5897,6.5897,6.5897,6.5897,6.5897,0.0,0.0,6.6051,6.6513,6.7282,6.7398,6.8359,6.9627,6.9214,6.9842,7.0857,7.0362,6.9921,6.9511,6.9433,6.9413,6.9393,6.9333,6.9313,6.921,6.875,6.859,6.8511,6.8021,6.8637,6.9413,6.9564,7.0909,7.2206,7.2322,7.3053,7.3654,7.3654,7.4322,7.4861,0.0,0.0,0.0,0.0,0.0,0.0,0.0,0.0,0.0,0.0,0.0,0.0,0.0,0.0,0.0,0.0,0.0,0.0,0.0,0.0,0.0,8.1093,8.1093,8.1093,8.1093,0.0,8.1093,8.1093,8.1093,8.1093,8.1093,8.1093,8.1093,8.1093,8.1093,8.1093,8.1093,8.1093,8.1631,8.2631,8.4247,8.5401,8.6094,8.6094,8.6094,8.6094,6.5897,6.5897,6.5897,6.5897,0.0,6.5897,6.5897,6.5808,6.5768,6.5768,6.5676,6.5635,6.5635,6.5635,6.5635,6.5635,6.5635,0.0,0.0,0.0,0.0,6.5768,6.5872,6.5897,6.5897,6.5897,6.5897,0.0,6.5897,6.5897,6.5897,6.5897,6.5897,6.5897,6.5897,0.0,6.6898,6.6898,0.0,6.8244,6.8975,6.9436,6.9769,7.0329,7.0689,7.0885,7.0791,7.0681,7.0539,7.0112,6.9936,6.9865,6.9452,6.9313,6.9292,6.919,6.9169,6.9148,6.9042,6.9492,7.0126,7.085,7.1634,7.2399,7.3129,7.3899,7.4476,7.4476,7.5168,7.5784,7.5784,0.0,0.0,0.0,0.0,0.0,0.0,0.0,0.0,0.0,0.0,7.9631,0.0,0.0,0.0,0.0,0.0,0.0,0.0,0.0,0.0,0.0,8.1093,0.0,0.0,0.0,8.1093,8.1093,8.1093,8.1093,8.1093,8.1093,8.1093,8.1093,8.1093,8.1093,8.1093,8.1093,8.2016,8.3478,8.4516,8.5401,8.6094,8.6094,8.6094,8.6094,6.5897,6.5897,6.5897,6.5897,0.0,0.0,0.0,6.5897,6.5897,6.5897,6.5897,6.5897,6.5897,6.5897,6.5897,6.5897,6.5897,6.5897,6.5897,6.5897,6.5897,6.5897,6.5897,0.0,6.5897,6.5897,6.5897,6.5897,6.5897,6.5897,6.5897,6.5897,6.5897,6.5897,0.0,6.6744,0.0,0.0,0.0,6.9129,6.9513,6.9937,7.036,7.0744,7.0898,7.0898,7.0898,7.0898,7.0871,7.0608,7.0509,7.0478,7.0233,7.0112,7.0078,6.9793,6.972,6.9664,6.9373,7.0043,7.0858,7.1277,7.2463,7.3591,7.4053,7.4784,7.5361,7.5361,7.5707,7.6015,7.6015,7.6015,0.0,0.0,0.0,0.0,0.0,0.0,0.0,0.0,0.0,0.0,0.0,0.0,0.0,0.0,0.0,0.0,0.0,0.0,0.0,0.0,0.0,0.0,0.0,0.0,0.0,8.1093,8.1093,8.1093,8.1093,8.1093,8.1093,8.1093,8.1093,8.1093,8.117,8.2054,8.2862,8.3708,8.5016,8.5747,8.6094,8.6094,8.6094,8.6094,6.6436,6.6436,6.6436,0.0,6.6436,0.0,6.6436,6.6436,6.6282,6.5936,6.5897,6.5897,6.5897,6.5897,6.5897,6.5897,6.5897,6.5897,6.5897,6.5897,6.5897,6.5897,6.5897,6.5897,6.5897,6.5897,6.5897,0.0,6.5897,6.5897,0.0,6.6051,0.0,0.0,0.0,0.0,0.0,0.0,6.9167,6.9975,6.9975,7.0321,7.0898,7.0898,7.0898,7.0898,7.0898,7.0898,7.0898,7.0898,7.0898,7.0898,7.0898,7.0898,7.0805,7.0378,7.0282,7.02,6.9984,7.0736,7.1658,7.2002,7.3407,7.4745,7.4938,7.5515,7.6015,7.6015,7.6015,7.6015,7.6015,7.6015,0.0,0.0,0.0,0.0,0.0,0.0,0.0,0.0,0.0,0.0,8.1016,0.0,0.0,0.0,0.0,0.0,0.0,0.0,0.0,0.0,0.0,8.1093,8.1093,0.0,8.1093,0.0,8.1093,8.1093,8.1093,8.1093,8.1093,8.1093,8.1093,8.1208,8.1477,8.2978,8.3708,8.4016,8.5517,8.6094,8.6094,8.6094,8.6094,8.6094,0.0,6.8167,0.0,0.0,0.0,0.0,6.8167,6.8167,6.7628,6.609,6.5897,6.5897,6.5897,6.5897,6.5897,6.5897,6.5897,6.5897,6.5897,6.5897,6.5897,6.5897,6.5897,6.5897,6.5897,6.5897,6.5897,0.0,0.0,6.5897,0.0,0.0,0.0,0.0,0.0,0.0,0.0,6.9552,7.0052,7.0783,7.0783,7.0821,7.0898,7.0898,7.0898,7.0898,7.0898,7.0898,7.0898,7.0898,7.0898,7.0898,7.0898,7.0898,7.0885,7.0857,7.0843,7.0997,7.1737,7.202,7.251,7.3995,7.4562,7.4899,7.5707,7.5938,7.6015,7.6015,7.6015,7.6015,7.6015,7.6015,7.6015,0.0,0.0,0.0,0.0,0.0,0.0,0.0,0.0,0.0,0.0,8.04,0.0,0.0,8.1093,0.0,0.0,0.0,0.0,8.1093,0.0,8.1093,8.1093,8.1093,8.1093,8.1093,8.1093,8.1093,8.1093,8.1093,8.1093,8.1093,8.1093,8.1516,8.2247,8.3208,8.4055,8.4863,8.5747,8.6094,8.6094,8.6094,8.6094,8.6094,0.0,0.0,0.0,0.0,0.0,0.0,0.0,6.8385,6.8167,6.7475,6.7398,6.7398,6.7398,6.7398,6.7205,6.6667,6.6628,6.6397,6.5936,6.6359,6.6628,6.6628,6.7128,6.7398,6.7398,6.7398,6.7398,0.0,0.0,0.0,0.0,0.0,0.0,0.0,0.0,6.936,6.9744,7.0206,7.0591,7.0898,7.0898,7.0898,7.0898,7.0898,7.0898,7.0898,7.0898,7.0898,7.0898,7.0898,7.0898,7.0898,7.0898,7.0898,7.1014,7.1514,7.1668,7.186,7.2745,7.3322,7.386,7.4553,7.5091,7.5553,7.5938,7.6015,7.6015,7.6015,7.6015,7.6015,7.6015,7.6015,7.6169,0.0,0.0,0.0,0.0,0.0,0.0,0.0,0.0,0.0,0.0,8.0785,8.0708,0.0,0.0,0.0,0.0,0.0,0.0,8.1093,0.0,8.1093,8.1093,8.1093,8.1093,8.1093,8.1093,8.1093,8.1093,8.1093,8.1093,8.1093,8.1093,8.1554,8.2362,8.3247,8.4093,8.4978,8.5786,8.6094,8.6094,8.6094,8.6094,8.6094,6.9129,0.0,6.9129,0.0,6.9129,6.9129,6.9129,6.9129,6.9129,6.9129,6.9129,6.8936,6.8462,6.8385,6.8167,6.7552,6.7475,6.7244,6.6667,6.7167,6.7475,6.7475,6.809,0.0,6.8385,6.8385,6.8385,6.8385,6.8385,0.0,0.0,0.0,0.0,0.0,6.9783,7.0052,7.009,7.0667,7.0898,7.0898,7.0898,7.0898,7.0898,7.0898,7.0898,7.0898,7.0898,7.0898,7.0937,7.1206,7.1283,7.1245,7.0975,7.1091,7.1398,7.2014,7.236,7.2783,7.363,7.4284,7.4784,7.5014,7.5553,7.6015,7.6015,7.6015,7.6015,7.6015,7.6015,7.6015,7.6015,7.6207,7.6592,7.7207,0.0,0.0,0.0,0.0,0.0,0.0,8.0862,8.0823,8.1093,8.0862,8.0823,0.0,0.0,0.0,0.0,0.0,0.0,0.0,0.0,0.0,0.0,8.1093,8.1093,8.1093,8.1093,8.1093,8.1093,8.1093,8.1093,8.1093,8.1093,8.1708,8.2708,8.3362,8.4247,8.5324,8.5901,8.6094,8.6094,8.6094,8.6094,8.6094,7.086,7.086,7.086,7.086,7.086,7.086,7.086,7.086,7.086,7.086,7.086,7.0244,6.859,6.8385,6.8385,6.8385,6.8385,6.8385,6.8359,6.8385,6.8385,0.0,0.0,6.8385,6.8385,6.8385,6.8385,6.8385,0.0,0.0,6.8436,0.0,7.0129,7.086,7.0898,7.0898,7.0898,7.0898,7.0898,7.0898,7.0898,7.0898,7.0898,7.0898,7.0898,7.0898,7.0898,7.0898,7.1014,7.1898,7.2168,7.2014,7.1168,7.1475,7.2168,7.2206,7.2822,7.3654,7.4476,7.4707,7.4899,7.5784,7.5976,7.6015,7.6015,7.6015,7.6015,7.6015,7.6015,7.6015,7.6015,7.6707,7.7284,7.7284,0.0,0.0,0.0,0.0,0.0,0.0,8.0323,8.0169,8.1016,8.0323,0.0,0.0,0.0,0.0,0.0,0.0,0.0,8.1093,8.1093,0.0,8.1093,8.1093,8.1093,8.1093,8.1093,8.1093,8.1093,8.1093,8.1093,8.1093,8.1093,8.2054,8.3593,8.3593,8.4593,8.6094,8.6094,8.6094,8.6094,8.6094,8.6094,8.6094,7.0898,7.0898,7.0898,7.0898,7.0898,7.0898,7.0898,7.0898,7.0898,7.0898,7.0898,7.0706,7.0167,7.009,6.9898,0.0,6.9283,6.9052,0.0,6.8975,6.9283,6.9283,6.9821,7.009,7.009,7.009,7.009,7.009,0.0,0.0,0.0,7.0398,7.0667,7.0898,7.0898,7.0898,7.0898,7.0898,7.0898,7.0898,7.0898,7.0898,7.0898,7.0898,7.0898,7.0898,7.0898,7.1283,7.1822,7.2091,7.2591,7.3053,7.2745,7.286,7.3206,7.3745,7.4091,7.4514,7.5361,7.5592,7.5668,7.5938,7.6015,7.6015,7.6015,7.6015,7.6015,7.6015,7.6015,7.6015,7.6015,7.6707,7.7476,7.8015,7.9054,0.0,0.0,0.0,0.0,0.0,8.0862,8.0785,0.0,8.0862,0.0,0.0,0.0,0.0,0.0,0.0,0.0,0.0,8.1093,0.0,8.1093,8.1093,8.1093,8.1093,8.1093,8.1093,8.1093,8.1093,8.1093,8.1131,8.167,8.2554,8.3632,8.4247,8.5132,8.6094,8.6094,8.6094,8.6094,8.6094,8.6094,8.6094,7.0898,7.0898,7.0898,7.0898,7.0898,7.0898,7.0898,7.0898,7.0898,7.0898,7.0898,7.0898,7.0898,7.0898,0.0,7.0206,7.0167,6.9937,6.936,6.986,7.0167,7.0167,7.0629,7.0898,7.0898,0.0,0.0,7.0898,7.0898,7.0898,7.0898,7.0898,7.0898,7.0898,7.0898,7.0898,7.0898,7.0898,7.0898,7.0898,7.0898,7.0898,7.0898,7.0898,7.1091,7.1398,7.1398,7.1937,7.2745,7.3053,7.3514,7.4014,7.4361,7.4437,7.4476,7.4668,7.4938,7.5322,7.5861,7.6015,7.6015,7.6015,7.6015,7.6015,7.6015,7.6015,7.6015,7.6015,7.6015,7.6092,7.6438,7.7169,7.8015,7.8861,7.9708,8.0477,8.1016,0.0,0.0,0.0,0.0,0.0,0.0,8.1093,8.1093,0.0,0.0,0.0,0.0,0.0,0.0,8.1093,8.1093,0.0,8.1093,8.1093,8.1093,8.1093,8.1093,8.1093,8.1093,8.1093,8.1093,8.1131,8.1939,8.2785,8.367,8.4555,8.5363,8.6094,8.6094,8.6094,8.6094,8.6094,8.6094,8.6094,7.0898,7.0898,0.0,0.0,7.0898,0.0,7.0898,7.0898,7.0898,7.0898,7.0898,7.0898,7.0898,7.0898,7.0898,7.0898,0.0,0.0,0.0,7.0898,7.0898,7.0898,7.0898,7.0898,7.0898,7.0898,7.0898,7.0898,7.0898,7.0898,7.0898,7.0898,7.0898,7.0898,7.0898,7.0898,7.0898,7.0898,7.0898,7.0898,7.0898,7.0937,7.0975,7.0975,7.1514,7.2283,7.2283,7.286,7.3707,7.4437,7.4745,7.4938,7.5745,7.6015,7.5822,7.5014,7.5361,7.6015,7.6015,7.6015,7.6015,7.6015,7.6015,7.6015,7.6015,7.6015,7.6015,7.6015,7.6015,7.6284,7.713,7.7938,7.8784,7.9669,8.0516,8.1093,8.1093,0.0,0.0,0.0,0.0,0.0,0.0,8.1093,8.1093,0.0,0.0,0.0,0.0,0.0,8.1093,8.1093,8.1093,8.1093,8.1093,8.1093,8.1093,8.1093,8.1093,8.1093,8.1093,8.1093,8.1131,8.1246,8.2054,8.2862,8.3747,8.4632,8.544,8.6094,8.6094,8.6094,8.6094,8.6094,8.6094,8.6094,0.0,0.0,7.0898,7.0898,7.0898,7.0898,7.0898,7.0898,7.0898,7.0898,7.0898,7.0898,7.0898,7.0898,7.0898,7.0898,7.0898,7.0898,7.0898,7.0898,7.0898,7.0898,7.0898,7.0898,7.0898,7.0898,7.0898,7.0898,7.0898,7.0898,7.0898,7.0898,7.0898,7.0898,7.0898,7.0898,7.0898,7.0898,7.0898,7.0898,7.0898,7.1283,7.1898,7.1898,7.2437,7.3206,7.3206,7.3707,7.4437,7.463,7.513,7.5745,7.5938,7.6015,7.5976,7.5745,7.5822,7.6015,7.6015,7.6015,7.6015,7.6015,7.6015,7.6015,7.6015,7.6015,7.6015,7.6015,7.6015,7.6284,7.713,7.7938,7.8784,7.9669,8.0516,8.1093,8.1093,8.1093,0.0,0.0,8.1093,8.1093,8.1093,8.1093,8.1093,0.0,0.0,0.0,0.0,8.1093,8.1093,8.1093,8.1093,8.1093,8.1093,8.1093,8.1093,8.1093,8.1093,8.1093,8.1093,8.1093,8.1439,8.2054,8.2901,8.3785,8.467,8.5478,8.594,8.6094,8.6094,8.6094,8.6094,8.6094,8.6094,8.6094,7.0898,7.0898,7.0898,7.0898,7.0898,7.0898,7.0898,7.0898,7.0898,7.0898,7.0898,7.0898,7.0898,7.0898,7.0898,7.0898,7.0898,7.0898,7.0898,7.0898,7.0898,7.0898,7.0898,7.0898,7.0898,7.0898,7.0898,7.0898,7.0898,7.0898,7.0898,7.0898,7.0898,7.0898,7.0898,7.0898,7.0898,7.0898,7.1129,7.1475,7.1475,7.2014,7.2783,7.2783,7.3322,7.4053,7.4053,7.4591,7.5284,7.5284,7.563,7.6015,7.6015,7.6015,7.6015,7.6015,7.6015,7.6015,7.6015,7.6015,7.6015,7.6015,7.6015,7.6015,7.6015,7.6015,7.6015,7.6015,7.6015,7.6361,7.763,7.8207,7.89,8.0208,8.0785,8.1093,8.1093,8.1093,0.0,8.1093,8.1093,8.1093,8.1093,8.1093,8.1093,8.1093,8.1093,0.0,8.1093,8.1093,8.1093,8.1093,8.1093,8.1093,8.1093,8.1093,8.1093,8.1093,8.1093,8.1093,8.1093,8.1093,8.1554,8.2362,8.3208,8.4093,8.4978,8.5786,8.6094,8.6094,8.6094,8.6094,8.6094,8.6094,8.6094,8.6094,7.0898,7.0898,7.0898,7.0898,7.0898,7.0898,7.0898,7.0898,7.0898,7.0898,7.0898,7.0898,7.0898,7.0898,7.0898,7.0898,7.0898,7.0898,7.0898,7.0898,7.0898,7.0898,7.0898,7.0898,7.0898,7.0898,7.0898,7.0898,7.0898,7.0898,7.0898,7.0898,7.0898,7.0898,7.0898,7.0975,7.1091,7.1091,7.1591,7.2399,7.2399,7.2899,7.3668,7.3668,7.4207,7.4899,7.4899,7.5361,7.6015,7.6015,7.6015,7.6015,7.6015,7.6015,7.6015,7.6015,7.6015,7.6015,7.6015,7.6015,7.6015,7.6015,7.6015,7.6015,7.6015,7.6015,7.6015,7.6015,7.6015,7.6515,7.8169,7.8477,7.9054,8.0823,8.1093,8.1093,8.1093,0.0,8.1093,8.1093,8.1093,8.1093,8.1093,8.1093,8.1093,8.1093,8.1093,8.1093,0.0,8.1093,8.1093,8.1093,8.1093,8.1093,8.1093,8.1093,8.1093,8.1093,8.1093,8.1093,8.1093,8.1093,8.1593,8.2554,8.3285,8.417,8.5132,8.5824,8.6094,8.6094,8.6094,8.6094,8.6094,8.6094,8.6094,8.6094,7.0898,7.0898,7.0898,7.0898,7.0898,7.0898,7.0898,7.0898,7.0898,7.0898,7.0898,7.0898,7.0898,7.0898,7.0898,7.0898,7.0898,7.0898,7.0898,7.0898,7.0898,7.0898,7.0898,7.0898,7.0898,7.0898,7.0898,7.0898,7.0898,7.0898,7.0898,7.0898,7.0898,7.0898,7.0898,7.1321,7.2014,7.2014,7.2514,7.3322,7.3322,7.3783,7.4514,7.4514,7.5053,7.5784,7.5784,7.5899,7.6015,7.6015,7.6015,7.6015,7.6015,7.6015,7.6015,7.6015,7.6015,7.6015,7.6015,7.6015,7.6015,7.6015,7.6015,7.6015,7.6015,7.6015,7.6015,7.6015,7.6015,7.6515,7.8169,7.8477,7.9054,8.0823,8.1093,8.1093,8.1093,0.0,8.1093,8.1093,8.1093,8.1093,8.1093,8.1093,8.1093,8.1093,8.1093,8.1093,8.1093,8.1093,8.1093,8.1093,8.1093,8.1093,8.1093,8.1093,8.1093,8.1093,8.1093,8.1093,8.1093,8.1093,8.1939,8.3401,8.3516,8.4478,8.594,8.6055,8.6094,8.6094,8.6094,8.6094,8.6094,8.6094,8.6094,8.6094,7.0898,7.0898,7.0898,7.0898,7.0898,7.0898,7.0898,7.0898,7.0898,7.0898,7.0898,7.0898,7.0898,7.0898,7.0898,7.0898,7.0898,7.0898,7.0898,7.0898,7.0898,7.0898,7.0898,7.0898,7.0898,7.0898,7.0898,7.0898,7.0898,7.0898,7.0898,7.0898,7.1168,7.1591,7.1591,7.2091,7.2899,7.2899,7.3399,7.4168,7.4168,7.4668,7.5399,7.5399,7.5668,7.6015,7.6015,7.6015,7.6015,7.6015,7.6015,7.6015,7.6015,7.6015,7.6015,7.6015,7.6015,7.6015,7.6015,7.6015,7.6015,7.6015,7.6015,7.6015,7.6015,7.6015,7.6015,7.6015,7.6015,7.6515,7.8169,7.8477,7.9054,8.0823,8.1093,0.0,0.0,8.1093,8.1093,8.1093,8.1093,8.1093,8.1093,8.1093,8.1093,8.1093,8.1093,8.1093,8.1093,8.1093,8.1093,8.1093,8.1093,8.1093,8.1093,8.1093,8.1093,8.1093,8.1093,8.1093,8.1093,8.1093,8.2016,8.3593,8.3593,8.4555,8.6094,8.6094,8.6094,8.6094,8.6094,8.6094,8.6094,8.6094,8.6094,8.6094,7.0898,7.0898,7.0898,7.0898,7.0898,7.0898,7.0898,7.0898,7.0898,7.0898,7.0898,7.0898,7.0898,7.0898,7.0898,7.0898,7.0898,7.0898,7.0898,7.0898,7.0898,7.0898,7.0898,7.0898,7.0898,7.0898,7.0898,7.0898,7.1091,7.1206,7.1206,7.1398,7.186,7.2514,7.2514,7.2976,7.3783,7.3783,7.4245,7.5014,7.5014,7.5399,7.6015,7.6015,7.6015,7.6015,7.6015,7.6015,7.6015,7.6015,7.6015,7.6015,7.6015,7.6015,7.6015,7.6015,7.6015,7.6015,7.6015,7.6015,7.6015,7.6015,7.6015,7.6015,7.6015,7.6015,7.6015,7.6015,7.6015,7.6515,7.8169,7.8477,7.9054,8.0823,0.0,0.0,0.0,8.1093,8.1093,8.1093,8.1093,8.1093,8.1093,8.1093,8.1093,8.1093,8.1093,8.1093,8.1093,8.1093,8.1093,8.1093,8.1093,8.1093,8.1093,8.1093,8.1093,8.1093,8.1093,8.1093,8.1093,8.1093,8.2016,8.3593,8.3593,8.4555,8.6094,8.6094,8.6094,8.6094,8.6094,8.6094,8.6094,8.6094,8.6094,8.6094,7.0898,7.0898,7.0898,7.0898,7.0898,7.0898,7.0898,7.0898,7.0898,7.0898,7.0898,7.0898,7.0898,7.0898,7.0898,7.0898,7.0898,7.0898,7.0898,7.0898,7.0898,7.0898,7.0898,7.0898,7.0898,7.0898,7.0898,7.0898,7.1706,7.2091,7.2129,7.2937,7.336,7.3399,7.3399,7.386,7.463,7.463,7.513,7.5899,7.5899,7.5938,7.6015,7.6015,7.6015,7.6015,7.6015,7.6015,7.6015,7.6015,7.6015,7.6015,7.6015,7.6015,7.6015,7.6015,7.6015,7.6015,7.6015,7.6015,7.6015,7.6015,7.6015,7.6015,7.6015,7.6015,7.6015,7.6015,7.6015,7.6515,7.8169,7.8477,7.9054,8.0823,0.0,0.0,8.1093,8.1093,8.1093,8.1093,8.1093,8.1093,8.1093,8.1093,8.1093,8.1093,8.1093,8.1093,8.1093,8.1093,8.1093,8.1093,8.1093,8.1093,8.1093,8.1093,8.1093,8.1093,8.1093,8.1093,8.1093,8.1093,8.2016,8.3593,8.3593,8.4555,8.6094,8.6094,8.6094,8.6094,8.6094,8.6094,8.6094,8.6094,8.6094,8.6094,7.0898,7.0898,7.0898,7.0898,7.0898,7.0898,7.0898,7.0898,7.0898,7.0898,7.0898,7.0898,7.0898,7.0898,7.0898,7.0898,7.0898,7.0898,7.0898,7.0898,7.0898,7.0898,7.0898,7.0898,7.0898,7.1437,7.1706,7.1706,7.2591,7.3014,7.3014,7.336,7.3783,7.4245,7.4245,7.4707,7.5515,7.5515,7.5707,7.6015,7.6015,7.6015,7.6015,7.6015,7.6015,7.6015,7.6015,7.6015,7.6015,7.6015,7.6015,7.6015,7.6015,7.6015,7.6015,7.6015,7.6015,7.6015,7.6015,7.6015,7.6015,7.6015,7.6015,7.6015,7.6015,7.6015,7.6015,7.6015,7.6015,7.6515,7.8169,7.8477,7.9054,8.0823,0.0,8.1093,8.1093,8.1093,8.1093,8.1093,8.1093,8.1093,8.1093,8.1093,8.1093,8.1093,8.1093,8.1093,8.1093,8.1093,8.1093,8.1093,8.1093,8.1093,8.1093,8.1093,8.1093,8.1093,8.1093,8.1093,8.1131,8.1631,8.2477,8.3632,8.417,8.5055,8.6094,8.6094,8.6094,8.6094,8.6094,8.6094,8.6094,8.6094,8.6094,8.6094,7.0898,7.0898,7.0898,7.0898,7.0898,7.0898,7.0898,7.0898,7.0898,7.0898,7.0898,7.0898,7.0898,7.0898,7.0898,7.0898,7.0898,7.0898,7.0898,7.0898,7.0898,7.0898,7.1168,7.1321,7.1321,7.2168,7.2591,7.2591,7.3476,7.3899,7.3899,7.4168,7.4591,7.513,7.513,7.5438,7.6015,7.6015,7.6015,7.6015,7.6015,7.6015,7.6015,7.6015,7.6015,7.6015,7.6015,7.6015,7.6015,7.6015,7.6015,7.6015,7.6015,7.6015,7.6015,7.6015,7.6015,7.6015,7.6015,7.6015,7.6015,7.6015,7.6015,7.6015,7.6015,7.6015,7.6015,7.6015,7.6015,7.6515,7.8169,7.8477,7.9054,8.0823,8.1093,8.1093,8.1093,8.1093,8.1093,8.1093,8.1093,8.1093,8.1093,8.1093,8.1093,8.1093,8.1093,8.1093,8.1093,8.1093,8.1093,8.1093,8.1093,8.1093,8.1093,8.1093,8.1093,8.1093,8.1093,8.1093,8.1131,8.1939,8.2785,8.3632,8.4516,8.5363,8.6094,8.6094,8.6094,8.6094,8.6094,8.6094,8.6094,8.6094,8.6094,8.6094,7.0898,7.0898,7.0898,7.0898,7.0898,7.0898,7.0898,7.0898,7.0898,7.0898,7.0898,7.0898,7.0898,7.0898,7.0898,7.0898,7.0898,7.0898,7.0898,7.0898,7.0898,7.0937,7.1745,7.2206,7.2206,7.3053,7.3514,7.3514,7.4322,7.4707,7.4745,7.5592,7.6015,7.6015,7.6015,7.6015,7.6015,7.6015,7.6015,7.6015,7.6015,7.6015,7.6015,7.6015,7.6015,7.6015,7.6015,7.6015,7.6015,7.6015,7.6015,7.6015,7.6015,7.6015,7.6015,7.6015,7.6015,7.6015,7.6015,7.6015,7.6015,7.6015,7.6015,7.6015,7.6015,7.6015,7.6015,7.6015,7.6015,7.6515,7.8169,7.8477,7.9054,8.0823,8.1093,8.1093,8.1093,8.1093,8.1093,8.1093,8.1093,8.1093,8.1093,8.1093,8.1093,8.1093,8.1093,8.1093,8.1093,8.1093,8.1093,8.1093,8.1093,8.1093,8.1093,8.1093,8.1093,8.1093,8.1093,8.1093,8.1131,8.1939,8.2785,8.3632,8.4516,8.5363,8.6094,8.6094,8.6094,8.6094,8.6094,8.6094,8.6094,8.6094,8.6094,8.6094,7.0898,7.0898,7.0898,7.0898,7.0898,7.0898,7.0898,7.0898,7.0898,7.0898,7.0898,7.0898,7.0898,7.0898,7.0898,7.0898,7.0898,7.1168,7.1783,7.1822,7.2091,7.2706,7.2399,7.2476,7.3091,7.3937,7.4361,7.4361,7.5207,7.563,7.563,7.5861,7.6015,7.6015,7.6015,7.6015,7.6015,7.6015,7.6015,7.6015,7.6015,7.6015,7.6015,7.6015,7.6015,7.6015,7.6015,7.6015,7.6015,7.6015,7.6015,7.6015,7.6015,7.6015,7.6015,7.6015,7.6015,7.6015,7.6015,7.6015,7.6015,7.6015,7.6015,7.6015,7.6015,7.6015,7.6015,7.6015,7.6015,7.6515,7.8169,7.8477,7.9054,8.0823,8.1093,8.1093,8.1093,8.1093,8.1093,8.1093,8.1093,8.1093,8.1093,8.1093,8.1093,8.1093,8.1093,8.1093,8.1093,8.1093,8.1093,8.1093,8.1093,8.1093,8.1093,8.1093,8.1093,8.1093,8.1093,8.1093,8.1131,8.2554,8.3362,8.367,8.5132,8.5901,8.6094,8.6094,8.6094,8.6094,8.6094,8.6094,8.6094,8.6094,8.6094,8.6094,7.0898,7.0898,7.0898,7.0898,7.0898,7.0898,7.0898,7.0898,7.0898,7.0898,7.0898,7.0898,7.0898,7.0898,7.0898,7.0898,7.1206,7.1629,7.2168,7.2514,7.3091,7.3937,7.3476,7.3437,7.3976,7.4784,7.5207,7.5207,7.5745,7.6015,7.6015,7.6015,7.6015,7.6015,7.6015,7.6015,7.6015,7.6015,7.6015,7.6015,7.6015,7.6015,7.6015,7.6015,7.6015,7.6015,7.6015,7.6015,7.6015,7.6015,7.6015,7.6015,7.6015,7.6015,7.6015,7.6015,7.6015,7.6015,7.6015,7.6015,7.6015,7.6015,7.6015,7.6015,7.6015,7.6015,7.6015,7.6015,7.6284,7.6899,7.8246,7.8784,7.9477,8.0862,8.1093,8.1093,8.1093,8.1093,8.1093,8.1093,8.1093,8.1093,8.1093,8.1093,8.1093,8.1093,8.1093,8.1093,8.1093,8.1093,8.1093,8.1093,8.1093,8.1093,8.1093,8.1093,8.1093,8.1093,8.1093,8.1093,8.1131,8.2477,8.3247,8.367,8.5055,8.5824,8.6094,8.6094,8.6094,8.6094,8.6094,8.6094,8.6094,8.6094,8.6094,8.6094,7.0898,7.0898,7.0898,7.0898,7.0898,7.0898,7.0898,7.0898,7.0898,7.0898,7.0898,7.0898,7.0898,7.0898,7.0937,7.1014,7.1822,7.236,7.2399,7.3168,7.3976,7.4784,7.4822,7.4822,7.4822,7.5592,7.6015,7.6015,7.6015,7.6015,7.6015,7.6015,7.6015,7.6015,7.6015,7.6015,7.6015,7.6015,7.6015,7.6015,7.6015,7.6015,7.6015,7.6015,7.6015,7.6015,7.6015,7.6015,7.6015,7.6015,7.6015,7.6015,7.6015,7.6015,7.6015,7.6015,7.6015,7.6015,7.6015,7.6015,7.6015,7.6015,7.6015,7.6015,7.6015,7.6015,7.6015,7.6092,7.6746,7.7553,7.8438,7.9246,8.0092,8.0977,8.1093,8.1093,8.1093,8.1093,8.1093,8.1093,8.1093,8.1093,8.1093,8.1093,8.1093,8.1093,8.1093,8.1093,8.1093,8.1093,8.1093,8.1093,8.1093,8.1093,8.1093,8.1093,8.1093,8.1093,8.1093,8.1093,8.1131,8.1939,8.2785,8.3632,8.4516,8.5363,8.6094,8.6094,8.6094,8.6094,8.6094,8.6094,8.6094,8.6094,8.6094,8.6094,7.0898,7.0898,7.0898,7.0898,7.0898,7.0898,7.0898,7.0898,7.0898,7.0898,7.0898,7.0898,7.0898,7.0898,7.1168,7.186,7.2706,7.3476,7.413,7.4322,7.4822,7.5668,7.5707,7.5707,7.5707,7.5899,7.6015,7.6015,7.6015,7.6015,7.6015,7.6015,7.6015,7.6015,7.6015,7.6015,7.6015,7.6015,7.6015,7.6015,7.6015,7.6015,7.6015,7.6015,7.6015,7.6015,7.6015,7.6015,7.6015,7.6015,7.6015,7.6015,7.6015,7.6015,7.6015,7.6015,7.6015,7.6015,7.6015,7.6015,7.6015,7.6015,7.6015,7.6015,7.6015,7.6015,7.6207,7.6861,7.7169,7.7746,7.9246,7.9669,8.0092,8.0977,8.1093,8.1093,8.1093,8.1093,8.1093,8.1093,8.1093,8.1093,8.1093,8.1093,8.1093,8.1093,8.1093,8.1093,8.1093,8.1093,8.1093,8.1093,8.1093,8.1093,8.1093,8.1093,8.1093,8.1093,8.1093,8.1093,8.1131,8.1939,8.2785,8.3632,8.4516,8.5363,8.6094,8.6094,8.6094,8.6094,8.6094,8.6094,8.6094,8.6094,8.6094,8.6094,7.2129,7.2129,7.2129,7.2129,7.2129,7.2129,7.2129,7.2129,7.2129,7.2129,7.2129,7.2129,7.2129,7.2129,7.2322,7.2783,7.3591,7.4245,7.4668,7.5091,7.5515,7.5976,7.6015,7.6015,7.6015,7.6015,7.6015,7.6015,7.6015,7.6015,7.6015,7.6015,7.6015,7.6015,7.6015,7.6015,7.6015,7.6015,7.6015,7.6015,7.6015,7.6015,7.6015,7.6015,7.6015,7.6015,7.6015,7.6015,7.6015,7.6015,7.6015,7.6015,7.6015,7.6015,7.6015,7.6015,7.6015,7.6015,7.6015,7.6015,7.6015,7.6015,7.6015,7.6015,7.6015,7.6015,7.6245,7.713,7.7592,7.8284,7.9554,8.0131,8.0554,8.1016,8.1093,8.1093,8.1093,8.1093,8.1093,8.1093,8.1093,8.1093,8.1093,8.1093,8.1093,8.1093,8.1093,8.1093,8.1093,8.1093,8.1093,8.1093,8.1093,8.1093,8.1093,8.1093,8.1093,8.1093,8.1093,8.1093,8.1093,8.1554,8.2401,8.3632,8.4093,8.4978,8.6094,8.6094,8.6094,8.6094,8.6094,8.6094,8.6094,8.6094,8.6094,8.617,7.3514,7.3514,7.3514,7.3514,7.3514,7.3514,7.3514,7.3514,7.3514,7.3514,7.3514,7.3514,7.3514,7.363,7.3707,7.3707,7.4437,7.4938,7.4938,7.5592,7.6015,7.6015,7.6015,7.6015,7.6015,7.6015,7.6015,7.6015,7.6015,7.6015,7.6015,7.6015,7.6015,7.6015,7.6015,7.6015,7.6015,7.6015,7.6015,7.6015,7.6015,7.6015,7.6015,7.6015,7.6015,7.6015,7.6015,7.6015,7.6015,7.6015,7.6015,7.6015,7.6015,7.6015,7.6015,7.6015,7.6015,7.6015,7.6015,7.6015,7.6015,7.6015,7.6092,7.6207,7.6207,7.6207,7.6476,7.7323,7.813,7.8977,7.9862,8.0631,8.1093,8.1093,8.1093,8.1093,8.1093,8.1093,8.1093,8.1093,8.1093,8.1093,8.1093,8.1093,8.1093,8.1093,8.1093,8.1093,8.1093,8.1093,8.1093,8.1093,8.1093,8.1093,8.1093,8.1093,8.1093,8.1093,8.1093,8.1093,8.1093,8.1093,8.2016,8.3593,8.3593,8.4555,8.6094,8.6094,8.6094,8.6094,8.6094,8.6094,8.6094,8.6094,8.6094,8.6209,7.3514,7.3514,7.3514,7.3514,7.3514,7.3514,7.3514,7.3514,7.3514,7.3514,7.3514,7.3514,7.3514,7.413,7.4553,7.4553,7.5322,7.5822,7.5822,7.5938,7.6015,7.6015,7.6015,7.6015,7.6015,7.6015,7.6015,7.6015,7.6015,7.6015,7.6015,7.6015,7.6015,7.6015,7.6015,7.6015,7.6015,7.6015,7.6015,7.6015,7.6015,7.6015,7.6015,7.6015,7.6015,7.6015,7.6015,7.6015,7.6015,7.6015,7.6015,7.6015,7.6015,7.6015,7.6015,7.6015,7.6015,7.6015,7.6015,7.6015,7.6015,7.6015,7.6553,7.713,7.713,7.713,7.7361,7.8169,7.9015,7.99,8.0746,8.1016,8.1093,8.1093,8.1093,8.1093,8.1093,8.1093,8.1093,8.1093,8.1093,8.1093,8.1093,8.1093,8.1093,8.1093,8.1093,8.1093,8.1093,8.1093,8.1093,8.1093,8.1093,8.1093,8.1093,8.1093,8.1093,8.1093,8.1093,8.1093,8.1093,8.1093,8.2016,8.3593,8.3593,8.4555,8.6094,8.6094,8.6094,8.6094,8.6094,8.6094,8.6094,8.6094,8.6094,8.6209,7.4899,7.4899,7.4899,7.4899,7.4899,7.4899,7.4899,7.4899,7.4899,7.4899,7.4899,7.4899,7.4899,7.5207,7.5438,7.5438,7.5784,7.6015,7.6015,7.6015,7.6015,7.6015,7.6015,7.6015,7.6015,7.6015,7.6015,7.6015,7.6015,7.6015,7.6015,7.6015,7.6015,7.6015,7.6015,7.6015,7.6015,7.6015,7.6015,7.6015,7.6015,7.6015,7.6015,7.6015,7.6015,7.6015,7.6015,7.6015,7.6015,7.6015,7.6015,7.6015,7.6015,7.6015,7.6015,7.6015,7.6015,7.6015,7.6015,7.6361,7.6746,7.6746,7.7361,7.7977,7.7977,7.8361,7.8784,7.9169,7.9515,8.0092,8.0939,8.1093,8.1093,8.1093,8.1093,8.1093,8.1093,8.1093,8.1093,8.1093,8.1093,8.1093,8.1093,8.1093,8.1093,8.1093,8.1093,8.1093,8.1093,8.1093,8.1093,8.1093,8.1093,8.1093,8.1093,8.1093,8.1093,8.1093,8.1093,8.1093,8.1093,8.1093,8.2016,8.3593,8.3593,8.4555,8.6094,8.6094,8.6094,8.6094,8.6094,8.6094,8.6094,8.6094,8.6094,8.6286]}]]